<?xml version="1.0" encoding="UTF-8" standalone="no" ?>
<gpx xmlns="http://www.topografix.com/GPX/1/1" xmlns:xsi="http://www.w3.org/2001/XMLSchema-instance" xsi:schemaLocation="http://www.topografix.com/GPX/1/1 http://www.topografix.com/GPX/1/1/gpx.xsd" version="1.1" creator="VisuGPX - https://www.visugpx.com">
  <metadata>
    <name>Boucle en Dordogne (14juil22)</name>
  </metadata>
  <trk>
    <name><![CDATA[P1_Frontenac - Loubes Bernac (48)]]></name>
    <trkseg>
      <trkpt lat="44.72953" lon="-0.16978">
        <ele>49.1</ele>
      </trkpt>
      <trkpt lat="44.72928" lon="-0.16853">
        <ele>52.4</ele>
      </trkpt>
      <trkpt lat="44.72823" lon="-0.16874">
        <ele>52.4</ele>
      </trkpt>
      <trkpt lat="44.72566" lon="-0.16943">
        <ele>56.4</ele>
      </trkpt>
      <trkpt lat="44.7237" lon="-0.16831">
        <ele>59.1</ele>
      </trkpt>
      <trkpt lat="44.71992" lon="-0.16651">
        <ele>63.7</ele>
      </trkpt>
      <trkpt lat="44.71492" lon="-0.16789">
        <ele>58.6</ele>
      </trkpt>
      <trkpt lat="44.71193" lon="-0.16574">
        <ele>63.6</ele>
      </trkpt>
      <trkpt lat="44.71148" lon="-0.16557">
        <ele>60.21397</ele>
        <time>2022-07-11T13:22:08.512Z</time>
      </trkpt>
      <trkpt lat="44.70779" lon="-0.16302">
        <ele>63.541797</ele>
        <time>2022-07-11T13:23:33.892Z</time>
      </trkpt>
      <trkpt lat="44.70567" lon="-0.16155">
        <ele>64.307736</ele>
        <time>2022-07-11T13:24:18.729Z</time>
      </trkpt>
      <trkpt lat="44.70532" lon="-0.16126">
        <ele>64.310719</ele>
        <time>2022-07-11T13:24:25.949Z</time>
      </trkpt>
      <trkpt lat="44.70472" lon="-0.16068">
        <ele>64.31611</ele>
        <time>2022-07-11T13:24:38.770Z</time>
      </trkpt>
      <trkpt lat="44.70368" lon="-0.15946">
        <ele>64.247272</ele>
        <time>2022-07-11T13:25:02.424Z</time>
      </trkpt>
      <trkpt lat="44.70145" lon="-0.1569">
        <ele>64.137265</ele>
        <time>2022-07-11T13:25:53.420Z</time>
      </trkpt>
      <trkpt lat="44.70068" lon="-0.15583">
        <ele>64.350645</ele>
        <time>2022-07-11T13:26:12.625Z</time>
      </trkpt>
      <trkpt lat="44.70025" lon="-0.15533">
        <ele>64.460579</ele>
        <time>2022-07-11T13:26:23.393Z</time>
      </trkpt>
      <trkpt lat="44.69997" lon="-0.1551">
        <ele>64.858029</ele>
        <time>2022-07-11T13:26:30.144Z</time>
      </trkpt>
      <trkpt lat="44.69785" lon="-0.15259">
        <ele>68.597893</ele>
        <time>2022-07-11T13:27:36.317Z</time>
      </trkpt>
      <trkpt lat="44.69766" lon="-0.15236">
        <ele>68.946835</ele>
        <time>2022-07-11T13:27:41.971Z</time>
      </trkpt>
      <trkpt lat="44.69761" lon="-0.15224">
        <ele>69.101864</ele>
        <time>2022-07-11T13:27:44.551Z</time>
      </trkpt>
      <trkpt lat="44.69754" lon="-0.15223">
        <ele>69.201192</ele>
        <time>2022-07-11T13:27:46.107Z</time>
      </trkpt>
      <trkpt lat="44.69747" lon="-0.15222">
        <ele>69.297591</ele>
        <time>2022-07-11T13:27:47.569Z</time>
      </trkpt>
      <trkpt lat="44.6974" lon="-0.15221">
        <ele>69.377447</ele>
        <time>2022-07-11T13:27:49.228Z</time>
      </trkpt>
      <trkpt lat="44.69736" lon="-0.15199">
        <ele>69.520837</ele>
        <time>2022-07-11T13:27:52.982Z</time>
      </trkpt>
      <trkpt lat="44.69538" lon="-0.14968">
        <ele>71.258319</ele>
        <time>2022-07-11T13:28:46.663Z</time>
      </trkpt>
      <trkpt lat="44.69317" lon="-0.14709">
        <ele>71.055287</ele>
        <time>2022-07-11T13:29:36.624Z</time>
      </trkpt>
      <trkpt lat="44.69287" lon="-0.14666">
        <ele>70.942012</ele>
        <time>2022-07-11T13:29:43.702Z</time>
      </trkpt>
      <trkpt lat="44.69247" lon="-0.14591">
        <ele>70.764236</ele>
        <time>2022-07-11T13:29:54.929Z</time>
      </trkpt>
      <trkpt lat="44.69221" lon="-0.14514">
        <ele>70.770452</ele>
        <time>2022-07-11T13:30:05.516Z</time>
      </trkpt>
      <trkpt lat="44.69204" lon="-0.14428">
        <ele>71.314408</ele>
        <time>2022-07-11T13:30:17.797Z</time>
      </trkpt>
      <trkpt lat="44.69165" lon="-0.13988">
        <ele>74.991099</ele>
        <time>2022-07-11T13:31:31.368Z</time>
      </trkpt>
      <trkpt lat="44.69144" lon="-0.13735">
        <ele>77.014777</ele>
        <time>2022-07-11T13:32:10.886Z</time>
      </trkpt>
      <trkpt lat="44.69129" lon="-0.13644">
        <ele>77.734611</ele>
        <time>2022-07-11T13:32:25.668Z</time>
      </trkpt>
      <trkpt lat="44.69106" lon="-0.13564">
        <ele>78.39805</ele>
        <time>2022-07-11T13:32:39.381Z</time>
      </trkpt>
      <trkpt lat="44.69049" lon="-0.13435">
        <ele>79.380295</ele>
        <time>2022-07-11T13:33:03.174Z</time>
      </trkpt>
      <trkpt lat="44.69027" lon="-0.134">
        <ele>79.673252</ele>
        <time>2022-07-11T13:33:10.137Z</time>
      </trkpt>
      <trkpt lat="44.68835" lon="-0.13174">
        <ele>81.45764</ele>
        <time>2022-07-11T13:34:00.764Z</time>
      </trkpt>
      <trkpt lat="44.68738" lon="-0.13018">
        <ele>82.603495</ele>
        <time>2022-07-11T13:34:32.571Z</time>
      </trkpt>
      <trkpt lat="44.68668" lon="-0.12858">
        <ele>82.923077</ele>
        <time>2022-07-11T13:34:59.067Z</time>
      </trkpt>
      <trkpt lat="44.6854" lon="-0.12444">
        <ele>81.66396</ele>
        <time>2022-07-11T13:35:52.417Z</time>
      </trkpt>
      <trkpt lat="44.68497" lon="-0.12285">
        <ele>81.181355</ele>
        <time>2022-07-11T13:36:12.601Z</time>
      </trkpt>
      <trkpt lat="44.68474" lon="-0.12119">
        <ele>81.225709</ele>
        <time>2022-07-11T13:36:34.307Z</time>
      </trkpt>
      <trkpt lat="44.6847" lon="-0.11996">
        <ele>81.270096</ele>
        <time>2022-07-11T13:36:51.144Z</time>
      </trkpt>
      <trkpt lat="44.68477" lon="-0.11336">
        <ele>81.774352</ele>
        <time>2022-07-11T13:38:15.265Z</time>
      </trkpt>
      <trkpt lat="44.68472" lon="-0.11323">
        <ele>81.795526</ele>
        <time>2022-07-11T13:38:17.353Z</time>
      </trkpt>
      <trkpt lat="44.68467" lon="-0.11314">
        <ele>81.811624</ele>
        <time>2022-07-11T13:38:18.971Z</time>
      </trkpt>
      <trkpt lat="44.68474" lon="-0.11284">
        <ele>81.990984</ele>
        <time>2022-07-11T13:38:23.869Z</time>
      </trkpt>
      <trkpt lat="44.68478" lon="-0.11265">
        <ele>82.123964</ele>
        <time>2022-07-11T13:38:26.789Z</time>
      </trkpt>
      <trkpt lat="44.68483" lon="-0.10765">
        <ele>84.382478</ele>
        <time>2022-07-11T13:39:45.064Z</time>
      </trkpt>
      <trkpt lat="44.68482" lon="-0.10742">
        <ele>84.010791</ele>
        <time>2022-07-11T13:39:47.459Z</time>
      </trkpt>
      <trkpt lat="44.68485" lon="-0.10601">
        <ele>81.749884</ele>
        <time>2022-07-11T13:40:01.344Z</time>
      </trkpt>
      <trkpt lat="44.68493" lon="-0.10527">
        <ele>80.616375</ele>
        <time>2022-07-11T13:40:08.296Z</time>
      </trkpt>
      <trkpt lat="44.68515" lon="-0.10445">
        <ele>79.404982</ele>
        <time>2022-07-11T13:40:16.920Z</time>
      </trkpt>
      <trkpt lat="44.68542" lon="-0.10387">
        <ele>78.454922</ele>
        <time>2022-07-11T13:40:24.264Z</time>
      </trkpt>
      <trkpt lat="44.68582" lon="-0.10326">
        <ele>77.496185</ele>
        <time>2022-07-11T13:40:34.437Z</time>
      </trkpt>
      <trkpt lat="44.68619" lon="-0.10291">
        <ele>77.598881</ele>
        <time>2022-07-11T13:40:42.628Z</time>
      </trkpt>
      <trkpt lat="44.68644" lon="-0.10272">
        <ele>77.666412</ele>
        <time>2022-07-11T13:40:48.623Z</time>
      </trkpt>
      <trkpt lat="44.68786" lon="-0.10192">
        <ele>77.642847</ele>
        <time>2022-07-11T13:41:17.884Z</time>
      </trkpt>
      <trkpt lat="44.6883" lon="-0.10157">
        <ele>77.409858</ele>
        <time>2022-07-11T13:41:26.475Z</time>
      </trkpt>
      <trkpt lat="44.68874" lon="-0.10094">
        <ele>77.122409</ele>
        <time>2022-07-11T13:41:36.638Z</time>
      </trkpt>
      <trkpt lat="44.68906" lon="-0.10027">
        <ele>76.119621</ele>
        <time>2022-07-11T13:41:45.289Z</time>
      </trkpt>
      <trkpt lat="44.68923" lon="-0.0997">
        <ele>75.196911</ele>
        <time>2022-07-11T13:41:51.926Z</time>
      </trkpt>
      <trkpt lat="44.69045" lon="-0.09374">
        <ele>65.666224</ele>
        <time>2022-07-11T13:42:55.378Z</time>
      </trkpt>
      <trkpt lat="44.69051" lon="-0.09303">
        <ele>64.39499</ele>
        <time>2022-07-11T13:43:02.756Z</time>
      </trkpt>
      <trkpt lat="44.69047" lon="-0.08945">
        <ele>58.152201</ele>
        <time>2022-07-11T13:43:38.623Z</time>
      </trkpt>
      <trkpt lat="44.69047" lon="-0.08911">
        <ele>57.569951</ele>
        <time>2022-07-11T13:43:42.114Z</time>
      </trkpt>
      <trkpt lat="44.69047" lon="-0.08883">
        <ele>57.099475</ele>
        <time>2022-07-11T13:43:44.983Z</time>
      </trkpt>
      <trkpt lat="44.69042" lon="-0.08856">
        <ele>56.62156</ele>
        <time>2022-07-11T13:43:47.950Z</time>
      </trkpt>
      <trkpt lat="44.69026" lon="-0.08774">
        <ele>55.79617</ele>
        <time>2022-07-11T13:43:57.490Z</time>
      </trkpt>
      <trkpt lat="44.69005" lon="-0.08729">
        <ele>55.279536</ele>
        <time>2022-07-11T13:44:03.619Z</time>
      </trkpt>
      <trkpt lat="44.68942" lon="-0.0859">
        <ele>53.802122</ele>
        <time>2022-07-11T13:44:23.176Z</time>
      </trkpt>
      <trkpt lat="44.68819" lon="-0.08428">
        <ele>52.148531</ele>
        <time>2022-07-11T13:44:51.161Z</time>
      </trkpt>
      <trkpt lat="44.68744" lon="-0.08341">
        <ele>51.413125</ele>
        <time>2022-07-11T13:45:07.041Z</time>
      </trkpt>
      <trkpt lat="44.68676" lon="-0.08284">
        <ele>50.938162</ele>
        <time>2022-07-11T13:45:21.649Z</time>
      </trkpt>
      <trkpt lat="44.68638" lon="-0.08235">
        <ele>50.851752</ele>
        <time>2022-07-11T13:45:31.019Z</time>
      </trkpt>
      <trkpt lat="44.68672" lon="-0.08177">
        <ele>50.760208</ele>
        <time>2022-07-11T13:45:44.323Z</time>
      </trkpt>
      <trkpt lat="44.68674" lon="-0.08161">
        <ele>50.740967</ele>
        <time>2022-07-11T13:45:46.803Z</time>
      </trkpt>
      <trkpt lat="44.68595" lon="-0.08043">
        <ele>50.222866</ele>
        <time>2022-07-11T13:46:12.236Z</time>
      </trkpt>
      <trkpt lat="44.68597" lon="-0.08035">
        <ele>50.189067</ele>
        <time>2022-07-11T13:46:13.388Z</time>
      </trkpt>
      <trkpt lat="44.68537" lon="-0.07987">
        <ele>49.769695</ele>
        <time>2022-07-11T13:46:24.275Z</time>
      </trkpt>
      <trkpt lat="44.68501" lon="-0.07945">
        <ele>49.968757</ele>
        <time>2022-07-11T13:46:32.366Z</time>
      </trkpt>
      <trkpt lat="44.68468" lon="-0.07895">
        <ele>51.170253</ele>
        <time>2022-07-11T13:46:42.786Z</time>
      </trkpt>
      <trkpt lat="44.68428" lon="-0.0781">
        <ele>52.961174</ele>
        <time>2022-07-11T13:47:04.364Z</time>
      </trkpt>
      <trkpt lat="44.68418" lon="-0.07783">
        <ele>53.489884</ele>
        <time>2022-07-11T13:47:11.949Z</time>
      </trkpt>
      <trkpt lat="44.68393" lon="-0.07689">
        <ele>56.023228</ele>
        <time>2022-07-11T13:47:39.043Z</time>
      </trkpt>
      <trkpt lat="44.68388" lon="-0.07668">
        <ele>56.645374</ele>
        <time>2022-07-11T13:47:44.876Z</time>
      </trkpt>
      <trkpt lat="44.68377" lon="-0.07625">
        <ele>57.943199</ele>
        <time>2022-07-11T13:47:56.788Z</time>
      </trkpt>
      <trkpt lat="44.6835" lon="-0.07534">
        <ele>60.739214</ele>
        <time>2022-07-11T13:48:19.483Z</time>
      </trkpt>
      <trkpt lat="44.68323" lon="-0.07488">
        <ele>61.732768</ele>
        <time>2022-07-11T13:48:30.907Z</time>
      </trkpt>
      <trkpt lat="44.6831" lon="-0.07479">
        <ele>61.974984</ele>
        <time>2022-07-11T13:48:34.802Z</time>
      </trkpt>
      <trkpt lat="44.68321" lon="-0.0745">
        <ele>62.366645</ele>
        <time>2022-07-11T13:48:40.159Z</time>
      </trkpt>
      <trkpt lat="44.6832" lon="-0.07441">
        <ele>62.479552</ele>
        <time>2022-07-11T13:48:41.820Z</time>
      </trkpt>
      <trkpt lat="44.68303" lon="-0.07375">
        <ele>63.328611</ele>
        <time>2022-07-11T13:48:53.349Z</time>
      </trkpt>
      <trkpt lat="44.68292" lon="-0.07306">
        <ele>64.191518</ele>
        <time>2022-07-11T13:49:04.766Z</time>
      </trkpt>
      <trkpt lat="44.68277" lon="-0.07138">
        <ele>65.557839</ele>
        <time>2022-07-11T13:49:32.169Z</time>
      </trkpt>
      <trkpt lat="44.68274" lon="-0.07081">
        <ele>66.019012</ele>
        <time>2022-07-11T13:49:41.205Z</time>
      </trkpt>
      <trkpt lat="44.68271" lon="-0.07043">
        <ele>66.305847</ele>
        <time>2022-07-11T13:49:46.891Z</time>
      </trkpt>
      <trkpt lat="44.6825" lon="-0.06775">
        <ele>67.653259</ele>
        <time>2022-07-11T13:50:25.580Z</time>
      </trkpt>
      <trkpt lat="44.68253" lon="-0.06706">
        <ele>68.131928</ele>
        <time>2022-07-11T13:50:36.529Z</time>
      </trkpt>
      <trkpt lat="44.68257" lon="-0.06585">
        <ele>68.957164</ele>
        <time>2022-07-11T13:50:55.394Z</time>
      </trkpt>
      <trkpt lat="44.6824" lon="-0.06394">
        <ele>70.52171</ele>
        <time>2022-07-11T13:51:24.843Z</time>
      </trkpt>
      <trkpt lat="44.6827" lon="-0.06051">
        <ele>74.852719</ele>
        <time>2022-07-11T13:52:24.459Z</time>
      </trkpt>
      <trkpt lat="44.68281" lon="-0.06008">
        <ele>76.058664</ele>
        <time>2022-07-11T13:52:35.325Z</time>
      </trkpt>
      <trkpt lat="44.68369" lon="-0.05776">
        <ele>83.617939</ele>
        <time>2022-07-11T13:53:42.499Z</time>
      </trkpt>
      <trkpt lat="44.68387" lon="-0.05706">
        <ele>85.477255</ele>
        <time>2022-07-11T13:54:00.280Z</time>
      </trkpt>
      <trkpt lat="44.684" lon="-0.05576">
        <ele>88.791925</ele>
        <time>2022-07-11T13:54:29.479Z</time>
      </trkpt>
      <trkpt lat="44.68403" lon="-0.05438">
        <ele>89.926114</ele>
        <time>2022-07-11T13:54:52.855Z</time>
      </trkpt>
      <trkpt lat="44.68403" lon="-0.05391">
        <ele>90.307666</ele>
        <time>2022-07-11T13:55:00.102Z</time>
      </trkpt>
      <trkpt lat="44.68413" lon="-0.05328">
        <ele>90.837481</ele>
        <time>2022-07-11T13:55:09.334Z</time>
      </trkpt>
      <trkpt lat="44.68537" lon="-0.04846">
        <ele>87.29039</ele>
        <time>2022-07-11T13:56:06.374Z</time>
      </trkpt>
      <trkpt lat="44.68554" lon="-0.04747">
        <ele>87.533551</ele>
        <time>2022-07-11T13:56:19.277Z</time>
      </trkpt>
      <trkpt lat="44.68567" lon="-0.04499">
        <ele>88.183281</ele>
        <time>2022-07-11T13:56:56.832Z</time>
      </trkpt>
      <trkpt lat="44.6857" lon="-0.04402">
        <ele>88.462481</ele>
        <time>2022-07-11T13:57:10.228Z</time>
      </trkpt>
      <trkpt lat="44.6858" lon="-0.0422">
        <ele>88.121147</ele>
        <time>2022-07-11T13:57:32.536Z</time>
      </trkpt>
      <trkpt lat="44.68584" lon="-0.04188">
        <ele>87.988412</ele>
        <time>2022-07-11T13:57:36.309Z</time>
      </trkpt>
      <trkpt lat="44.68607" lon="-0.04104">
        <ele>87.632414</ele>
        <time>2022-07-11T13:57:46.436Z</time>
      </trkpt>
      <trkpt lat="44.68661" lon="-0.03977">
        <ele>87.366543</ele>
        <time>2022-07-11T13:58:03.708Z</time>
      </trkpt>
      <trkpt lat="44.68685" lon="-0.03893">
        <ele>87.210267</ele>
        <time>2022-07-11T13:58:15.238Z</time>
      </trkpt>
      <trkpt lat="44.68761" lon="-0.03285">
        <ele>91.092544</ele>
        <time>2022-07-11T13:59:51.349Z</time>
      </trkpt>
      <trkpt lat="44.68777" lon="-0.03199">
        <ele>91.454505</ele>
        <time>2022-07-11T14:00:03.914Z</time>
      </trkpt>
      <trkpt lat="44.68788" lon="-0.03153">
        <ele>91.652645</ele>
        <time>2022-07-11T14:00:10.521Z</time>
      </trkpt>
      <trkpt lat="44.68813" lon="-0.03034">
        <ele>91.594907</ele>
        <time>2022-07-11T14:00:26.154Z</time>
      </trkpt>
      <trkpt lat="44.68814" lon="-0.02986">
        <ele>91.5242</ele>
        <time>2022-07-11T14:00:31.977Z</time>
      </trkpt>
      <trkpt lat="44.68805" lon="-0.02903">
        <ele>91.399169</ele>
        <time>2022-07-11T14:00:42.070Z</time>
      </trkpt>
      <trkpt lat="44.68782" lon="-0.02712">
        <ele>90.929564</ele>
        <time>2022-07-11T14:01:05.359Z</time>
      </trkpt>
      <trkpt lat="44.6877" lon="-0.02653">
        <ele>90.774901</ele>
        <time>2022-07-11T14:01:12.790Z</time>
      </trkpt>
      <trkpt lat="44.68753" lon="-0.02617">
        <ele>90.583876</ele>
        <time>2022-07-11T14:01:18.172Z</time>
      </trkpt>
      <trkpt lat="44.6873" lon="-0.02585">
        <ele>90.332082</ele>
        <time>2022-07-11T14:01:23.676Z</time>
      </trkpt>
      <trkpt lat="44.68658" lon="-0.02451">
        <ele>89.381238</ele>
        <time>2022-07-11T14:01:43.093Z</time>
      </trkpt>
      <trkpt lat="44.68637" lon="-0.02387">
        <ele>88.275652</ele>
        <time>2022-07-11T14:01:50.648Z</time>
      </trkpt>
      <trkpt lat="44.68599" lon="-0.02263">
        <ele>85.828808</ele>
        <time>2022-07-11T14:02:04.427Z</time>
      </trkpt>
      <trkpt lat="44.68515" lon="-0.02123">
        <ele>80.742343</ele>
        <time>2022-07-11T14:02:21.524Z</time>
      </trkpt>
      <trkpt lat="44.6849" lon="-0.02085">
        <ele>79.041288</ele>
        <time>2022-07-11T14:02:26.221Z</time>
      </trkpt>
      <trkpt lat="44.68418" lon="-0.01965">
        <ele>73.841304</ele>
        <time>2022-07-11T14:02:40.278Z</time>
      </trkpt>
      <trkpt lat="44.68396" lon="-0.01921">
        <ele>72.028715</ele>
        <time>2022-07-11T14:02:45.029Z</time>
      </trkpt>
      <trkpt lat="44.68371" lon="-0.01846">
        <ele>69.236662</ele>
        <time>2022-07-11T14:02:52.547Z</time>
      </trkpt>
      <trkpt lat="44.68343" lon="-0.01741">
        <ele>66.660797</ele>
        <time>2022-07-11T14:03:03.297Z</time>
      </trkpt>
      <trkpt lat="44.68304" lon="-0.01596">
        <ele>63.98037</ele>
        <time>2022-07-11T14:03:19.456Z</time>
      </trkpt>
      <trkpt lat="44.6827" lon="-0.01525">
        <ele>62.597568</ele>
        <time>2022-07-11T14:03:29.097Z</time>
      </trkpt>
      <trkpt lat="44.68178" lon="-0.014">
        <ele>59.774756</ele>
        <time>2022-07-11T14:03:47.498Z</time>
      </trkpt>
      <trkpt lat="44.6816" lon="-0.01374">
        <ele>58.884144</ele>
        <time>2022-07-11T14:03:51.031Z</time>
      </trkpt>
      <trkpt lat="44.68126" lon="-0.01293">
        <ele>56.12277</ele>
        <time>2022-07-11T14:04:00.020Z</time>
      </trkpt>
      <trkpt lat="44.6811" lon="-0.01265">
        <ele>55.085134</ele>
        <time>2022-07-11T14:04:03.281Z</time>
      </trkpt>
      <trkpt lat="44.68096" lon="-0.01244">
        <ele>54.232903</ele>
        <time>2022-07-11T14:04:05.928Z</time>
      </trkpt>
      <trkpt lat="44.6803" lon="-0.01169">
        <ele>51.56919</ele>
        <time>2022-07-11T14:04:16.518Z</time>
      </trkpt>
      <trkpt lat="44.68014" lon="-0.01149">
        <ele>51.186712</ele>
        <time>2022-07-11T14:04:19.337Z</time>
      </trkpt>
      <trkpt lat="44.68009" lon="-0.01144">
        <ele>51.075874</ele>
        <time>2022-07-11T14:04:20.170Z</time>
      </trkpt>
      <trkpt lat="44.67925" lon="-0.01043">
        <ele>49.104649</ele>
        <time>2022-07-11T14:04:37.306Z</time>
      </trkpt>
      <trkpt lat="44.6776" lon="-0.00853">
        <ele>56.497285</ele>
        <time>2022-07-11T14:05:49.154Z</time>
      </trkpt>
      <trkpt lat="44.67754" lon="-0.00849">
        <ele>56.80759</ele>
        <time>2022-07-11T14:05:51.723Z</time>
      </trkpt>
      <trkpt lat="44.67762" lon="-0.00839">
        <ele>57.280636</ele>
        <time>2022-07-11T14:05:56.652Z</time>
      </trkpt>
      <trkpt lat="44.67786" lon="-0.00845">
        <ele>58.440105</ele>
        <time>2022-07-11T14:06:07.524Z</time>
      </trkpt>
      <trkpt lat="44.67793" lon="-0.00831">
        <ele>59.016624</ele>
        <time>2022-07-11T14:06:13.193Z</time>
      </trkpt>
      <trkpt lat="44.67814" lon="-0.0067">
        <ele>64.410697</ele>
        <time>2022-07-11T14:07:02.220Z</time>
      </trkpt>
      <trkpt lat="44.67803" lon="-0.00662">
        <ele>64.929531</ele>
        <time>2022-07-11T14:07:07.007Z</time>
      </trkpt>
      <trkpt lat="44.67771" lon="-0.00607">
        <ele>67.087106</ele>
        <time>2022-07-11T14:07:28.255Z</time>
      </trkpt>
      <trkpt lat="44.67764" lon="-0.00599">
        <ele>67.460325</ele>
        <time>2022-07-11T14:07:31.632Z</time>
      </trkpt>
      <trkpt lat="44.67757" lon="-0.00589">
        <ele>67.884061</ele>
        <time>2022-07-11T14:07:35.394Z</time>
      </trkpt>
      <trkpt lat="44.67759" lon="-0.00571">
        <ele>68.438628</ele>
        <time>2022-07-11T14:07:40.464Z</time>
      </trkpt>
      <trkpt lat="44.67736" lon="-0.00463">
        <ele>71.760768</ele>
        <time>2022-07-11T14:08:06.966Z</time>
      </trkpt>
      <trkpt lat="44.67721" lon="-0.00346">
        <ele>74.830801</ele>
        <time>2022-07-11T14:08:35.213Z</time>
      </trkpt>
      <trkpt lat="44.67726" lon="-0.00325">
        <ele>75.394604</ele>
        <time>2022-07-11T14:08:40.119Z</time>
      </trkpt>
      <trkpt lat="44.67735" lon="-0.0031">
        <ele>75.891559</ele>
        <time>2022-07-11T14:08:44.395Z</time>
      </trkpt>
      <trkpt lat="44.67758" lon="-0.00291">
        <ele>76.848031</ele>
        <time>2022-07-11T14:08:52.607Z</time>
      </trkpt>
      <trkpt lat="44.67771" lon="-0.0027">
        <ele>77.570805</ele>
        <time>2022-07-11T14:08:58.924Z</time>
      </trkpt>
      <trkpt lat="44.67817" lon="-0.00155">
        <ele>80.2539</ele>
        <time>2022-07-11T14:09:28.022Z</time>
      </trkpt>
      <trkpt lat="44.67823" lon="-0.00126">
        <ele>80.859605</ele>
        <time>2022-07-11T14:09:34.357Z</time>
      </trkpt>
      <trkpt lat="44.67818" lon="-0.00052">
        <ele>82.325284</ele>
        <time>2022-07-11T14:09:48.663Z</time>
      </trkpt>
      <trkpt lat="44.67806" lon="0.00072">
        <ele>84.140579</ele>
        <time>2022-07-11T14:10:11.128Z</time>
      </trkpt>
      <trkpt lat="44.67807" lon="0.00137">
        <ele>84.968843</ele>
        <time>2022-07-11T14:10:22.431Z</time>
      </trkpt>
      <trkpt lat="44.67867" lon="0.00501">
        <ele>89.599971</ele>
        <time>2022-07-11T14:11:28.297Z</time>
      </trkpt>
      <trkpt lat="44.67893" lon="0.00702">
        <ele>91.707379</ele>
        <time>2022-07-11T14:12:03.265Z</time>
      </trkpt>
      <trkpt lat="44.67903" lon="0.0075">
        <ele>91.939226</ele>
        <time>2022-07-11T14:12:10.908Z</time>
      </trkpt>
      <trkpt lat="44.6792" lon="0.00792">
        <ele>92.002035</ele>
        <time>2022-07-11T14:12:18.011Z</time>
      </trkpt>
      <trkpt lat="44.68216" lon="0.01412">
        <ele>92.606325</ele>
        <time>2022-07-11T14:13:52.911Z</time>
      </trkpt>
      <trkpt lat="44.68379" lon="0.0174">
        <ele>92.779221</ele>
        <time>2022-07-11T14:14:43.794Z</time>
      </trkpt>
      <trkpt lat="44.68608" lon="0.02125">
        <ele>93.74707</ele>
        <time>2022-07-11T14:15:51.465Z</time>
      </trkpt>
      <trkpt lat="44.68628" lon="0.0216">
        <ele>93.844264</ele>
        <time>2022-07-11T14:15:57.615Z</time>
      </trkpt>
      <trkpt lat="44.68679" lon="0.02247">
        <ele>93.985349</ele>
        <time>2022-07-11T14:16:12.849Z</time>
      </trkpt>
      <trkpt lat="44.68775" lon="0.02412">
        <ele>94.122685</ele>
        <time>2022-07-11T14:16:40.221Z</time>
      </trkpt>
      <trkpt lat="44.68806" lon="0.0248">
        <ele>94.087428</ele>
        <time>2022-07-11T14:16:50.206Z</time>
      </trkpt>
      <trkpt lat="44.68936" lon="0.02966">
        <ele>94.320006</ele>
        <time>2022-07-11T14:17:55.207Z</time>
      </trkpt>
      <trkpt lat="44.68974" lon="0.03111">
        <ele>95.485642</ele>
        <time>2022-07-11T14:18:19.463Z</time>
      </trkpt>
      <trkpt lat="44.69036" lon="0.03337">
        <ele>98.542157</ele>
        <time>2022-07-11T14:19:05.462Z</time>
      </trkpt>
      <trkpt lat="44.6905" lon="0.03374">
        <ele>98.972546</ele>
        <time>2022-07-11T14:19:13.686Z</time>
      </trkpt>
      <trkpt lat="44.69328" lon="0.03856">
        <ele>104.208933</ele>
        <time>2022-07-11T14:20:53.758Z</time>
      </trkpt>
      <trkpt lat="44.69443" lon="0.04083">
        <ele>102.502818</ele>
        <time>2022-07-11T14:21:24.580Z</time>
      </trkpt>
      <trkpt lat="44.69458" lon="0.04131">
        <ele>102.024263</ele>
        <time>2022-07-11T14:21:30.385Z</time>
      </trkpt>
      <trkpt lat="44.69468" lon="0.04215">
        <ele>101.230774</ele>
        <time>2022-07-11T14:21:39.884Z</time>
      </trkpt>
      <trkpt lat="44.69505" lon="0.04763">
        <ele>94.652846</ele>
        <time>2022-07-11T14:22:39.535Z</time>
      </trkpt>
      <trkpt lat="44.69519" lon="0.04963">
        <ele>90.852075</ele>
        <time>2022-07-11T14:22:58.728Z</time>
      </trkpt>
      <trkpt lat="44.69518" lon="0.05021">
        <ele>89.629131</ele>
        <time>2022-07-11T14:23:04.266Z</time>
      </trkpt>
      <trkpt lat="44.69511" lon="0.05064">
        <ele>88.712517</ele>
        <time>2022-07-11T14:23:08.510Z</time>
      </trkpt>
      <trkpt lat="44.69435" lon="0.05347">
        <ele>86.989679</ele>
        <time>2022-07-11T14:23:43.469Z</time>
      </trkpt>
      <trkpt lat="44.69431" lon="0.05386">
        <ele>87.593282</ele>
        <time>2022-07-11T14:23:49.750Z</time>
      </trkpt>
      <trkpt lat="44.69431" lon="0.05427">
        <ele>88.218718</ele>
        <time>2022-07-11T14:23:57.325Z</time>
      </trkpt>
      <trkpt lat="44.69443" lon="0.05539">
        <ele>89.939356</ele>
        <time>2022-07-11T14:24:19.588Z</time>
      </trkpt>
      <trkpt lat="44.6945" lon="0.05548">
        <ele>90.134572</ele>
        <time>2022-07-11T14:24:23.185Z</time>
      </trkpt>
      <trkpt lat="44.69387" lon="0.05752">
        <ele>95.537716</ele>
        <time>2022-07-11T14:25:15.779Z</time>
      </trkpt>
      <trkpt lat="44.69364" lon="0.05789">
        <ele>96.783955</ele>
        <time>2022-07-11T14:25:26.273Z</time>
      </trkpt>
      <trkpt lat="44.69353" lon="0.0582">
        <ele>97.527255</ele>
        <time>2022-07-11T14:25:33.931Z</time>
      </trkpt>
      <trkpt lat="44.69356" lon="0.05846">
        <ele>98.008234</ele>
        <time>2022-07-11T14:25:39.295Z</time>
      </trkpt>
      <trkpt lat="44.6936" lon="0.05866">
        <ele>98.413485</ele>
        <time>2022-07-11T14:25:43.951Z</time>
      </trkpt>
      <trkpt lat="44.6938" lon="0.05974">
        <ele>100.533233</ele>
        <time>2022-07-11T14:26:07.867Z</time>
      </trkpt>
      <trkpt lat="44.69402" lon="0.06073">
        <ele>101.587285</ele>
        <time>2022-07-11T14:26:27.131Z</time>
      </trkpt>
      <trkpt lat="44.69408" lon="0.06097">
        <ele>101.382097</ele>
        <time>2022-07-11T14:26:30.652Z</time>
      </trkpt>
      <trkpt lat="44.69401" lon="0.06108">
        <ele>101.264914</ele>
        <time>2022-07-11T14:26:32.772Z</time>
      </trkpt>
      <trkpt lat="44.69375" lon="0.06224">
        <ele>100.28817</ele>
        <time>2022-07-11T14:26:46.325Z</time>
      </trkpt>
      <trkpt lat="44.69371" lon="0.06261">
        <ele>99.977691</ele>
        <time>2022-07-11T14:26:50.196Z</time>
      </trkpt>
      <trkpt lat="44.69376" lon="0.06673">
        <ele>84.786411</ele>
        <time>2022-07-11T14:27:26.660Z</time>
      </trkpt>
      <trkpt lat="44.69355" lon="0.06775">
        <ele>80.531437</ele>
        <time>2022-07-11T14:27:36.013Z</time>
      </trkpt>
      <trkpt lat="44.69351" lon="0.06815">
        <ele>79.02434</ele>
        <time>2022-07-11T14:27:39.588Z</time>
      </trkpt>
      <trkpt lat="44.69356" lon="0.06877">
        <ele>76.734822</ele>
        <time>2022-07-11T14:27:45.267Z</time>
      </trkpt>
      <trkpt lat="44.69361" lon="0.06936">
        <ele>74.567544</ele>
        <time>2022-07-11T14:27:50.661Z</time>
      </trkpt>
      <trkpt lat="44.69364" lon="0.06967">
        <ele>73.444977</ele>
        <time>2022-07-11T14:27:53.389Z</time>
      </trkpt>
      <trkpt lat="44.69346" lon="0.07067">
        <ele>69.827589</ele>
        <time>2022-07-11T14:28:02.649Z</time>
      </trkpt>
      <trkpt lat="44.69345" lon="0.071">
        <ele>68.789129</ele>
        <time>2022-07-11T14:28:05.645Z</time>
      </trkpt>
      <trkpt lat="44.69392" lon="0.07259">
        <ele>63.309461</ele>
        <time>2022-07-11T14:28:21.647Z</time>
      </trkpt>
      <trkpt lat="44.69401" lon="0.07308">
        <ele>61.904347</ele>
        <time>2022-07-11T14:28:26.254Z</time>
      </trkpt>
      <trkpt lat="44.69433" lon="0.07561">
        <ele>56.111383</ele>
        <time>2022-07-11T14:28:50.723Z</time>
      </trkpt>
      <trkpt lat="44.69433" lon="0.07608">
        <ele>55.945206</ele>
        <time>2022-07-11T14:28:55.790Z</time>
      </trkpt>
      <trkpt lat="44.69286" lon="0.07994">
        <ele>56.379823</ele>
        <time>2022-07-11T14:30:01.551Z</time>
      </trkpt>
      <trkpt lat="44.69189" lon="0.08179">
        <ele>54.543897</ele>
        <time>2022-07-11T14:30:26.953Z</time>
      </trkpt>
      <trkpt lat="44.69043" lon="0.08512">
        <ele>48.38496</ele>
        <time>2022-07-11T14:31:05.792Z</time>
      </trkpt>
      <trkpt lat="44.69291" lon="0.08807">
        <ele>47.524887</ele>
        <time>2022-07-11T14:32:04.209Z</time>
      </trkpt>
      <trkpt lat="44.6934" lon="0.08862">
        <ele>47.782953</ele>
        <time>2022-07-11T14:32:16.670Z</time>
      </trkpt>
      <trkpt lat="44.6921" lon="0.09159">
        <ele>49.867866</ele>
        <time>2022-07-11T14:33:07.962Z</time>
      </trkpt>
      <trkpt lat="44.69192" lon="0.09217">
        <ele>50.923217</ele>
        <time>2022-07-11T14:33:19.731Z</time>
      </trkpt>
      <trkpt lat="44.6918" lon="0.09411">
        <ele>54.321923</ele>
        <time>2022-07-11T14:33:59.697Z</time>
      </trkpt>
      <trkpt lat="44.69107" lon="0.09588">
        <ele>59.044123</ele>
        <time>2022-07-11T14:34:43.259Z</time>
      </trkpt>
      <trkpt lat="44.69103" lon="0.09615">
        <ele>59.710141</ele>
        <time>2022-07-11T14:34:49.654Z</time>
      </trkpt>
      <trkpt lat="44.69111" lon="0.09639">
        <ele>60.780382</ele>
        <time>2022-07-11T14:34:55.443Z</time>
      </trkpt>
      <trkpt lat="44.69191" lon="0.09803">
        <ele>68.881652</ele>
        <time>2022-07-11T14:35:53.234Z</time>
      </trkpt>
      <trkpt lat="44.69193" lon="0.09838">
        <ele>70.496625</ele>
        <time>2022-07-11T14:36:05.318Z</time>
      </trkpt>
      <trkpt lat="44.69184" lon="0.0987">
        <ele>72.459083</ele>
        <time>2022-07-11T14:36:18.136Z</time>
      </trkpt>
      <trkpt lat="44.69105" lon="0.10099">
        <ele>86.059155</ele>
        <time>2022-07-11T14:37:51.399Z</time>
      </trkpt>
      <trkpt lat="44.69098" lon="0.10129">
        <ele>87.195149</ele>
        <time>2022-07-11T14:38:01.784Z</time>
      </trkpt>
      <trkpt lat="44.69097" lon="0.10167">
        <ele>88.538348</ele>
        <time>2022-07-11T14:38:12.569Z</time>
      </trkpt>
      <trkpt lat="44.69103" lon="0.1021">
        <ele>90.079873</ele>
        <time>2022-07-11T14:38:24.030Z</time>
      </trkpt>
      <trkpt lat="44.69153" lon="0.10357">
        <ele>93.93182</ele>
        <time>2022-07-11T14:38:55.853Z</time>
      </trkpt>
      <trkpt lat="44.69167" lon="0.10424">
        <ele>94.483137</ele>
        <time>2022-07-11T14:39:05.504Z</time>
      </trkpt>
      <trkpt lat="44.69195" lon="0.10489">
        <ele>95.089895</ele>
        <time>2022-07-11T14:39:16.174Z</time>
      </trkpt>
      <trkpt lat="44.69235" lon="0.10536">
        <ele>95.683922</ele>
        <time>2022-07-11T14:39:26.691Z</time>
      </trkpt>
      <trkpt lat="44.69243" lon="0.10552">
        <ele>95.843408</ele>
        <time>2022-07-11T14:39:29.355Z</time>
      </trkpt>
      <trkpt lat="44.69485" lon="0.10552">
        <ele>97.767349</ele>
        <time>2022-07-11T14:40:25.857Z</time>
      </trkpt>
      <trkpt lat="44.69533" lon="0.10561">
        <ele>97.904902</ele>
        <time>2022-07-11T14:40:34.355Z</time>
      </trkpt>
      <trkpt lat="44.69554" lon="0.10564">
        <ele>97.962609</ele>
        <time>2022-07-11T14:40:37.610Z</time>
      </trkpt>
      <trkpt lat="44.69578" lon="0.10569">
        <ele>97.538557</ele>
        <time>2022-07-11T14:40:41.375Z</time>
      </trkpt>
      <trkpt lat="44.69534" lon="0.10865">
        <ele>91.104261</ele>
        <time>2022-07-11T14:41:10.269Z</time>
      </trkpt>
      <trkpt lat="44.69535" lon="0.10896">
        <ele>90.485372</ele>
        <time>2022-07-11T14:41:13.313Z</time>
      </trkpt>
      <trkpt lat="44.69543" lon="0.10926">
        <ele>89.858599</ele>
        <time>2022-07-11T14:41:16.449Z</time>
      </trkpt>
      <trkpt lat="44.69565" lon="0.10963">
        <ele>88.905579</ele>
        <time>2022-07-11T14:41:21.318Z</time>
      </trkpt>
      <trkpt lat="44.69573" lon="0.11023">
        <ele>87.701826</ele>
        <time>2022-07-11T14:41:27.687Z</time>
      </trkpt>
      <trkpt lat="44.69576" lon="0.11114">
        <ele>86.254165</ele>
        <time>2022-07-11T14:41:37.512Z</time>
      </trkpt>
      <trkpt lat="44.69562" lon="0.11182">
        <ele>85.145525</ele>
        <time>2022-07-11T14:41:45.051Z</time>
      </trkpt>
      <trkpt lat="44.69548" lon="0.1123">
        <ele>84.345683</ele>
        <time>2022-07-11T14:41:50.325Z</time>
      </trkpt>
      <trkpt lat="44.6953" lon="0.11253">
        <ele>83.82503</ele>
        <time>2022-07-11T14:41:53.676Z</time>
      </trkpt>
      <trkpt lat="44.69493" lon="0.11274">
        <ele>82.512888</ele>
        <time>2022-07-11T14:41:59.151Z</time>
      </trkpt>
      <trkpt lat="44.69456" lon="0.11304">
        <ele>80.945497</ele>
        <time>2022-07-11T14:42:04.811Z</time>
      </trkpt>
      <trkpt lat="44.69411" lon="0.1146">
        <ele>76.356916</ele>
        <time>2022-07-11T14:42:20.675Z</time>
      </trkpt>
      <trkpt lat="44.6939" lon="0.11512">
        <ele>74.241921</ele>
        <time>2022-07-11T14:42:26.153Z</time>
      </trkpt>
      <trkpt lat="44.69356" lon="0.11569">
        <ele>71.593916</ele>
        <time>2022-07-11T14:42:32.844Z</time>
      </trkpt>
      <trkpt lat="44.69293" lon="0.11647">
        <ele>67.380377</ele>
        <time>2022-07-11T14:42:43.295Z</time>
      </trkpt>
      <trkpt lat="44.69262" lon="0.11706">
        <ele>64.594661</ele>
        <time>2022-07-11T14:42:49.846Z</time>
      </trkpt>
      <trkpt lat="44.69245" lon="0.11786">
        <ele>61.445853</ele>
        <time>2022-07-11T14:42:57.206Z</time>
      </trkpt>
      <trkpt lat="44.69245" lon="0.11839">
        <ele>59.461168</ele>
        <time>2022-07-11T14:43:01.887Z</time>
      </trkpt>
      <trkpt lat="44.69282" lon="0.12001">
        <ele>55.711268</ele>
        <time>2022-07-11T14:43:18.184Z</time>
      </trkpt>
      <trkpt lat="44.6928" lon="0.12091">
        <ele>54.00804</ele>
        <time>2022-07-11T14:43:27.944Z</time>
      </trkpt>
      <trkpt lat="44.69269" lon="0.12131">
        <ele>53.452839</ele>
        <time>2022-07-11T14:43:32.705Z</time>
      </trkpt>
      <trkpt lat="44.69229" lon="0.12209">
        <ele>52.739961</ele>
        <time>2022-07-11T14:43:44.110Z</time>
      </trkpt>
      <trkpt lat="44.69051" lon="0.12453">
        <ele>49.70313</ele>
        <time>2022-07-11T14:44:22.919Z</time>
      </trkpt>
      <trkpt lat="44.69029" lon="0.12484">
        <ele>49.293324</ele>
        <time>2022-07-11T14:44:27.490Z</time>
      </trkpt>
      <trkpt lat="44.68998" lon="0.12559">
        <ele>48.553271</ele>
        <time>2022-07-11T14:44:36.672Z</time>
      </trkpt>
      <trkpt lat="44.68861" lon="0.12902">
        <ele>45.534354</ele>
        <time>2022-07-11T14:45:21.655Z</time>
      </trkpt>
      <trkpt lat="44.68756" lon="0.13166">
        <ele>42.70524</ele>
        <time>2022-07-11T14:45:54.361Z</time>
      </trkpt>
      <trkpt lat="44.68908" lon="0.13173">
        <ele>41.148469</ele>
        <time>2022-07-11T14:46:19.229Z</time>
      </trkpt>
      <trkpt lat="44.68824" lon="0.13361">
        <ele>38.041994</ele>
        <time>2022-07-11T14:46:43.411Z</time>
      </trkpt>
      <trkpt lat="44.68783" lon="0.13477">
        <ele>36.887162</ele>
        <time>2022-07-11T14:46:57.125Z</time>
      </trkpt>
      <trkpt lat="44.68776" lon="0.13519">
        <ele>36.620145</ele>
        <time>2022-07-11T14:47:01.915Z</time>
      </trkpt>
      <trkpt lat="44.68774" lon="0.13684">
        <ele>37.12423</ele>
        <time>2022-07-11T14:47:24.097Z</time>
      </trkpt>
      <trkpt lat="44.68775" lon="0.13694">
        <ele>37.407178</ele>
        <time>2022-07-11T14:47:25.860Z</time>
      </trkpt>
      <trkpt lat="44.68779" lon="0.13828">
        <ele>41.457336</ele>
        <time>2022-07-11T14:47:57.568Z</time>
      </trkpt>
      <trkpt lat="44.68742" lon="0.14311">
        <ele>68.376922</ele>
        <time>2022-07-11T14:50:58.993Z</time>
      </trkpt>
      <trkpt lat="44.68731" lon="0.14353">
        <ele>71.078304</ele>
        <time>2022-07-11T14:51:16.714Z</time>
      </trkpt>
      <trkpt lat="44.68712" lon="0.14384">
        <ele>73.475781</ele>
        <time>2022-07-11T14:51:32.197Z</time>
      </trkpt>
      <trkpt lat="44.68695" lon="0.14392">
        <ele>74.54678</ele>
        <time>2022-07-11T14:51:41.657Z</time>
      </trkpt>
      <trkpt lat="44.68535" lon="0.14401">
        <ele>83.693086</ele>
        <time>2022-07-11T14:52:48.720Z</time>
      </trkpt>
      <trkpt lat="44.68508" lon="0.14415">
        <ele>83.768972</ele>
        <time>2022-07-11T14:52:56.291Z</time>
      </trkpt>
      <trkpt lat="44.68486" lon="0.14458">
        <ele>83.601703</ele>
        <time>2022-07-11T14:53:04.213Z</time>
      </trkpt>
      <trkpt lat="44.68478" lon="0.14496">
        <ele>83.478032</ele>
        <time>2022-07-11T14:53:09.030Z</time>
      </trkpt>
      <trkpt lat="44.6845" lon="0.14698">
        <ele>81.805098</ele>
        <time>2022-07-11T14:53:30.649Z</time>
      </trkpt>
      <trkpt lat="44.68449" lon="0.14728">
        <ele>81.324618</ele>
        <time>2022-07-11T14:53:33.764Z</time>
      </trkpt>
      <trkpt lat="44.68454" lon="0.14753">
        <ele>80.921099</ele>
        <time>2022-07-11T14:53:36.459Z</time>
      </trkpt>
      <trkpt lat="44.68476" lon="0.14801">
        <ele>80.024735</ele>
        <time>2022-07-11T14:53:42.624Z</time>
      </trkpt>
      <trkpt lat="44.68495" lon="0.14899">
        <ele>78.801566</ele>
        <time>2022-07-11T14:53:54.212Z</time>
      </trkpt>
      <trkpt lat="44.685" lon="0.14999">
        <ele>78.096241</ele>
        <time>2022-07-11T14:54:06.205Z</time>
      </trkpt>
      <trkpt lat="44.68518" lon="0.15085">
        <ele>77.472827</ele>
        <time>2022-07-11T14:54:16.864Z</time>
      </trkpt>
      <trkpt lat="44.68523" lon="0.15215">
        <ele>76.618381</ele>
        <time>2022-07-11T14:54:33.021Z</time>
      </trkpt>
      <trkpt lat="44.68517" lon="0.15284">
        <ele>76.171947</ele>
        <time>2022-07-11T14:54:41.327Z</time>
      </trkpt>
      <trkpt lat="44.6852" lon="0.15302">
        <ele>76.053217</ele>
        <time>2022-07-11T14:54:43.509Z</time>
      </trkpt>
      <trkpt lat="44.68526" lon="0.15335">
        <ele>75.837518</ele>
        <time>2022-07-11T14:54:47.419Z</time>
      </trkpt>
      <trkpt lat="44.68526" lon="0.15356">
        <ele>75.699611</ele>
        <time>2022-07-11T14:54:49.917Z</time>
      </trkpt>
      <trkpt lat="44.68509" lon="0.15401">
        <ele>74.708705</ele>
        <time>2022-07-11T14:54:55.710Z</time>
      </trkpt>
      <trkpt lat="44.68465" lon="0.15498">
        <ele>72.485317</ele>
        <time>2022-07-11T14:55:08.068Z</time>
      </trkpt>
      <trkpt lat="44.68451" lon="0.15527">
        <ele>71.796098</ele>
        <time>2022-07-11T14:55:11.655Z</time>
      </trkpt>
      <trkpt lat="44.68447" lon="0.15536">
        <ele>71.589687</ele>
        <time>2022-07-11T14:55:12.696Z</time>
      </trkpt>
      <trkpt lat="44.68372" lon="0.15671">
        <ele>65.777462</ele>
        <time>2022-07-11T14:55:28.927Z</time>
      </trkpt>
      <trkpt lat="44.68332" lon="0.15783">
        <ele>60.916286</ele>
        <time>2022-07-11T14:55:40.471Z</time>
      </trkpt>
      <trkpt lat="44.68313" lon="0.15822">
        <ele>58.743098</ele>
        <time>2022-07-11T14:55:44.749Z</time>
      </trkpt>
      <trkpt lat="44.68272" lon="0.15901">
        <ele>54.228214</ele>
        <time>2022-07-11T14:55:53.493Z</time>
      </trkpt>
      <trkpt lat="44.68188" lon="0.16068">
        <ele>45.42942</ele>
        <time>2022-07-11T14:56:12.176Z</time>
      </trkpt>
      <trkpt lat="44.68164" lon="0.16104">
        <ele>43.464747</ele>
        <time>2022-07-11T14:56:16.693Z</time>
      </trkpt>
      <trkpt lat="44.68136" lon="0.16131">
        <ele>41.560567</ele>
        <time>2022-07-11T14:56:21.115Z</time>
      </trkpt>
      <trkpt lat="44.67956" lon="0.16286">
        <ele>33.034255</ele>
        <time>2022-07-11T14:56:50.271Z</time>
      </trkpt>
      <trkpt lat="44.67942" lon="0.16423">
        <ele>32.46207</ele>
        <time>2022-07-11T14:57:05.712Z</time>
      </trkpt>
      <trkpt lat="44.67938" lon="0.1647">
        <ele>32.375695</ele>
        <time>2022-07-11T14:57:12.017Z</time>
      </trkpt>
      <trkpt lat="44.67936" lon="0.16488">
        <ele>32.341476</ele>
        <time>2022-07-11T14:57:14.660Z</time>
      </trkpt>
      <trkpt lat="44.67918" lon="0.1667">
        <ele>33.895785</ele>
        <time>2022-07-11T14:57:47.770Z</time>
      </trkpt>
      <trkpt lat="44.67902" lon="0.16805">
        <ele>35.736141</ele>
        <time>2022-07-11T14:58:13.560Z</time>
      </trkpt>
      <trkpt lat="44.67877" lon="0.16894">
        <ele>36.477765</ele>
        <time>2022-07-11T14:58:30.218Z</time>
      </trkpt>
      <trkpt lat="44.6774" lon="0.17186">
        <ele>39.136636</ele>
        <time>2022-07-11T14:59:20.494Z</time>
      </trkpt>
      <trkpt lat="44.67724" lon="0.17218">
        <ele>39.42751</ele>
        <time>2022-07-11T14:59:26.994Z</time>
      </trkpt>
      <trkpt lat="44.67693" lon="0.17285">
        <ele>41.81353</ele>
        <time>2022-07-11T14:59:42.934Z</time>
      </trkpt>
      <trkpt lat="44.67673" lon="0.17316">
        <ele>43.2993</ele>
        <time>2022-07-11T14:59:53.163Z</time>
      </trkpt>
      <trkpt lat="44.67689" lon="0.17322">
        <ele>44.095016</ele>
        <time>2022-07-11T14:59:59.144Z</time>
      </trkpt>
      <trkpt lat="44.67709" lon="0.17339">
        <ele>45.276086</ele>
        <time>2022-07-11T15:00:09.110Z</time>
      </trkpt>
      <trkpt lat="44.6774" lon="0.1739">
        <ele>47.642128</ele>
        <time>2022-07-11T15:00:29.833Z</time>
      </trkpt>
      <trkpt lat="44.67747" lon="0.17406">
        <ele>48.318511</ele>
        <time>2022-07-11T15:00:36.408Z</time>
      </trkpt>
      <trkpt lat="44.67757" lon="0.17427">
        <ele>49.757295</ele>
        <time>2022-07-11T15:00:44.934Z</time>
      </trkpt>
      <trkpt lat="44.67766" lon="0.17448">
        <ele>51.272101</ele>
        <time>2022-07-11T15:00:53.580Z</time>
      </trkpt>
      <trkpt lat="44.67789" lon="0.17491">
        <ele>54.627569</ele>
        <time>2022-07-11T15:01:13.198Z</time>
      </trkpt>
      <trkpt lat="44.67901" lon="0.17684">
        <ele>70.885667</ele>
        <time>2022-07-11T15:02:52.122Z</time>
      </trkpt>
      <trkpt lat="44.67893" lon="0.17702">
        <ele>72.363495</ele>
        <time>2022-07-11T15:03:01.153Z</time>
      </trkpt>
      <trkpt lat="44.67874" lon="0.17719">
        <ele>74.540241</ele>
        <time>2022-07-11T15:03:13.411Z</time>
      </trkpt>
      <trkpt lat="44.67854" lon="0.17729">
        <ele>76.64795</ele>
        <time>2022-07-11T15:03:26.328Z</time>
      </trkpt>
      <trkpt lat="44.67824" lon="0.17758">
        <ele>80.159161</ele>
        <time>2022-07-11T15:03:47.311Z</time>
      </trkpt>
      <trkpt lat="44.67788" lon="0.17829">
        <ele>85.775122</ele>
        <time>2022-07-11T15:04:24.682Z</time>
      </trkpt>
      <trkpt lat="44.67732" lon="0.17902">
        <ele>92.510129</ele>
        <time>2022-07-11T15:05:07.955Z</time>
      </trkpt>
      <trkpt lat="44.67714" lon="0.1793">
        <ele>94.879867</ele>
        <time>2022-07-11T15:05:21.539Z</time>
      </trkpt>
      <trkpt lat="44.67697" lon="0.17975">
        <ele>97.828105</ele>
        <time>2022-07-11T15:05:38.098Z</time>
      </trkpt>
      <trkpt lat="44.67699" lon="0.18002">
        <ele>98.614822</ele>
        <time>2022-07-11T15:05:46.195Z</time>
      </trkpt>
      <trkpt lat="44.67709" lon="0.1802">
        <ele>99.302644</ele>
        <time>2022-07-11T15:05:53.345Z</time>
      </trkpt>
      <trkpt lat="44.6771" lon="0.18032">
        <ele>99.642314</ele>
        <time>2022-07-11T15:05:56.350Z</time>
      </trkpt>
      <trkpt lat="44.67705" lon="0.18044">
        <ele>100.069617</ele>
        <time>2022-07-11T15:06:00.473Z</time>
      </trkpt>
      <trkpt lat="44.67698" lon="0.18049">
        <ele>100.407467</ele>
        <time>2022-07-11T15:06:04.102Z</time>
      </trkpt>
      <trkpt lat="44.67706" lon="0.18093">
        <ele>101.755759</ele>
        <time>2022-07-11T15:06:15.536Z</time>
      </trkpt>
      <trkpt lat="44.67705" lon="0.18149">
        <ele>103.412132</ele>
        <time>2022-07-11T15:06:28.051Z</time>
      </trkpt>
      <trkpt lat="44.6771" lon="0.18188">
        <ele>104.574945</ele>
        <time>2022-07-11T15:06:35.282Z</time>
      </trkpt>
      <trkpt lat="44.67695" lon="0.18195">
        <ele>105.089361</ele>
        <time>2022-07-11T15:06:39.358Z</time>
      </trkpt>
      <trkpt lat="44.67673" lon="0.18318">
        <ele>105.663786</ele>
        <time>2022-07-11T15:06:57.943Z</time>
      </trkpt>
      <trkpt lat="44.67664" lon="0.18367">
        <ele>105.89094</ele>
        <time>2022-07-11T15:07:04.636Z</time>
      </trkpt>
      <trkpt lat="44.67654" lon="0.18364">
        <ele>105.953663</ele>
        <time>2022-07-11T15:07:06.532Z</time>
      </trkpt>
      <trkpt lat="44.67606" lon="0.18351">
        <ele>106.2485</ele>
        <time>2022-07-11T15:07:16.021Z</time>
      </trkpt>
      <trkpt lat="44.67604" lon="0.1834">
        <ele>106.281203</ele>
        <time>2022-07-11T15:07:17.551Z</time>
      </trkpt>
      <trkpt lat="44.67577" lon="0.18323">
        <ele>106.404261</ele>
        <time>2022-07-11T15:07:23.191Z</time>
      </trkpt>
      <trkpt lat="44.67604" lon="0.1834">
        <ele>106.527319</ele>
        <time>2022-07-11T15:07:28.978Z</time>
      </trkpt>
      <trkpt lat="44.67606" lon="0.18351">
        <ele>106.560022</ele>
        <time>2022-07-11T15:07:30.501Z</time>
      </trkpt>
      <trkpt lat="44.67598" lon="0.18373">
        <ele>106.635341</ele>
        <time>2022-07-11T15:07:33.886Z</time>
      </trkpt>
      <trkpt lat="44.67612" lon="0.18397">
        <ele>106.729491</ele>
        <time>2022-07-11T15:07:38.185Z</time>
      </trkpt>
      <trkpt lat="44.67616" lon="0.18407">
        <ele>106.76264</ele>
        <time>2022-07-11T15:07:39.663Z</time>
      </trkpt>
      <trkpt lat="44.67658" lon="0.1843">
        <ele>106.953859</ele>
        <time>2022-07-11T15:07:48.333Z</time>
      </trkpt>
      <trkpt lat="44.67689" lon="0.18448">
        <ele>106.934865</ele>
        <time>2022-07-11T15:07:55.214Z</time>
      </trkpt>
      <trkpt lat="44.67694" lon="0.18451">
        <ele>106.929921</ele>
        <time>2022-07-11T15:07:56.279Z</time>
      </trkpt>
      <trkpt lat="44.67699" lon="0.18453">
        <ele>106.92465</ele>
        <time>2022-07-11T15:07:57.393Z</time>
      </trkpt>
      <trkpt lat="44.677" lon="0.1846">
        <ele>106.919536</ele>
        <time>2022-07-11T15:07:58.510Z</time>
      </trkpt>
      <trkpt lat="44.67701" lon="0.18461">
        <ele>106.917808</ele>
        <time>2022-07-11T15:07:58.875Z</time>
      </trkpt>
      <trkpt lat="44.67698" lon="0.185">
        <ele>106.889253</ele>
        <time>2022-07-11T15:08:04.398Z</time>
      </trkpt>
      <trkpt lat="44.6769" lon="0.1863">
        <ele>106.79379</ele>
        <time>2022-07-11T15:08:20.335Z</time>
      </trkpt>
      <trkpt lat="44.6769" lon="0.18656">
        <ele>106.624065</ele>
        <time>2022-07-11T15:08:23.370Z</time>
      </trkpt>
      <trkpt lat="44.67691" lon="0.18664">
        <ele>106.497378</ele>
        <time>2022-07-11T15:08:24.241Z</time>
      </trkpt>
      <trkpt lat="44.67707" lon="0.18713">
        <ele>105.609835</ele>
        <time>2022-07-11T15:08:29.982Z</time>
      </trkpt>
      <trkpt lat="44.67734" lon="0.18787">
        <ele>104.226337</ele>
        <time>2022-07-11T15:08:38.389Z</time>
      </trkpt>
      <trkpt lat="44.67763" lon="0.18852">
        <ele>102.935654</ele>
        <time>2022-07-11T15:08:45.999Z</time>
      </trkpt>
      <trkpt lat="44.67771" lon="0.18868">
        <ele>102.619087</ele>
        <time>2022-07-11T15:08:47.858Z</time>
      </trkpt>
      <trkpt lat="44.67816" lon="0.18964">
        <ele>100.549466</ele>
        <time>2022-07-11T15:08:58.866Z</time>
      </trkpt>
      <trkpt lat="44.67868" lon="0.19072">
        <ele>98.165186</ele>
        <time>2022-07-11T15:09:12.236Z</time>
      </trkpt>
      <trkpt lat="44.67903" lon="0.19144">
        <ele>97.844261</ele>
        <time>2022-07-11T15:09:22.168Z</time>
      </trkpt>
      <trkpt lat="44.6792" lon="0.19178">
        <ele>97.767156</ele>
        <time>2022-07-11T15:09:27.417Z</time>
      </trkpt>
      <trkpt lat="44.67938" lon="0.19217">
        <ele>97.678394</ele>
        <time>2022-07-11T15:09:33.828Z</time>
      </trkpt>
      <trkpt lat="44.67947" lon="0.19236">
        <ele>97.635546</ele>
        <time>2022-07-11T15:09:37.003Z</time>
      </trkpt>
      <trkpt lat="44.68025" lon="0.19397">
        <ele>97.713453</ele>
        <time>2022-07-11T15:10:03.970Z</time>
      </trkpt>
      <trkpt lat="44.68155" lon="0.19664">
        <ele>98.360006</ele>
        <time>2022-07-11T15:10:44.775Z</time>
      </trkpt>
      <trkpt lat="44.68159" lon="0.19672">
        <ele>98.38438</ele>
        <time>2022-07-11T15:10:46.388Z</time>
      </trkpt>
      <trkpt lat="44.68198" lon="0.19753">
        <ele>99.107555</ele>
        <time>2022-07-11T15:11:02.043Z</time>
      </trkpt>
      <trkpt lat="44.68265" lon="0.19892">
        <ele>101.034524</ele>
        <time>2022-07-11T15:11:31.982Z</time>
      </trkpt>
      <trkpt lat="44.68504" lon="0.20384">
        <ele>108.715239</ele>
        <time>2022-07-11T15:13:17.668Z</time>
      </trkpt>
      <trkpt lat="44.68539" lon="0.20456">
        <ele>109.954922</ele>
        <time>2022-07-11T15:13:34.941Z</time>
      </trkpt>
      <trkpt lat="44.68596" lon="0.20569">
        <ele>111.174014</ele>
        <time>2022-07-11T15:14:00.723Z</time>
      </trkpt>
      <trkpt lat="44.6865" lon="0.20648">
        <ele>110.315771</ele>
        <time>2022-07-11T15:14:14.599Z</time>
      </trkpt>
      <trkpt lat="44.68724" lon="0.20711">
        <ele>108.984813</ele>
        <time>2022-07-11T15:14:26.841Z</time>
      </trkpt>
      <trkpt lat="44.68916" lon="0.20794">
        <ele>97.887324</ele>
        <time>2022-07-11T15:14:51.616Z</time>
      </trkpt>
      <trkpt lat="44.6894" lon="0.20794">
        <ele>96.43838</ele>
        <time>2022-07-11T15:14:54.553Z</time>
      </trkpt>
      <trkpt lat="44.68962" lon="0.2078">
        <ele>95.016612</ele>
        <time>2022-07-11T15:14:57.423Z</time>
      </trkpt>
      <trkpt lat="44.68981" lon="0.20757">
        <ele>93.536166</ele>
        <time>2022-07-11T15:15:00.438Z</time>
      </trkpt>
      <trkpt lat="44.69038" lon="0.20609">
        <ele>86.590521</ele>
        <time>2022-07-11T15:15:15.454Z</time>
      </trkpt>
      <trkpt lat="44.69049" lon="0.20585">
        <ele>85.461598</ele>
        <time>2022-07-11T15:15:17.979Z</time>
      </trkpt>
      <trkpt lat="44.69065" lon="0.20567">
        <ele>84.349498</ele>
        <time>2022-07-11T15:15:20.446Z</time>
      </trkpt>
      <trkpt lat="44.691" lon="0.20552">
        <ele>82.305839</ele>
        <time>2022-07-11T15:15:25.049Z</time>
      </trkpt>
      <trkpt lat="44.69143" lon="0.20562">
        <ele>79.895482</ele>
        <time>2022-07-11T15:15:30.576Z</time>
      </trkpt>
      <trkpt lat="44.69158" lon="0.20576">
        <ele>78.927116</ele>
        <time>2022-07-11T15:15:32.753Z</time>
      </trkpt>
      <trkpt lat="44.69221" lon="0.20628">
        <ele>76.072547</ele>
        <time>2022-07-11T15:15:42.018Z</time>
      </trkpt>
      <trkpt lat="44.69477" lon="0.20668">
        <ele>67.443761</ele>
        <time>2022-07-11T15:16:17.562Z</time>
      </trkpt>
      <trkpt lat="44.69547" lon="0.2069">
        <ele>64.834492</ele>
        <time>2022-07-11T15:16:28.027Z</time>
      </trkpt>
      <trkpt lat="44.6963" lon="0.20729">
        <ele>61.307728</ele>
        <time>2022-07-11T15:16:39.562Z</time>
      </trkpt>
      <trkpt lat="44.69664" lon="0.20754">
        <ele>59.741602</ele>
        <time>2022-07-11T15:16:44.319Z</time>
      </trkpt>
      <trkpt lat="44.69782" lon="0.20873">
        <ele>52.733809</ele>
        <time>2022-07-11T15:17:02.117Z</time>
      </trkpt>
      <trkpt lat="44.69931" lon="0.21026">
        <ele>48.371474</ele>
        <time>2022-07-11T15:17:29.704Z</time>
      </trkpt>
      <trkpt lat="44.69936" lon="0.21031">
        <ele>48.286815</ele>
        <time>2022-07-11T15:17:30.742Z</time>
      </trkpt>
      <trkpt lat="44.70051" lon="0.21147">
        <ele>47.144432</ele>
        <time>2022-07-11T15:17:54.296Z</time>
      </trkpt>
      <trkpt lat="44.70068" lon="0.21165">
        <ele>47.025674</ele>
        <time>2022-07-11T15:17:57.562Z</time>
      </trkpt>
      <trkpt lat="44.70257" lon="0.21364">
        <ele>46.739342</ele>
        <time>2022-07-11T15:18:38.522Z</time>
      </trkpt>
      <trkpt lat="44.70358" lon="0.21496">
        <ele>48.626729</ele>
        <time>2022-07-11T15:19:11.539Z</time>
      </trkpt>
      <trkpt lat="44.70571" lon="0.21773">
        <ele>52.609156</ele>
        <time>2022-07-11T15:20:22.960Z</time>
      </trkpt>
      <trkpt lat="44.70687" lon="0.21922">
        <ele>52.787378</ele>
        <time>2022-07-11T15:20:50.563Z</time>
      </trkpt>
      <trkpt lat="44.70739" lon="0.21989">
        <ele>52.098102</ele>
        <time>2022-07-11T15:21:01.525Z</time>
      </trkpt>
      <trkpt lat="44.70864" lon="0.22119">
        <ele>50.514437</ele>
        <time>2022-07-11T15:21:25.280Z</time>
      </trkpt>
      <trkpt lat="44.70915" lon="0.22171">
        <ele>49.855799</ele>
        <time>2022-07-11T15:21:35.213Z</time>
      </trkpt>
      <trkpt lat="44.70969" lon="0.22228">
        <ele>50.319956</ele>
        <time>2022-07-11T15:21:47.474Z</time>
      </trkpt>
      <trkpt lat="44.70995" lon="0.22252">
        <ele>50.778595</ele>
        <time>2022-07-11T15:21:54.465Z</time>
      </trkpt>
      <trkpt lat="44.71006" lon="0.22263">
        <ele>50.975064</ele>
        <time>2022-07-11T15:21:57.615Z</time>
      </trkpt>
      <trkpt lat="44.71186" lon="0.2244">
        <ele>55.137027</ele>
        <time>2022-07-11T15:22:58.787Z</time>
      </trkpt>
      <trkpt lat="44.71331" lon="0.22579">
        <ele>57.181914</ele>
        <time>2022-07-11T15:23:39.749Z</time>
      </trkpt>
      <trkpt lat="44.71641" lon="0.22845">
        <ele>56.560456</ele>
        <time>2022-07-11T15:24:39.651Z</time>
      </trkpt>
      <trkpt lat="44.71891" lon="0.23062">
        <ele>60.319792</ele>
        <time>2022-07-11T15:25:50.242Z</time>
      </trkpt>
      <trkpt lat="44.72094" lon="0.23231">
        <ele>62.854684</ele>
        <time>2022-07-11T15:26:47.325Z</time>
      </trkpt>
      <trkpt lat="44.72266" lon="0.23381">
        <ele>61.12196</ele>
        <time>2022-07-11T15:27:18.386Z</time>
      </trkpt>
      <trkpt lat="44.72256" lon="0.23405">
        <ele>60.834255</ele>
        <time>2022-07-11T15:27:21.173Z</time>
      </trkpt>
      <trkpt lat="44.72234" lon="0.23619">
        <ele>59.022377</ele>
        <time>2022-07-11T15:27:44.504Z</time>
      </trkpt>
      <trkpt lat="44.72229" lon="0.23684">
        <ele>58.541487</ele>
        <time>2022-07-11T15:27:52.545Z</time>
      </trkpt>
      <trkpt lat="44.7223" lon="0.23816">
        <ele>59.212815</ele>
        <time>2022-07-11T15:28:10.909Z</time>
      </trkpt>
      <trkpt lat="44.72291" lon="0.24132">
        <ele>61.584404</ele>
        <time>2022-07-11T15:29:04.751Z</time>
      </trkpt>
      <trkpt lat="44.72293" lon="0.24144">
        <ele>61.685543</ele>
        <time>2022-07-11T15:29:06.729Z</time>
      </trkpt>
      <trkpt lat="44.723" lon="0.24445">
        <ele>63.36716</ele>
        <time>2022-07-11T15:29:49.954Z</time>
      </trkpt>
      <trkpt lat="44.72297" lon="0.24627">
        <ele>65.243044</ele>
        <time>2022-07-11T15:30:18.016Z</time>
      </trkpt>
      <trkpt lat="44.72249" lon="0.24857">
        <ele>70.219637</ele>
        <time>2022-07-11T15:31:08.544Z</time>
      </trkpt>
      <trkpt lat="44.72254" lon="0.24898">
        <ele>71.220738</ele>
        <time>2022-07-11T15:31:19.102Z</time>
      </trkpt>
      <trkpt lat="44.72278" lon="0.24919">
        <ele>72.247106</ele>
        <time>2022-07-11T15:31:29.150Z</time>
      </trkpt>
      <trkpt lat="44.72338" lon="0.24927">
        <ele>74.90527</ele>
        <time>2022-07-11T15:31:51.421Z</time>
      </trkpt>
      <trkpt lat="44.72384" lon="0.24956">
        <ele>77.091492</ele>
        <time>2022-07-11T15:32:09.575Z</time>
      </trkpt>
      <trkpt lat="44.72439" lon="0.25008">
        <ele>79.93011</ele>
        <time>2022-07-11T15:32:33.512Z</time>
      </trkpt>
      <trkpt lat="44.72503" lon="0.25038">
        <ele>81.999096</ele>
        <time>2022-07-11T15:32:53.805Z</time>
      </trkpt>
      <trkpt lat="44.72509" lon="0.25041">
        <ele>82.189705</ele>
        <time>2022-07-11T15:32:55.527Z</time>
      </trkpt>
      <trkpt lat="44.72579" lon="0.25082">
        <ele>84.48604</ele>
        <time>2022-07-11T15:33:17.520Z</time>
      </trkpt>
      <trkpt lat="44.72772" lon="0.25286">
        <ele>89.802358</ele>
        <time>2022-07-11T15:34:23.250Z</time>
      </trkpt>
      <trkpt lat="44.72815" lon="0.25333">
        <ele>90.386796</ele>
        <time>2022-07-11T15:34:35.076Z</time>
      </trkpt>
      <trkpt lat="44.72877" lon="0.25422">
        <ele>91.328339</ele>
        <time>2022-07-11T15:34:52.580Z</time>
      </trkpt>
      <trkpt lat="44.72923" lon="0.25524">
        <ele>91.892915</ele>
        <time>2022-07-11T15:35:08.632Z</time>
      </trkpt>
      <trkpt lat="44.72953" lon="0.25607">
        <ele>92.329438</ele>
        <time>2022-07-11T15:35:22.456Z</time>
      </trkpt>
      <trkpt lat="44.7316" lon="0.26143">
        <ele>98.243334</ele>
        <time>2022-07-11T15:37:02.006Z</time>
      </trkpt>
      <trkpt lat="44.73216" lon="0.26302">
        <ele>101.133968</ele>
        <time>2022-07-11T15:37:37.954Z</time>
      </trkpt>
      <trkpt lat="44.73226" lon="0.26352">
        <ele>101.933947</ele>
        <time>2022-07-11T15:37:48.694Z</time>
      </trkpt>
      <trkpt lat="44.73225" lon="0.26407">
        <ele>102.78349</ele>
        <time>2022-07-11T15:37:59.970Z</time>
      </trkpt>
      <trkpt lat="44.73218" lon="0.26453">
        <ele>103.49519</ele>
        <time>2022-07-11T15:38:09.193Z</time>
      </trkpt>
      <trkpt lat="44.73174" lon="0.26768">
        <ele>107.65794</ele>
        <time>2022-07-11T15:39:03.525Z</time>
      </trkpt>
      <trkpt lat="44.73196" lon="0.26888">
        <ele>110.03462</ele>
        <time>2022-07-11T15:39:26.632Z</time>
      </trkpt>
      <trkpt lat="44.73271" lon="0.27251">
        <ele>119.551876</ele>
        <time>2022-07-11T15:40:55.715Z</time>
      </trkpt>
      <trkpt lat="44.73281" lon="0.27312">
        <ele>121.122805</ele>
        <time>2022-07-11T15:41:10.246Z</time>
      </trkpt>
      <trkpt lat="44.73283" lon="0.27358">
        <ele>122.110281</ele>
        <time>2022-07-11T15:41:20.948Z</time>
      </trkpt>
      <trkpt lat="44.73283" lon="0.2737">
        <ele>122.37728</ele>
        <time>2022-07-11T15:41:23.778Z</time>
      </trkpt>
      <trkpt lat="44.73288" lon="0.27568">
        <ele>126.512351</ele>
        <time>2022-07-11T15:42:04.076Z</time>
      </trkpt>
      <trkpt lat="44.73218" lon="0.27601">
        <ele>128.25596</ele>
        <time>2022-07-11T15:42:24.432Z</time>
      </trkpt>
      <trkpt lat="44.73222" lon="0.27717">
        <ele>130.207162</ele>
        <time>2022-07-11T15:42:47.316Z</time>
      </trkpt>
      <trkpt lat="44.7322" lon="0.27747">
        <ele>130.655079</ele>
        <time>2022-07-11T15:42:52.650Z</time>
      </trkpt>
      <trkpt lat="44.73214" lon="0.27769">
        <ele>130.954719</ele>
        <time>2022-07-11T15:42:57.424Z</time>
      </trkpt>
      <trkpt lat="44.73177" lon="0.2784">
        <ele>132.076908</ele>
        <time>2022-07-11T15:43:13.746Z</time>
      </trkpt>
      <trkpt lat="44.7314" lon="0.27958">
        <ele>133.695565</ele>
        <time>2022-07-11T15:43:37.055Z</time>
      </trkpt>
      <trkpt lat="44.7311" lon="0.28007">
        <ele>134.199641</ele>
        <time>2022-07-11T15:43:47.729Z</time>
      </trkpt>
      <trkpt lat="44.73081" lon="0.28068">
        <ele>134.766184</ele>
        <time>2022-07-11T15:43:59.296Z</time>
      </trkpt>
      <trkpt lat="44.73058" lon="0.28119">
        <ele>135.23493</ele>
        <time>2022-07-11T15:44:08.804Z</time>
      </trkpt>
      <trkpt lat="44.73021" lon="0.28179">
        <ele>135.975877</ele>
        <time>2022-07-11T15:44:21.242Z</time>
      </trkpt>
      <trkpt lat="44.7298" lon="0.28268">
        <ele>137.230754</ele>
        <time>2022-07-11T15:44:39.900Z</time>
      </trkpt>
      <trkpt lat="44.72958" lon="0.28289">
        <ele>137.683591</ele>
        <time>2022-07-11T15:44:46.827Z</time>
      </trkpt>
      <trkpt lat="44.72913" lon="0.28311">
        <ele>138.478978</ele>
        <time>2022-07-11T15:44:58.818Z</time>
      </trkpt>
      <trkpt lat="44.729" lon="0.28324">
        <ele>138.849668</ele>
        <time>2022-07-11T15:45:03.305Z</time>
      </trkpt>
      <trkpt lat="44.72894" lon="0.28341">
        <ele>139.266059</ele>
        <time>2022-07-11T15:45:06.814Z</time>
      </trkpt>
      <trkpt lat="44.72877" lon="0.28535">
        <ele>143.603316</ele>
        <time>2022-07-11T15:45:51.137Z</time>
      </trkpt>
      <trkpt lat="44.72878" lon="0.28564">
        <ele>144.237582</ele>
        <time>2022-07-11T15:45:57.298Z</time>
      </trkpt>
      <trkpt lat="44.7288" lon="0.28637">
        <ele>146.593047</ele>
        <time>2022-07-11T15:46:14.827Z</time>
      </trkpt>
      <trkpt lat="44.72867" lon="0.28729">
        <ele>149.638973</ele>
        <time>2022-07-11T15:46:39.006Z</time>
      </trkpt>
      <trkpt lat="44.72871" lon="0.2879">
        <ele>151.614544</ele>
        <time>2022-07-11T15:46:56.317Z</time>
      </trkpt>
      <trkpt lat="44.72865" lon="0.28846">
        <ele>153.758214</ele>
        <time>2022-07-11T15:47:13.010Z</time>
      </trkpt>
      <trkpt lat="44.72865" lon="0.28937">
        <ele>157.656576</ele>
        <time>2022-07-11T15:47:39.989Z</time>
      </trkpt>
      <trkpt lat="44.72875" lon="0.29097">
        <ele>164.053845</ele>
        <time>2022-07-11T15:48:31.191Z</time>
      </trkpt>
      <trkpt lat="44.72897" lon="0.2913">
        <ele>165.279957</ele>
        <time>2022-07-11T15:48:43.742Z</time>
      </trkpt>
      <trkpt lat="44.72947" lon="0.29177">
        <ele>167.52192</ele>
        <time>2022-07-11T15:49:04.300Z</time>
      </trkpt>
      <trkpt lat="44.73068" lon="0.29284">
        <ele>170.85573</ele>
        <time>2022-07-11T15:49:40.815Z</time>
      </trkpt>
      <trkpt lat="44.73095" lon="0.29312">
        <ele>171.215206</ele>
        <time>2022-07-11T15:49:47.053Z</time>
      </trkpt>
    </trkseg>
  </trk>
  <trk>
    <name><![CDATA[Raccourci (6km)]]></name>
    <extensions>
      <line xmlns="http://www.topografix.com/GPX/gpx_style/0/2">
        <color>ff0026</color>
        <width>4</width>
      </line>
    </extensions>
    <trkseg>
      <trkpt lat="44.73104" lon="0.29316">
        <ele>163.5</ele>
      </trkpt>
      <trkpt lat="44.73133" lon="0.29283">
        <ele>161.2</ele>
      </trkpt>
      <trkpt lat="44.73132" lon="0.29341">
        <ele>160.2</ele>
      </trkpt>
      <trkpt lat="44.73142" lon="0.29339">
        <ele>158.2</ele>
      </trkpt>
      <trkpt lat="44.73168" lon="0.29294">
        <ele>155</ele>
      </trkpt>
      <trkpt lat="44.73195" lon="0.29298">
        <ele>152.5</ele>
      </trkpt>
      <trkpt lat="44.73354" lon="0.29307">
        <ele>139.4</ele>
      </trkpt>
      <trkpt lat="44.73445" lon="0.29321">
        <ele>132.4</ele>
      </trkpt>
      <trkpt lat="44.73543" lon="0.294">
        <ele>126</ele>
      </trkpt>
      <trkpt lat="44.73611" lon="0.29451">
        <ele>122.2</ele>
      </trkpt>
      <trkpt lat="44.73665" lon="0.29488">
        <ele>121.4</ele>
      </trkpt>
      <trkpt lat="44.73701" lon="0.29537">
        <ele>119.9</ele>
      </trkpt>
      <trkpt lat="44.738" lon="0.29572">
        <ele>116.8</ele>
      </trkpt>
      <trkpt lat="44.73891" lon="0.29625">
        <ele>114.9</ele>
      </trkpt>
      <trkpt lat="44.73943" lon="0.29697">
        <ele>113</ele>
      </trkpt>
      <trkpt lat="44.74055" lon="0.2962">
        <ele>113.6</ele>
      </trkpt>
      <trkpt lat="44.74211" lon="0.29539">
        <ele>116.5</ele>
      </trkpt>
      <trkpt lat="44.74284" lon="0.29547">
        <ele>119.8</ele>
      </trkpt>
      <trkpt lat="44.74461" lon="0.29466">
        <ele>117</ele>
      </trkpt>
      <trkpt lat="44.74674" lon="0.29298">
        <ele>113.1</ele>
      </trkpt>
      <trkpt lat="44.74717" lon="0.29092">
        <ele>111.1</ele>
      </trkpt>
      <trkpt lat="44.7479" lon="0.28779">
        <ele>105.3</ele>
      </trkpt>
      <trkpt lat="44.74799" lon="0.28629">
        <ele>103.7</ele>
      </trkpt>
      <trkpt lat="44.74857" lon="0.2856">
        <ele>105.6</ele>
      </trkpt>
      <trkpt lat="44.749" lon="0.28354">
        <ele>103.4</ele>
      </trkpt>
      <trkpt lat="44.74976" lon="0.28264">
        <ele>108.3</ele>
      </trkpt>
      <trkpt lat="44.74979" lon="0.28097">
        <ele>116.7</ele>
      </trkpt>
      <trkpt lat="44.75034" lon="0.27985">
        <ele>120.1</ele>
      </trkpt>
      <trkpt lat="44.75116" lon="0.27972">
        <ele>122.2</ele>
      </trkpt>
      <trkpt lat="44.75232" lon="0.27612">
        <ele>113.7</ele>
      </trkpt>
      <trkpt lat="44.75372" lon="0.27354">
        <ele>114.9</ele>
      </trkpt>
      <trkpt lat="44.75421" lon="0.27268">
        <ele>119.3</ele>
      </trkpt>
      <trkpt lat="44.75643" lon="0.27144">
        <ele>109.4</ele>
      </trkpt>
      <trkpt lat="44.75704" lon="0.26904">
        <ele>100.9</ele>
      </trkpt>
      <trkpt lat="44.75759" lon="0.26745">
        <ele>98.9</ele>
      </trkpt>
      <trkpt lat="44.75765" lon="0.26706">
        <ele>98.2</ele>
      </trkpt>
      <trkpt lat="44.75738" lon="0.26659">
        <ele>96.8</ele>
      </trkpt>
      <trkpt lat="44.75756" lon="0.26526">
        <ele>93.9</ele>
      </trkpt>
      <trkpt lat="44.7575" lon="0.26397">
        <ele>93</ele>
      </trkpt>
      <trkpt lat="44.75845" lon="0.26024">
        <ele>92.6</ele>
      </trkpt>
      <trkpt lat="44.75927" lon="0.25822">
        <ele>91.4</ele>
      </trkpt>
      <trkpt lat="44.75936" lon="0.25715">
        <ele>92.1</ele>
      </trkpt>
      <trkpt lat="44.75887" lon="0.25625">
        <ele>93.1</ele>
      </trkpt>
      <trkpt lat="44.76037" lon="0.2553">
        <ele>97.2</ele>
      </trkpt>
      <trkpt lat="44.76107" lon="0.25462">
        <ele>103.4</ele>
      </trkpt>
      <trkpt lat="44.76097" lon="0.25363">
        <ele>104.5</ele>
      </trkpt>
      <trkpt lat="44.76189" lon="0.24998">
        <ele>124.9</ele>
      </trkpt>
    </trkseg>
  </trk>
  <trk>
    <name><![CDATA[P2_Loubes Bernac-Bergerac-Margueron (54)]]></name>
    <extensions>
      <line xmlns="http://www.topografix.com/GPX/gpx_style/0/2">
        <color>11ff00</color>
        <width>4</width>
      </line>
    </extensions>
    <trkseg>
      <trkpt lat="44.73095" lon="0.29312">
        <ele>171.215206</ele>
        <time>2022-07-11T15:49:47.053Z</time>
      </trkpt>
      <trkpt lat="44.73097" lon="0.2932">
        <ele>171.283427</ele>
        <time>2022-07-11T15:49:48.287Z</time>
      </trkpt>
      <trkpt lat="44.73086" lon="0.2935">
        <ele>171.544863</ele>
        <time>2022-07-11T15:49:53.066Z</time>
      </trkpt>
      <trkpt lat="44.73082" lon="0.29364">
        <ele>171.661442</ele>
        <time>2022-07-11T15:49:55.174Z</time>
      </trkpt>
      <trkpt lat="44.73057" lon="0.29452">
        <ele>172.115743</ele>
        <time>2022-07-11T15:50:10.032Z</time>
      </trkpt>
      <trkpt lat="44.73048" lon="0.29512">
        <ele>172.264231</ele>
        <time>2022-07-11T15:50:20.030Z</time>
      </trkpt>
      <trkpt lat="44.73046" lon="0.29529">
        <ele>172.308073</ele>
        <time>2022-07-11T15:50:22.904Z</time>
      </trkpt>
      <trkpt lat="44.73031" lon="0.29577">
        <ele>172.43577</ele>
        <time>2022-07-11T15:50:29.736Z</time>
      </trkpt>
      <trkpt lat="44.73015" lon="0.29603">
        <ele>172.519809</ele>
        <time>2022-07-11T15:50:33.715Z</time>
      </trkpt>
      <trkpt lat="44.72967" lon="0.29621">
        <ele>172.088438</ele>
        <time>2022-07-11T15:50:41.794Z</time>
      </trkpt>
      <trkpt lat="44.72945" lon="0.29645">
        <ele>171.520078</ele>
        <time>2022-07-11T15:50:46.165Z</time>
      </trkpt>
      <trkpt lat="44.72916" lon="0.29681">
        <ele>170.739963</ele>
        <time>2022-07-11T15:50:52.024Z</time>
      </trkpt>
      <trkpt lat="44.72902" lon="0.29713">
        <ele>170.196238</ele>
        <time>2022-07-11T15:50:55.869Z</time>
      </trkpt>
      <trkpt lat="44.72887" lon="0.29757">
        <ele>169.49677</ele>
        <time>2022-07-11T15:51:00.662Z</time>
      </trkpt>
      <trkpt lat="44.72881" lon="0.29776">
        <ele>169.189458</ele>
        <time>2022-07-11T15:51:02.731Z</time>
      </trkpt>
      <trkpt lat="44.72872" lon="0.29864">
        <ele>167.520419</ele>
        <time>2022-07-11T15:51:11.101Z</time>
      </trkpt>
      <trkpt lat="44.72855" lon="0.3">
        <ele>164.781801</ele>
        <time>2022-07-11T15:51:24.836Z</time>
      </trkpt>
      <trkpt lat="44.72853" lon="0.3005">
        <ele>163.908551</ele>
        <time>2022-07-11T15:51:30.029Z</time>
      </trkpt>
      <trkpt lat="44.7286" lon="0.30128">
        <ele>163.674464</ele>
        <time>2022-07-11T15:51:38.334Z</time>
      </trkpt>
      <trkpt lat="44.7287" lon="0.302">
        <ele>163.454357</ele>
        <time>2022-07-11T15:51:46.713Z</time>
      </trkpt>
      <trkpt lat="44.72872" lon="0.30214">
        <ele>163.411925</ele>
        <time>2022-07-11T15:51:48.453Z</time>
      </trkpt>
      <trkpt lat="44.72882" lon="0.30288">
        <ele>163.190109</ele>
        <time>2022-07-11T15:52:00.520Z</time>
      </trkpt>
      <trkpt lat="44.72875" lon="0.30399">
        <ele>164.052639</ele>
        <time>2022-07-11T15:52:22.482Z</time>
      </trkpt>
      <trkpt lat="44.72879" lon="0.30446">
        <ele>164.435312</ele>
        <time>2022-07-11T15:52:30.919Z</time>
      </trkpt>
      <trkpt lat="44.72881" lon="0.3046">
        <ele>164.551818</ele>
        <time>2022-07-11T15:52:32.593Z</time>
      </trkpt>
      <trkpt lat="44.72894" lon="0.30476">
        <ele>164.752177</ele>
        <time>2022-07-11T15:52:37.814Z</time>
      </trkpt>
      <trkpt lat="44.72935" lon="0.30567">
        <ele>163.953852</ele>
        <time>2022-07-11T15:52:51.911Z</time>
      </trkpt>
      <trkpt lat="44.73018" lon="0.30792">
        <ele>155.460517</ele>
        <time>2022-07-11T15:53:16.010Z</time>
      </trkpt>
      <trkpt lat="44.73021" lon="0.30798">
        <ele>155.004695</ele>
        <time>2022-07-11T15:53:16.662Z</time>
      </trkpt>
      <trkpt lat="44.73076" lon="0.30878">
        <ele>148.484257</ele>
        <time>2022-07-11T15:53:26.112Z</time>
      </trkpt>
      <trkpt lat="44.73134" lon="0.30987">
        <ele>141.087284</ele>
        <time>2022-07-11T15:53:37.714Z</time>
      </trkpt>
      <trkpt lat="44.73163" lon="0.31051">
        <ele>137.505663</ele>
        <time>2022-07-11T15:53:44.449Z</time>
      </trkpt>
      <trkpt lat="44.73166" lon="0.3109">
        <ele>135.657027</ele>
        <time>2022-07-11T15:53:48.071Z</time>
      </trkpt>
      <trkpt lat="44.73154" lon="0.31165">
        <ele>132.07174</ele>
        <time>2022-07-11T15:53:55.291Z</time>
      </trkpt>
      <trkpt lat="44.73116" lon="0.31289">
        <ele>129.554425</ele>
        <time>2022-07-11T15:54:09.297Z</time>
      </trkpt>
      <trkpt lat="44.73096" lon="0.31479">
        <ele>127.445574</ele>
        <time>2022-07-11T15:54:31.482Z</time>
      </trkpt>
      <trkpt lat="44.73113" lon="0.31522">
        <ele>127.411968</ele>
        <time>2022-07-11T15:54:37.624Z</time>
      </trkpt>
      <trkpt lat="44.7316" lon="0.31577">
        <ele>127.353912</ele>
        <time>2022-07-11T15:54:49.416Z</time>
      </trkpt>
      <trkpt lat="44.7317" lon="0.31595">
        <ele>127.338598</ele>
        <time>2022-07-11T15:54:52.925Z</time>
      </trkpt>
      <trkpt lat="44.73193" lon="0.3167">
        <ele>127.674731</ele>
        <time>2022-07-11T15:55:05.954Z</time>
      </trkpt>
      <trkpt lat="44.73197" lon="0.31684">
        <ele>127.78796</ele>
        <time>2022-07-11T15:55:08.450Z</time>
      </trkpt>
      <trkpt lat="44.73201" lon="0.31702">
        <ele>127.930559</ele>
        <time>2022-07-11T15:55:11.576Z</time>
      </trkpt>
      <trkpt lat="44.73221" lon="0.31772">
        <ele>128.498802</ele>
        <time>2022-07-11T15:55:24.143Z</time>
      </trkpt>
      <trkpt lat="44.73239" lon="0.31808">
        <ele>128.82268</ele>
        <time>2022-07-11T15:55:31.226Z</time>
      </trkpt>
      <trkpt lat="44.73279" lon="0.31861">
        <ele>129.256316</ele>
        <time>2022-07-11T15:55:44.016Z</time>
      </trkpt>
      <trkpt lat="44.7331" lon="0.31899">
        <ele>129.345254</ele>
        <time>2022-07-11T15:55:53.057Z</time>
      </trkpt>
      <trkpt lat="44.73362" lon="0.32008">
        <ele>129.548127</ele>
        <time>2022-07-11T15:56:10.187Z</time>
      </trkpt>
      <trkpt lat="44.73391" lon="0.3207">
        <ele>129.41785</ele>
        <time>2022-07-11T15:56:19.508Z</time>
      </trkpt>
      <trkpt lat="44.73406" lon="0.32105">
        <ele>129.2053</ele>
        <time>2022-07-11T15:56:24.501Z</time>
      </trkpt>
      <trkpt lat="44.73426" lon="0.32133">
        <ele>128.990693</ele>
        <time>2022-07-11T15:56:29.529Z</time>
      </trkpt>
      <trkpt lat="44.7346" lon="0.32155">
        <ele>128.718656</ele>
        <time>2022-07-11T15:56:35.816Z</time>
      </trkpt>
      <trkpt lat="44.73541" lon="0.32186">
        <ele>127.710967</ele>
        <time>2022-07-11T15:56:49.839Z</time>
      </trkpt>
      <trkpt lat="44.73573" lon="0.32199">
        <ele>126.974522</ele>
        <time>2022-07-11T15:56:54.938Z</time>
      </trkpt>
      <trkpt lat="44.73648" lon="0.32258">
        <ele>125.00593</ele>
        <time>2022-07-11T15:57:07.921Z</time>
      </trkpt>
      <trkpt lat="44.73688" lon="0.32288">
        <ele>123.847027</ele>
        <time>2022-07-11T15:57:14.380Z</time>
      </trkpt>
      <trkpt lat="44.73838" lon="0.32389">
        <ele>117.475701</ele>
        <time>2022-07-11T15:57:37.471Z</time>
      </trkpt>
      <trkpt lat="44.73915" lon="0.32405">
        <ele>114.172862</ele>
        <time>2022-07-11T15:57:48.038Z</time>
      </trkpt>
      <trkpt lat="44.73942" lon="0.32418">
        <ele>112.956916</ele>
        <time>2022-07-11T15:57:51.848Z</time>
      </trkpt>
      <trkpt lat="44.73912" lon="0.32664">
        <ele>107.662141</ele>
        <time>2022-07-11T15:58:16.701Z</time>
      </trkpt>
      <trkpt lat="44.73909" lon="0.32718">
        <ele>106.896444</ele>
        <time>2022-07-11T15:58:23.072Z</time>
      </trkpt>
      <trkpt lat="44.73911" lon="0.32727">
        <ele>106.765468</ele>
        <time>2022-07-11T15:58:24.297Z</time>
      </trkpt>
      <trkpt lat="44.73932" lon="0.32761">
        <ele>106.129819</ele>
        <time>2022-07-11T15:58:30.135Z</time>
      </trkpt>
      <trkpt lat="44.74104" lon="0.32967">
        <ele>109.344203</ele>
        <time>2022-07-11T15:59:25.966Z</time>
      </trkpt>
      <trkpt lat="44.74135" lon="0.32943">
        <ele>110.087544</ele>
        <time>2022-07-11T15:59:34.754Z</time>
      </trkpt>
      <trkpt lat="44.7421" lon="0.32888">
        <ele>111.857058</ele>
        <time>2022-07-11T15:59:57.111Z</time>
      </trkpt>
      <trkpt lat="44.74253" lon="0.32971">
        <ele>114.692671</ele>
        <time>2022-07-11T16:00:19.470Z</time>
      </trkpt>
      <trkpt lat="44.74317" lon="0.33083">
        <ele>119.228563</ele>
        <time>2022-07-11T16:00:58.887Z</time>
      </trkpt>
      <trkpt lat="44.74332" lon="0.3311">
        <ele>120.326473</ele>
        <time>2022-07-11T16:01:09.113Z</time>
      </trkpt>
      <trkpt lat="44.74418" lon="0.33262">
        <ele>128.044848</ele>
        <time>2022-07-11T16:02:05.207Z</time>
      </trkpt>
      <trkpt lat="44.74429" lon="0.33293">
        <ele>129.437163</ele>
        <time>2022-07-11T16:02:15.438Z</time>
      </trkpt>
      <trkpt lat="44.74469" lon="0.33342">
        <ele>132.595747</ele>
        <time>2022-07-11T16:02:38.258Z</time>
      </trkpt>
      <trkpt lat="44.7454" lon="0.3342">
        <ele>138.097401</ele>
        <time>2022-07-11T16:03:14.647Z</time>
      </trkpt>
      <trkpt lat="44.74552" lon="0.33443">
        <ele>139.336025</ele>
        <time>2022-07-11T16:03:23.719Z</time>
      </trkpt>
      <trkpt lat="44.74553" lon="0.33491">
        <ele>141.461742</ele>
        <time>2022-07-11T16:03:40.043Z</time>
      </trkpt>
      <trkpt lat="44.74597" lon="0.33569">
        <ele>146.699322</ele>
        <time>2022-07-11T16:04:14.506Z</time>
      </trkpt>
      <trkpt lat="44.74648" lon="0.33643">
        <ele>152.099221</ele>
        <time>2022-07-11T16:04:49.542Z</time>
      </trkpt>
      <trkpt lat="44.74739" lon="0.33763">
        <ele>160.756633</ele>
        <time>2022-07-11T16:05:50.623Z</time>
      </trkpt>
      <trkpt lat="44.74721" lon="0.33894">
        <ele>166.994337</ele>
        <time>2022-07-11T16:06:31.785Z</time>
      </trkpt>
      <trkpt lat="44.7472" lon="0.33905">
        <ele>167.310637</ele>
        <time>2022-07-11T16:06:34.985Z</time>
      </trkpt>
      <trkpt lat="44.74722" lon="0.33922">
        <ele>167.783094</ele>
        <time>2022-07-11T16:06:39.804Z</time>
      </trkpt>
      <trkpt lat="44.74743" lon="0.33975">
        <ele>169.471486</ele>
        <time>2022-07-11T16:06:55.824Z</time>
      </trkpt>
      <trkpt lat="44.74791" lon="0.34054">
        <ele>172.319913</ele>
        <time>2022-07-11T16:07:19.686Z</time>
      </trkpt>
      <trkpt lat="44.74805" lon="0.34068">
        <ele>172.989804</ele>
        <time>2022-07-11T16:07:24.657Z</time>
      </trkpt>
      <trkpt lat="44.74866" lon="0.341">
        <ele>174.160768</ele>
        <time>2022-07-11T16:07:42.883Z</time>
      </trkpt>
      <trkpt lat="44.74894" lon="0.34101">
        <ele>174.401235</ele>
        <time>2022-07-11T16:07:49.300Z</time>
      </trkpt>
      <trkpt lat="44.74923" lon="0.34094">
        <ele>174.659305</ele>
        <time>2022-07-11T16:07:55.453Z</time>
      </trkpt>
      <trkpt lat="44.74955" lon="0.341">
        <ele>174.934283</ele>
        <time>2022-07-11T16:08:01.473Z</time>
      </trkpt>
      <trkpt lat="44.74977" lon="0.34111">
        <ele>175.135159</ele>
        <time>2022-07-11T16:08:05.594Z</time>
      </trkpt>
      <trkpt lat="44.75019" lon="0.34138">
        <ele>175.088389</ele>
        <time>2022-07-11T16:08:13.988Z</time>
      </trkpt>
      <trkpt lat="44.75031" lon="0.3416">
        <ele>174.901704</ele>
        <time>2022-07-11T16:08:17.539Z</time>
      </trkpt>
      <trkpt lat="44.75042" lon="0.34189">
        <ele>174.685549</ele>
        <time>2022-07-11T16:08:21.587Z</time>
      </trkpt>
      <trkpt lat="44.75066" lon="0.34266">
        <ele>174.116235</ele>
        <time>2022-07-11T16:08:32.170Z</time>
      </trkpt>
      <trkpt lat="44.75111" lon="0.34407">
        <ele>172.253704</ele>
        <time>2022-07-11T16:08:48.670Z</time>
      </trkpt>
      <trkpt lat="44.75111" lon="0.34416">
        <ele>172.100246</ele>
        <time>2022-07-11T16:08:49.661Z</time>
      </trkpt>
      <trkpt lat="44.7511" lon="0.3454">
        <ele>169.99508</ele>
        <time>2022-07-11T16:09:02.901Z</time>
      </trkpt>
      <trkpt lat="44.75116" lon="0.34629">
        <ele>168.466215</ele>
        <time>2022-07-11T16:09:12.264Z</time>
      </trkpt>
      <trkpt lat="44.75122" lon="0.34655">
        <ele>167.991654</ele>
        <time>2022-07-11T16:09:15.037Z</time>
      </trkpt>
      <trkpt lat="44.7515" lon="0.34726">
        <ele>166.612579</ele>
        <time>2022-07-11T16:09:23.512Z</time>
      </trkpt>
      <trkpt lat="44.7515" lon="0.34737">
        <ele>166.435752</ele>
        <time>2022-07-11T16:09:24.596Z</time>
      </trkpt>
      <trkpt lat="44.75139" lon="0.34806">
        <ele>165.217844</ele>
        <time>2022-07-11T16:09:32.354Z</time>
      </trkpt>
      <trkpt lat="44.75124" lon="0.34846">
        <ele>164.557442</ele>
        <time>2022-07-11T16:09:37.339Z</time>
      </trkpt>
      <trkpt lat="44.75115" lon="0.34892">
        <ele>163.920193</ele>
        <time>2022-07-11T16:09:42.784Z</time>
      </trkpt>
      <trkpt lat="44.75116" lon="0.34987">
        <ele>162.636661</ele>
        <time>2022-07-11T16:09:53.635Z</time>
      </trkpt>
      <trkpt lat="44.75132" lon="0.35141">
        <ele>159.454881</ele>
        <time>2022-07-11T16:10:10.141Z</time>
      </trkpt>
      <trkpt lat="44.7514" lon="0.3532">
        <ele>154.441199</ele>
        <time>2022-07-11T16:10:27.465Z</time>
      </trkpt>
      <trkpt lat="44.75148" lon="0.35528">
        <ele>146.959116</ele>
        <time>2022-07-11T16:10:46.982Z</time>
      </trkpt>
      <trkpt lat="44.75156" lon="0.35616">
        <ele>143.606263</ele>
        <time>2022-07-11T16:10:55.423Z</time>
      </trkpt>
      <trkpt lat="44.75144" lon="0.35714">
        <ele>139.664556</ele>
        <time>2022-07-11T16:11:04.668Z</time>
      </trkpt>
      <trkpt lat="44.75138" lon="0.35763">
        <ele>137.714662</ele>
        <time>2022-07-11T16:11:09.231Z</time>
      </trkpt>
      <trkpt lat="44.75125" lon="0.35862">
        <ele>133.689072</ele>
        <time>2022-07-11T16:11:18.490Z</time>
      </trkpt>
      <trkpt lat="44.7512" lon="0.35908">
        <ele>131.806495</ele>
        <time>2022-07-11T16:11:22.708Z</time>
      </trkpt>
      <trkpt lat="44.75119" lon="0.36058">
        <ele>125.70138</ele>
        <time>2022-07-11T16:11:36.461Z</time>
      </trkpt>
      <trkpt lat="44.75136" lon="0.36207">
        <ele>121.275494</ele>
        <time>2022-07-11T16:11:51.237Z</time>
      </trkpt>
      <trkpt lat="44.75193" lon="0.36611">
        <ele>111.248302</ele>
        <time>2022-07-11T16:12:32.753Z</time>
      </trkpt>
      <trkpt lat="44.75219" lon="0.36933">
        <ele>106.736205</ele>
        <time>2022-07-11T16:13:07.487Z</time>
      </trkpt>
      <trkpt lat="44.75215" lon="0.36973">
        <ele>106.500271</ele>
        <time>2022-07-11T16:13:12.693Z</time>
      </trkpt>
      <trkpt lat="44.75206" lon="0.37014">
        <ele>106.2522</ele>
        <time>2022-07-11T16:13:18.434Z</time>
      </trkpt>
      <trkpt lat="44.75207" lon="0.37043">
        <ele>106.085353</ele>
        <time>2022-07-11T16:13:22.590Z</time>
      </trkpt>
      <trkpt lat="44.75209" lon="0.37053">
        <ele>106.021786</ele>
        <time>2022-07-11T16:13:24.226Z</time>
      </trkpt>
      <trkpt lat="44.75235" lon="0.37156">
        <ele>106.66411</ele>
        <time>2022-07-11T16:13:41.922Z</time>
      </trkpt>
      <trkpt lat="44.75237" lon="0.37169">
        <ele>106.766196</ele>
        <time>2022-07-11T16:13:44.102Z</time>
      </trkpt>
      <trkpt lat="44.75273" lon="0.37296">
        <ele>107.86336</ele>
        <time>2022-07-11T16:14:07.430Z</time>
      </trkpt>
      <trkpt lat="44.75275" lon="0.37301">
        <ele>107.905247</ele>
        <time>2022-07-11T16:14:08.320Z</time>
      </trkpt>
      <trkpt lat="44.75289" lon="0.37354">
        <ele>108.417285</ele>
        <time>2022-07-11T16:14:17.574Z</time>
      </trkpt>
      <trkpt lat="44.7529" lon="0.37361">
        <ele>108.484459</ele>
        <time>2022-07-11T16:14:18.713Z</time>
      </trkpt>
      <trkpt lat="44.7529" lon="0.37365">
        <ele>108.525828</ele>
        <time>2022-07-11T16:14:19.379Z</time>
      </trkpt>
      <trkpt lat="44.7529" lon="0.37425">
        <ele>109.071633</ele>
        <time>2022-07-11T16:14:28.904Z</time>
      </trkpt>
      <trkpt lat="44.75279" lon="0.37582">
        <ele>110.749253</ele>
        <time>2022-07-11T16:14:55.668Z</time>
      </trkpt>
      <trkpt lat="44.75279" lon="0.37681">
        <ele>112.521666</ele>
        <time>2022-07-11T16:15:15.312Z</time>
      </trkpt>
      <trkpt lat="44.75287" lon="0.3778">
        <ele>114.28932</ele>
        <time>2022-07-11T16:15:36.817Z</time>
      </trkpt>
      <trkpt lat="44.75282" lon="0.37855">
        <ele>116.042022</ele>
        <time>2022-07-11T16:15:53.301Z</time>
      </trkpt>
      <trkpt lat="44.75266" lon="0.37917">
        <ele>117.822576</ele>
        <time>2022-07-11T16:16:07.687Z</time>
      </trkpt>
      <trkpt lat="44.75198" lon="0.38097">
        <ele>123.891871</ele>
        <time>2022-07-11T16:16:59.775Z</time>
      </trkpt>
      <trkpt lat="44.75196" lon="0.38102">
        <ele>124.122525</ele>
        <time>2022-07-11T16:17:01.388Z</time>
      </trkpt>
      <trkpt lat="44.75164" lon="0.3819">
        <ele>127.68024</ele>
        <time>2022-07-11T16:17:27.687Z</time>
      </trkpt>
      <trkpt lat="44.75158" lon="0.3822">
        <ele>128.80231</ele>
        <time>2022-07-11T16:17:36.692Z</time>
      </trkpt>
      <trkpt lat="44.75143" lon="0.38377">
        <ele>134.244428</ele>
        <time>2022-07-11T16:18:25.428Z</time>
      </trkpt>
      <trkpt lat="44.75143" lon="0.38436">
        <ele>136.203938</ele>
        <time>2022-07-11T16:18:42.954Z</time>
      </trkpt>
      <trkpt lat="44.75147" lon="0.38671">
        <ele>139.311905</ele>
        <time>2022-07-11T16:19:30.248Z</time>
      </trkpt>
      <trkpt lat="44.75145" lon="0.38691">
        <ele>139.328785</ele>
        <time>2022-07-11T16:19:32.531Z</time>
      </trkpt>
      <trkpt lat="44.75165" lon="0.38706">
        <ele>139.354834</ele>
        <time>2022-07-11T16:19:36.030Z</time>
      </trkpt>
      <trkpt lat="44.7519" lon="0.38739">
        <ele>139.39409</ele>
        <time>2022-07-11T16:19:41.013Z</time>
      </trkpt>
      <trkpt lat="44.75213" lon="0.38795">
        <ele>137.107356</ele>
        <time>2022-07-11T16:19:47.313Z</time>
      </trkpt>
      <trkpt lat="44.75226" lon="0.38812">
        <ele>136.124762</ele>
        <time>2022-07-11T16:19:49.570Z</time>
      </trkpt>
      <trkpt lat="44.75265" lon="0.3882">
        <ele>133.904715</ele>
        <time>2022-07-11T16:19:54.599Z</time>
      </trkpt>
      <trkpt lat="44.75278" lon="0.38831">
        <ele>133.057057</ele>
        <time>2022-07-11T16:19:56.533Z</time>
      </trkpt>
      <trkpt lat="44.75288" lon="0.38851">
        <ele>132.08515</ele>
        <time>2022-07-11T16:19:58.715Z</time>
      </trkpt>
      <trkpt lat="44.75342" lon="0.39028">
        <ele>125.121419</ele>
        <time>2022-07-11T16:20:16.538Z</time>
      </trkpt>
      <trkpt lat="44.75364" lon="0.39066">
        <ele>123.453782</ele>
        <time>2022-07-11T16:20:21.175Z</time>
      </trkpt>
      <trkpt lat="44.75378" lon="0.39073">
        <ele>122.730756</ele>
        <time>2022-07-11T16:20:23.139Z</time>
      </trkpt>
      <trkpt lat="44.75463" lon="0.39087">
        <ele>119.737222</ele>
        <time>2022-07-11T16:20:35.384Z</time>
      </trkpt>
      <trkpt lat="44.75493" lon="0.39108">
        <ele>118.989655</ele>
        <time>2022-07-11T16:20:40.507Z</time>
      </trkpt>
      <trkpt lat="44.75523" lon="0.39138">
        <ele>118.201519</ele>
        <time>2022-07-11T16:20:46.032Z</time>
      </trkpt>
      <trkpt lat="44.75588" lon="0.39199">
        <ele>116.593156</ele>
        <time>2022-07-11T16:20:58.957Z</time>
      </trkpt>
      <trkpt lat="44.75605" lon="0.39218">
        <ele>116.312465</ele>
        <time>2022-07-11T16:21:02.410Z</time>
      </trkpt>
      <trkpt lat="44.75637" lon="0.39281">
        <ele>115.597991</ele>
        <time>2022-07-11T16:21:11.293Z</time>
      </trkpt>
      <trkpt lat="44.75701" lon="0.39353">
        <ele>114.528221</ele>
        <time>2022-07-11T16:21:24.549Z</time>
      </trkpt>
      <trkpt lat="44.75775" lon="0.39518">
        <ele>112.70172</ele>
        <time>2022-07-11T16:21:47.170Z</time>
      </trkpt>
      <trkpt lat="44.75806" lon="0.39611">
        <ele>111.719529</ele>
        <time>2022-07-11T16:21:58.722Z</time>
      </trkpt>
      <trkpt lat="44.75826" lon="0.39707">
        <ele>110.694914</ele>
        <time>2022-07-11T16:22:10.174Z</time>
      </trkpt>
      <trkpt lat="44.75838" lon="0.39848">
        <ele>109.121408</ele>
        <time>2022-07-11T16:22:26.356Z</time>
      </trkpt>
      <trkpt lat="44.7586" lon="0.39962">
        <ele>107.192322</ele>
        <time>2022-07-11T16:22:39.489Z</time>
      </trkpt>
      <trkpt lat="44.75876" lon="0.40023">
        <ele>106.121265</ele>
        <time>2022-07-11T16:22:46.513Z</time>
      </trkpt>
      <trkpt lat="44.75908" lon="0.40121">
        <ele>103.618372</ele>
        <time>2022-07-11T16:22:57.133Z</time>
      </trkpt>
      <trkpt lat="44.7593" lon="0.40156">
        <ele>102.246646</ele>
        <time>2022-07-11T16:23:01.665Z</time>
      </trkpt>
      <trkpt lat="44.7595" lon="0.40178">
        <ele>101.204002</ele>
        <time>2022-07-11T16:23:05.092Z</time>
      </trkpt>
      <trkpt lat="44.75946" lon="0.40208">
        <ele>100.320458</ele>
        <time>2022-07-11T16:23:07.817Z</time>
      </trkpt>
      <trkpt lat="44.75938" lon="0.40287">
        <ele>97.955992</ele>
        <time>2022-07-11T16:23:15.286Z</time>
      </trkpt>
      <trkpt lat="44.75925" lon="0.40415">
        <ele>95.984923</ele>
        <time>2022-07-11T16:23:27.513Z</time>
      </trkpt>
      <trkpt lat="44.75926" lon="0.40577">
        <ele>94.389869</ele>
        <time>2022-07-11T16:23:46.391Z</time>
      </trkpt>
      <trkpt lat="44.75897" lon="0.40705">
        <ele>95.568773</ele>
        <time>2022-07-11T16:24:09.364Z</time>
      </trkpt>
      <trkpt lat="44.75895" lon="0.40829">
        <ele>96.030728</ele>
        <time>2022-07-11T16:24:32.728Z</time>
      </trkpt>
      <trkpt lat="44.75905" lon="0.40892">
        <ele>95.598873</ele>
        <time>2022-07-11T16:24:42.442Z</time>
      </trkpt>
      <trkpt lat="44.75923" lon="0.40902">
        <ele>95.413303</ele>
        <time>2022-07-11T16:24:45.652Z</time>
      </trkpt>
      <trkpt lat="44.75932" lon="0.40934">
        <ele>95.175464</ele>
        <time>2022-07-11T16:24:49.627Z</time>
      </trkpt>
      <trkpt lat="44.75932" lon="0.40964">
        <ele>94.978377</ele>
        <time>2022-07-11T16:24:52.640Z</time>
      </trkpt>
      <trkpt lat="44.75961" lon="0.40997">
        <ele>94.622595</ele>
        <time>2022-07-11T16:24:57.906Z</time>
      </trkpt>
      <trkpt lat="44.75932" lon="0.41055">
        <ele>92.536885</ele>
        <time>2022-07-11T16:25:04.454Z</time>
      </trkpt>
      <trkpt lat="44.75948" lon="0.4107">
        <ele>91.702058</ele>
        <time>2022-07-11T16:25:06.926Z</time>
      </trkpt>
      <trkpt lat="44.75954" lon="0.41077">
        <ele>91.354886</ele>
        <time>2022-07-11T16:25:07.968Z</time>
      </trkpt>
      <trkpt lat="44.75995" lon="0.4112">
        <ele>89.152569</ele>
        <time>2022-07-11T16:25:14.570Z</time>
      </trkpt>
      <trkpt lat="44.76011" lon="0.4114">
        <ele>88.203232</ele>
        <time>2022-07-11T16:25:17.494Z</time>
      </trkpt>
      <trkpt lat="44.76031" lon="0.41162">
        <ele>87.119748</ele>
        <time>2022-07-11T16:25:20.994Z</time>
      </trkpt>
      <trkpt lat="44.76089" lon="0.41226">
        <ele>88.212477</ele>
        <time>2022-07-11T16:25:33.064Z</time>
      </trkpt>
      <trkpt lat="44.76252" lon="0.41411">
        <ele>95.138533</ele>
        <time>2022-07-11T16:26:51.357Z</time>
      </trkpt>
      <trkpt lat="44.76296" lon="0.41461">
        <ele>97.788944</ele>
        <time>2022-07-11T16:27:12.637Z</time>
      </trkpt>
      <trkpt lat="44.76401" lon="0.41579">
        <ele>103.569679</ele>
        <time>2022-07-11T16:28:01.977Z</time>
      </trkpt>
      <trkpt lat="44.76482" lon="0.41663">
        <ele>107.402075</ele>
        <time>2022-07-11T16:28:35.772Z</time>
      </trkpt>
      <trkpt lat="44.76545" lon="0.41668">
        <ele>109.089555</ele>
        <time>2022-07-11T16:28:56.209Z</time>
      </trkpt>
      <trkpt lat="44.76564" lon="0.41687">
        <ele>109.697765</ele>
        <time>2022-07-11T16:29:02.965Z</time>
      </trkpt>
      <trkpt lat="44.76568" lon="0.41705">
        <ele>110.056015</ele>
        <time>2022-07-11T16:29:06.768Z</time>
      </trkpt>
      <trkpt lat="44.76566" lon="0.41748">
        <ele>110.875517</ele>
        <time>2022-07-11T16:29:14.492Z</time>
      </trkpt>
      <trkpt lat="44.76559" lon="0.41766">
        <ele>111.274672</ele>
        <time>2022-07-11T16:29:18.008Z</time>
      </trkpt>
      <trkpt lat="44.76512" lon="0.41831">
        <ele>112.317561</ele>
        <time>2022-07-11T16:29:32.423Z</time>
      </trkpt>
      <trkpt lat="44.76501" lon="0.41891">
        <ele>112.951918</ele>
        <time>2022-07-11T16:29:42.541Z</time>
      </trkpt>
      <trkpt lat="44.76493" lon="0.41942">
        <ele>113.490853</ele>
        <time>2022-07-11T16:29:51.630Z</time>
      </trkpt>
      <trkpt lat="44.76444" lon="0.42253">
        <ele>117.811045</ele>
        <time>2022-07-11T16:30:52.368Z</time>
      </trkpt>
      <trkpt lat="44.76442" lon="0.42282">
        <ele>118.009198</ele>
        <time>2022-07-11T16:30:58.006Z</time>
      </trkpt>
      <trkpt lat="44.76474" lon="0.424">
        <ele>118.872287</ele>
        <time>2022-07-11T16:31:20.389Z</time>
      </trkpt>
      <trkpt lat="44.76485" lon="0.42449">
        <ele>119.220516</ele>
        <time>2022-07-11T16:31:27.837Z</time>
      </trkpt>
      <trkpt lat="44.76493" lon="0.42488">
        <ele>119.467389</ele>
        <time>2022-07-11T16:31:32.931Z</time>
      </trkpt>
      <trkpt lat="44.76502" lon="0.42543">
        <ele>118.734664</ele>
        <time>2022-07-11T16:31:39.343Z</time>
      </trkpt>
      <trkpt lat="44.76503" lon="0.42547">
        <ele>118.67067</ele>
        <time>2022-07-11T16:31:39.861Z</time>
      </trkpt>
      <trkpt lat="44.76503" lon="0.42556">
        <ele>118.563887</ele>
        <time>2022-07-11T16:31:40.753Z</time>
      </trkpt>
      <trkpt lat="44.76506" lon="0.42623">
        <ele>117.685418</ele>
        <time>2022-07-11T16:31:48.022Z</time>
      </trkpt>
      <trkpt lat="44.76506" lon="0.42637">
        <ele>117.507431</ele>
        <time>2022-07-11T16:31:49.471Z</time>
      </trkpt>
      <trkpt lat="44.7651" lon="0.42675">
        <ele>117.009211</ele>
        <time>2022-07-11T16:31:53.627Z</time>
      </trkpt>
      <trkpt lat="44.76514" lon="0.42678">
        <ele>116.920937</ele>
        <time>2022-07-11T16:31:54.334Z</time>
      </trkpt>
      <trkpt lat="44.76577" lon="0.42729">
        <ele>115.96282</ele>
        <time>2022-07-11T16:32:05.252Z</time>
      </trkpt>
      <trkpt lat="44.76577" lon="0.42745">
        <ele>115.881096</ele>
        <time>2022-07-11T16:32:06.980Z</time>
      </trkpt>
      <trkpt lat="44.76459" lon="0.42962">
        <ele>115.731439</ele>
        <time>2022-07-11T16:32:42.315Z</time>
      </trkpt>
      <trkpt lat="44.7635" lon="0.43181">
        <ele>117.881186</ele>
        <time>2022-07-11T16:33:34.164Z</time>
      </trkpt>
      <trkpt lat="44.76321" lon="0.43223">
        <ele>118.173857</ele>
        <time>2022-07-11T16:33:43.927Z</time>
      </trkpt>
      <trkpt lat="44.76308" lon="0.43232">
        <ele>118.27071</ele>
        <time>2022-07-11T16:33:46.983Z</time>
      </trkpt>
      <trkpt lat="44.7626" lon="0.43244">
        <ele>118.615683</ele>
        <time>2022-07-11T16:33:55.643Z</time>
      </trkpt>
      <trkpt lat="44.76245" lon="0.43269">
        <ele>117.968612</ele>
        <time>2022-07-11T16:33:59.154Z</time>
      </trkpt>
      <trkpt lat="44.76232" lon="0.43308">
        <ele>116.760079</ele>
        <time>2022-07-11T16:34:03.651Z</time>
      </trkpt>
      <trkpt lat="44.76227" lon="0.43326">
        <ele>116.224127</ele>
        <time>2022-07-11T16:34:05.591Z</time>
      </trkpt>
      <trkpt lat="44.76206" lon="0.434">
        <ele>114.005688</ele>
        <time>2022-07-11T16:34:13.300Z</time>
      </trkpt>
      <trkpt lat="44.76199" lon="0.43464">
        <ele>112.170709</ele>
        <time>2022-07-11T16:34:19.348Z</time>
      </trkpt>
      <trkpt lat="44.7619" lon="0.43771">
        <ele>101.7633</ele>
        <time>2022-07-11T16:34:47.873Z</time>
      </trkpt>
      <trkpt lat="44.76176" lon="0.43875">
        <ele>100.917864</ele>
        <time>2022-07-11T16:34:59.015Z</time>
      </trkpt>
      <trkpt lat="44.76159" lon="0.43977">
        <ele>100.074927</ele>
        <time>2022-07-11T16:35:15.802Z</time>
      </trkpt>
      <trkpt lat="44.76195" lon="0.43998">
        <ele>101.411549</ele>
        <time>2022-07-11T16:35:27.661Z</time>
      </trkpt>
      <trkpt lat="44.76185" lon="0.44071">
        <ele>103.82812</ele>
        <time>2022-07-11T16:35:46.680Z</time>
      </trkpt>
      <trkpt lat="44.76169" lon="0.441">
        <ele>104.995888</ele>
        <time>2022-07-11T16:35:56.987Z</time>
      </trkpt>
      <trkpt lat="44.76134" lon="0.44144">
        <ele>107.13811</ele>
        <time>2022-07-11T16:36:16.350Z</time>
      </trkpt>
      <trkpt lat="44.76125" lon="0.44157">
        <ele>107.730505</ele>
        <time>2022-07-11T16:36:21.858Z</time>
      </trkpt>
      <trkpt lat="44.76112" lon="0.44177">
        <ele>108.539597</ele>
        <time>2022-07-11T16:36:30.378Z</time>
      </trkpt>
      <trkpt lat="44.76108" lon="0.44197">
        <ele>109.133136</ele>
        <time>2022-07-11T16:36:36.674Z</time>
      </trkpt>
      <trkpt lat="44.76097" lon="0.4425">
        <ele>110.715337</ele>
        <time>2022-07-11T16:36:52.690Z</time>
      </trkpt>
      <trkpt lat="44.76089" lon="0.44289">
        <ele>111.880915</ele>
        <time>2022-07-11T16:37:03.325Z</time>
      </trkpt>
      <trkpt lat="44.76063" lon="0.44372">
        <ele>114.482139</ele>
        <time>2022-07-11T16:37:23.240Z</time>
      </trkpt>
      <trkpt lat="44.76054" lon="0.44399">
        <ele>115.339127</ele>
        <time>2022-07-11T16:37:29.109Z</time>
      </trkpt>
      <trkpt lat="44.76044" lon="0.44413">
        <ele>115.43841</ele>
        <time>2022-07-11T16:37:33.343Z</time>
      </trkpt>
      <trkpt lat="44.76026" lon="0.4442">
        <ele>115.483603</ele>
        <time>2022-07-11T16:37:37.894Z</time>
      </trkpt>
      <trkpt lat="44.75917" lon="0.44393">
        <ele>115.754887</ele>
        <time>2022-07-11T16:37:58.916Z</time>
      </trkpt>
      <trkpt lat="44.75904" lon="0.4441">
        <ele>115.797355</ele>
        <time>2022-07-11T16:38:01.773Z</time>
      </trkpt>
      <trkpt lat="44.75849" lon="0.44622">
        <ele>113.807738</ele>
        <time>2022-07-11T16:38:27.317Z</time>
      </trkpt>
      <trkpt lat="44.75838" lon="0.44664">
        <ele>113.335727</ele>
        <time>2022-07-11T16:38:32.365Z</time>
      </trkpt>
      <trkpt lat="44.75823" lon="0.44724">
        <ele>112.633649</ele>
        <time>2022-07-11T16:38:39.515Z</time>
      </trkpt>
      <trkpt lat="44.75823" lon="0.44738">
        <ele>112.467213</ele>
        <time>2022-07-11T16:38:41.180Z</time>
      </trkpt>
      <trkpt lat="44.7583" lon="0.44769">
        <ele>112.097927</ele>
        <time>2022-07-11T16:38:44.856Z</time>
      </trkpt>
      <trkpt lat="44.75845" lon="0.44797">
        <ele>111.706034</ele>
        <time>2022-07-11T16:38:48.828Z</time>
      </trkpt>
      <trkpt lat="44.75857" lon="0.44825">
        <ele>111.330549</ele>
        <time>2022-07-11T16:38:52.654Z</time>
      </trkpt>
      <trkpt lat="44.75871" lon="0.44892">
        <ele>110.546646</ele>
        <time>2022-07-11T16:39:00.689Z</time>
      </trkpt>
      <trkpt lat="44.75868" lon="0.44926">
        <ele>109.916581</ele>
        <time>2022-07-11T16:39:04.522Z</time>
      </trkpt>
      <trkpt lat="44.7587" lon="0.44937">
        <ele>109.652298</ele>
        <time>2022-07-11T16:39:05.692Z</time>
      </trkpt>
      <trkpt lat="44.75871" lon="0.44959">
        <ele>109.108642</ele>
        <time>2022-07-11T16:39:08.010Z</time>
      </trkpt>
      <trkpt lat="44.7583" lon="0.45082">
        <ele>105.764678</ele>
        <time>2022-07-11T16:39:21.585Z</time>
      </trkpt>
      <trkpt lat="44.75956" lon="0.45156">
        <ele>100.961699</ele>
        <time>2022-07-11T16:39:39.126Z</time>
      </trkpt>
      <trkpt lat="44.76013" lon="0.45214">
        <ele>98.422422</ele>
        <time>2022-07-11T16:39:48.280Z</time>
      </trkpt>
      <trkpt lat="44.76088" lon="0.4535">
        <ele>99.536561</ele>
        <time>2022-07-11T16:40:11.433Z</time>
      </trkpt>
      <trkpt lat="44.76091" lon="0.45357">
        <ele>99.640682</ele>
        <time>2022-07-11T16:40:13.267Z</time>
      </trkpt>
      <trkpt lat="44.76102" lon="0.45377">
        <ele>99.972017</ele>
        <time>2022-07-11T16:40:18.877Z</time>
      </trkpt>
      <trkpt lat="44.76138" lon="0.45448">
        <ele>101.331365</ele>
        <time>2022-07-11T16:40:41.898Z</time>
      </trkpt>
      <trkpt lat="44.76172" lon="0.45497">
        <ele>103.811208</ele>
        <time>2022-07-11T16:41:02.259Z</time>
      </trkpt>
      <trkpt lat="44.76225" lon="0.4555">
        <ele>107.135785</ele>
        <time>2022-07-11T16:41:32.592Z</time>
      </trkpt>
      <trkpt lat="44.76296" lon="0.45685">
        <ele>109.827129</ele>
        <time>2022-07-11T16:42:10.212Z</time>
      </trkpt>
      <trkpt lat="44.76301" lon="0.4569">
        <ele>109.791078</ele>
        <time>2022-07-11T16:42:11.632Z</time>
      </trkpt>
      <trkpt lat="44.76308" lon="0.45697">
        <ele>109.748036</ele>
        <time>2022-07-11T16:42:13.173Z</time>
      </trkpt>
      <trkpt lat="44.76355" lon="0.4571">
        <ele>109.498449</ele>
        <time>2022-07-11T16:42:20.980Z</time>
      </trkpt>
      <trkpt lat="44.76381" lon="0.45739">
        <ele>109.328042</ele>
        <time>2022-07-11T16:42:25.790Z</time>
      </trkpt>
      <trkpt lat="44.76449" lon="0.45839">
        <ele>105.671989</ele>
        <time>2022-07-11T16:42:38.818Z</time>
      </trkpt>
      <trkpt lat="44.76547" lon="0.45902">
        <ele>100.703386</ele>
        <time>2022-07-11T16:42:53.146Z</time>
      </trkpt>
      <trkpt lat="44.76554" lon="0.45918">
        <ele>100.480903</ele>
        <time>2022-07-11T16:42:54.999Z</time>
      </trkpt>
      <trkpt lat="44.76558" lon="0.45956">
        <ele>100.00219</ele>
        <time>2022-07-11T16:42:58.862Z</time>
      </trkpt>
      <trkpt lat="44.76561" lon="0.4598">
        <ele>99.71182</ele>
        <time>2022-07-11T16:43:01.367Z</time>
      </trkpt>
      <trkpt lat="44.76583" lon="0.45996">
        <ele>99.277687</ele>
        <time>2022-07-11T16:43:07.875Z</time>
      </trkpt>
      <trkpt lat="44.76618" lon="0.46011">
        <ele>98.652998</ele>
        <time>2022-07-11T16:43:17.437Z</time>
      </trkpt>
      <trkpt lat="44.76666" lon="0.46018">
        <ele>97.810225</ele>
        <time>2022-07-11T16:43:31.647Z</time>
      </trkpt>
      <trkpt lat="44.76724" lon="0.4601">
        <ele>98.507936</ele>
        <time>2022-07-11T16:43:51.841Z</time>
      </trkpt>
      <trkpt lat="44.76744" lon="0.46006">
        <ele>98.871213</ele>
        <time>2022-07-11T16:43:59.354Z</time>
      </trkpt>
      <trkpt lat="44.76732" lon="0.45988">
        <ele>99.193304</ele>
        <time>2022-07-11T16:44:03.413Z</time>
      </trkpt>
      <trkpt lat="44.76744" lon="0.46006">
        <ele>99.515394</ele>
        <time>2022-07-11T16:44:08.197Z</time>
      </trkpt>
      <trkpt lat="44.7675" lon="0.46011">
        <ele>99.636556</ele>
        <time>2022-07-11T16:44:09.847Z</time>
      </trkpt>
      <trkpt lat="44.76758" lon="0.46031">
        <ele>99.926873</ele>
        <time>2022-07-11T16:44:14.082Z</time>
      </trkpt>
      <trkpt lat="44.76758" lon="0.46076">
        <ele>100.5082</ele>
        <time>2022-07-11T16:44:23.165Z</time>
      </trkpt>
      <trkpt lat="44.76752" lon="0.46094">
        <ele>100.759087</ele>
        <time>2022-07-11T16:44:27.505Z</time>
      </trkpt>
      <trkpt lat="44.7675" lon="0.46098">
        <ele>100.821712</ele>
        <time>2022-07-11T16:44:28.609Z</time>
      </trkpt>
      <trkpt lat="44.76711" lon="0.46179">
        <ele>103.712536</ele>
        <time>2022-07-11T16:44:50.715Z</time>
      </trkpt>
      <trkpt lat="44.76538" lon="0.4654">
        <ele>117.703271</ele>
        <time>2022-07-11T16:46:49.612Z</time>
      </trkpt>
      <trkpt lat="44.76476" lon="0.4667">
        <ele>120.705344</ele>
        <time>2022-07-11T16:47:25.610Z</time>
      </trkpt>
      <trkpt lat="44.76449" lon="0.46724">
        <ele>121.968531</ele>
        <time>2022-07-11T16:47:36.570Z</time>
      </trkpt>
      <trkpt lat="44.76428" lon="0.46817">
        <ele>120.567064</ele>
        <time>2022-07-11T16:47:48.381Z</time>
      </trkpt>
      <trkpt lat="44.76426" lon="0.46825">
        <ele>120.418881</ele>
        <time>2022-07-11T16:47:49.309Z</time>
      </trkpt>
      <trkpt lat="44.76531" lon="0.46879">
        <ele>117.611373</ele>
        <time>2022-07-11T16:48:04.994Z</time>
      </trkpt>
      <trkpt lat="44.76594" lon="0.46885">
        <ele>114.522679</ele>
        <time>2022-07-11T16:48:13.332Z</time>
      </trkpt>
      <trkpt lat="44.76627" lon="0.46894">
        <ele>112.900893</ele>
        <time>2022-07-11T16:48:17.695Z</time>
      </trkpt>
      <trkpt lat="44.76699" lon="0.46947">
        <ele>108.94105</ele>
        <time>2022-07-11T16:48:28.497Z</time>
      </trkpt>
      <trkpt lat="44.76731" lon="0.46973">
        <ele>108.110186</ele>
        <time>2022-07-11T16:48:33.661Z</time>
      </trkpt>
      <trkpt lat="44.7677" lon="0.47003">
        <ele>107.16004</ele>
        <time>2022-07-11T16:48:40.002Z</time>
      </trkpt>
      <trkpt lat="44.76781" lon="0.47002">
        <ele>106.917522</ele>
        <time>2022-07-11T16:48:41.561Z</time>
      </trkpt>
      <trkpt lat="44.77065" lon="0.47062">
        <ele>104.587298</ele>
        <time>2022-07-11T16:49:29.358Z</time>
      </trkpt>
      <trkpt lat="44.77092" lon="0.47575">
        <ele>110.238824</ele>
        <time>2022-07-11T16:51:43.816Z</time>
      </trkpt>
      <trkpt lat="44.77121" lon="0.47691">
        <ele>111.427088</ele>
        <time>2022-07-11T16:52:13.777Z</time>
      </trkpt>
      <trkpt lat="44.77153" lon="0.47763">
        <ele>112.254768</ele>
        <time>2022-07-11T16:52:34.874Z</time>
      </trkpt>
      <trkpt lat="44.77199" lon="0.4797">
        <ele>113.192116</ele>
        <time>2022-07-11T16:53:27.990Z</time>
      </trkpt>
      <trkpt lat="44.77257" lon="0.48136">
        <ele>111.328218</ele>
        <time>2022-07-11T16:54:03.200Z</time>
      </trkpt>
      <trkpt lat="44.77309" lon="0.48249">
        <ele>109.542403</ele>
        <time>2022-07-11T16:54:16.793Z</time>
      </trkpt>
      <trkpt lat="44.77348" lon="0.48244">
        <ele>109.395838</ele>
        <time>2022-07-11T16:54:22.553Z</time>
      </trkpt>
      <trkpt lat="44.77353" lon="0.48245">
        <ele>109.373916</ele>
        <time>2022-07-11T16:54:23.438Z</time>
      </trkpt>
      <trkpt lat="44.77418" lon="0.48261">
        <ele>109.129796</ele>
        <time>2022-07-11T16:54:34.302Z</time>
      </trkpt>
      <trkpt lat="44.77458" lon="0.4826">
        <ele>108.979427</ele>
        <time>2022-07-11T16:54:43.855Z</time>
      </trkpt>
      <trkpt lat="44.77483" lon="0.48248">
        <ele>109.503893</ele>
        <time>2022-07-11T16:54:51.896Z</time>
      </trkpt>
      <trkpt lat="44.77533" lon="0.48225">
        <ele>112.658811</ele>
        <time>2022-07-11T16:55:12.326Z</time>
      </trkpt>
      <trkpt lat="44.77742" lon="0.48107">
        <ele>127.558434</ele>
        <time>2022-07-11T16:56:59.371Z</time>
      </trkpt>
      <trkpt lat="44.77773" lon="0.48102">
        <ele>129.912747</ele>
        <time>2022-07-11T16:57:15.457Z</time>
      </trkpt>
      <trkpt lat="44.7783" lon="0.48122">
        <ele>133.78664</ele>
        <time>2022-07-11T16:57:44.500Z</time>
      </trkpt>
      <trkpt lat="44.77859" lon="0.48117">
        <ele>135.24922</ele>
        <time>2022-07-11T16:57:57.542Z</time>
      </trkpt>
      <trkpt lat="44.77944" lon="0.48079">
        <ele>139.737836</ele>
        <time>2022-07-11T16:58:32.938Z</time>
      </trkpt>
      <trkpt lat="44.78022" lon="0.48229">
        <ele>142.267683</ele>
        <time>2022-07-11T16:59:08.683Z</time>
      </trkpt>
      <trkpt lat="44.78027" lon="0.483">
        <ele>142.468765</ele>
        <time>2022-07-11T16:59:16.860Z</time>
      </trkpt>
      <trkpt lat="44.78076" lon="0.484">
        <ele>142.629686</ele>
        <time>2022-07-11T16:59:30.330Z</time>
      </trkpt>
      <trkpt lat="44.78137" lon="0.48486">
        <ele>142.634846</ele>
        <time>2022-07-11T16:59:44.829Z</time>
      </trkpt>
      <trkpt lat="44.783" lon="0.48632">
        <ele>147.70283</ele>
        <time>2022-07-11T17:00:42.904Z</time>
      </trkpt>
      <trkpt lat="44.78322" lon="0.4864">
        <ele>148.505346</ele>
        <time>2022-07-11T17:00:52.813Z</time>
      </trkpt>
      <trkpt lat="44.78404" lon="0.48642">
        <ele>152.557203</ele>
        <time>2022-07-11T17:01:27.278Z</time>
      </trkpt>
      <trkpt lat="44.78425" lon="0.4864">
        <ele>153.619613</ele>
        <time>2022-07-11T17:01:36.244Z</time>
      </trkpt>
      <trkpt lat="44.78449" lon="0.48642">
        <ele>154.887877</ele>
        <time>2022-07-11T17:01:46.404Z</time>
      </trkpt>
      <trkpt lat="44.78507" lon="0.48656">
        <ele>157.891898</ele>
        <time>2022-07-11T17:02:08.751Z</time>
      </trkpt>
      <trkpt lat="44.78573" lon="0.48683">
        <ele>159.560881</ele>
        <time>2022-07-11T17:02:30.435Z</time>
      </trkpt>
      <trkpt lat="44.7869" lon="0.48732">
        <ele>162.147902</ele>
        <time>2022-07-11T17:02:59.823Z</time>
      </trkpt>
      <trkpt lat="44.78857" lon="0.48822">
        <ele>163.680087</ele>
        <time>2022-07-11T17:03:38.517Z</time>
      </trkpt>
      <trkpt lat="44.79013" lon="0.48908">
        <ele>164.741848</ele>
        <time>2022-07-11T17:04:14.466Z</time>
      </trkpt>
      <trkpt lat="44.79044" lon="0.4893">
        <ele>164.791945</ele>
        <time>2022-07-11T17:04:21.251Z</time>
      </trkpt>
      <trkpt lat="44.79093" lon="0.48977">
        <ele>164.79327</ele>
        <time>2022-07-11T17:04:32.108Z</time>
      </trkpt>
      <trkpt lat="44.7924" lon="0.49119">
        <ele>165.048937</ele>
        <time>2022-07-11T17:05:04.518Z</time>
      </trkpt>
      <trkpt lat="44.79282" lon="0.49144">
        <ele>165.183467</ele>
        <time>2022-07-11T17:05:12.678Z</time>
      </trkpt>
      <trkpt lat="44.79292" lon="0.49196">
        <ele>165.298036</ele>
        <time>2022-07-11T17:05:21.169Z</time>
      </trkpt>
      <trkpt lat="44.79317" lon="0.49191">
        <ele>165.518423</ele>
        <time>2022-07-11T17:05:27.771Z</time>
      </trkpt>
      <trkpt lat="44.79292" lon="0.49196">
        <ele>165.846902</ele>
        <time>2022-07-11T17:05:34.340Z</time>
      </trkpt>
      <trkpt lat="44.79282" lon="0.49144">
        <ele>166.32824</ele>
        <time>2022-07-11T17:05:44.665Z</time>
      </trkpt>
      <trkpt lat="44.79356" lon="0.49163">
        <ele>167.269545</ele>
        <time>2022-07-11T17:06:04.867Z</time>
      </trkpt>
      <trkpt lat="44.79362" lon="0.49154">
        <ele>167.382813</ele>
        <time>2022-07-11T17:06:06.743Z</time>
      </trkpt>
      <trkpt lat="44.79378" lon="0.49149">
        <ele>167.557846</ele>
        <time>2022-07-11T17:06:09.622Z</time>
      </trkpt>
      <trkpt lat="44.79384" lon="0.49149">
        <ele>167.376741</ele>
        <time>2022-07-11T17:06:10.485Z</time>
      </trkpt>
      <trkpt lat="44.794" lon="0.49162">
        <ele>166.745774</ele>
        <time>2022-07-11T17:06:13.555Z</time>
      </trkpt>
      <trkpt lat="44.79438" lon="0.49211">
        <ele>165.074243</ele>
        <time>2022-07-11T17:06:21.012Z</time>
      </trkpt>
      <trkpt lat="44.79482" lon="0.49234">
        <ele>163.521321</ele>
        <time>2022-07-11T17:06:27.274Z</time>
      </trkpt>
      <trkpt lat="44.79524" lon="0.49238">
        <ele>162.150604</ele>
        <time>2022-07-11T17:06:32.499Z</time>
      </trkpt>
      <trkpt lat="44.79588" lon="0.4921">
        <ele>158.042528</ele>
        <time>2022-07-11T17:06:40.736Z</time>
      </trkpt>
      <trkpt lat="44.79664" lon="0.49227">
        <ele>152.799195</ele>
        <time>2022-07-11T17:06:49.774Z</time>
      </trkpt>
      <trkpt lat="44.79698" lon="0.49229">
        <ele>150.459903</ele>
        <time>2022-07-11T17:06:53.893Z</time>
      </trkpt>
      <trkpt lat="44.79746" lon="0.49204">
        <ele>146.156633</ele>
        <time>2022-07-11T17:07:00.310Z</time>
      </trkpt>
      <trkpt lat="44.79781" lon="0.49195">
        <ele>142.994599</ele>
        <time>2022-07-11T17:07:04.400Z</time>
      </trkpt>
      <trkpt lat="44.79812" lon="0.49208">
        <ele>140.136674</ele>
        <time>2022-07-11T17:07:08.063Z</time>
      </trkpt>
      <trkpt lat="44.79866" lon="0.49278">
        <ele>133.560092</ele>
        <time>2022-07-11T17:07:16.352Z</time>
      </trkpt>
      <trkpt lat="44.7989" lon="0.49301">
        <ele>130.514633</ele>
        <time>2022-07-11T17:07:19.630Z</time>
      </trkpt>
      <trkpt lat="44.79909" lon="0.49304">
        <ele>128.501778</ele>
        <time>2022-07-11T17:07:21.729Z</time>
      </trkpt>
      <trkpt lat="44.79927" lon="0.49298">
        <ele>126.523007</ele>
        <time>2022-07-11T17:07:23.850Z</time>
      </trkpt>
      <trkpt lat="44.79978" lon="0.49274">
        <ele>120.806881</ele>
        <time>2022-07-11T17:07:29.823Z</time>
      </trkpt>
      <trkpt lat="44.80109" lon="0.49213">
        <ele>107.799818</ele>
        <time>2022-07-11T17:07:45.639Z</time>
      </trkpt>
      <trkpt lat="44.80226" lon="0.49192">
        <ele>97.942691</ele>
        <time>2022-07-11T17:07:59.529Z</time>
      </trkpt>
      <trkpt lat="44.80256" lon="0.49189">
        <ele>95.423852</ele>
        <time>2022-07-11T17:08:03.137Z</time>
      </trkpt>
      <trkpt lat="44.80487" lon="0.49214">
        <ele>76.933675</ele>
        <time>2022-07-11T17:08:30.079Z</time>
      </trkpt>
      <trkpt lat="44.80546" lon="0.49223">
        <ele>72.370141</ele>
        <time>2022-07-11T17:08:37.181Z</time>
      </trkpt>
      <trkpt lat="44.80591" lon="0.49222">
        <ele>69.483613</ele>
        <time>2022-07-11T17:08:42.606Z</time>
      </trkpt>
      <trkpt lat="44.80654" lon="0.49201">
        <ele>66.292779</ele>
        <time>2022-07-11T17:08:50.748Z</time>
      </trkpt>
      <trkpt lat="44.80722" lon="0.49201">
        <ele>63.002163</ele>
        <time>2022-07-11T17:08:59.573Z</time>
      </trkpt>
      <trkpt lat="44.80822" lon="0.49224">
        <ele>59.582553</ele>
        <time>2022-07-11T17:09:13.417Z</time>
      </trkpt>
      <trkpt lat="44.80926" lon="0.49264">
        <ele>56.560769</ele>
        <time>2022-07-11T17:09:28.676Z</time>
      </trkpt>
      <trkpt lat="44.80961" lon="0.49271">
        <ele>55.947443</ele>
        <time>2022-07-11T17:09:33.844Z</time>
      </trkpt>
      <trkpt lat="44.80976" lon="0.49273">
        <ele>55.677054</ele>
        <time>2022-07-11T17:09:36.160Z</time>
      </trkpt>
      <trkpt lat="44.81083" lon="0.49278">
        <ele>53.82939</ele>
        <time>2022-07-11T17:09:52.147Z</time>
      </trkpt>
      <trkpt lat="44.81293" lon="0.49229">
        <ele>51.05714</ele>
        <time>2022-07-11T17:10:25.111Z</time>
      </trkpt>
      <trkpt lat="44.81457" lon="0.49213">
        <ele>49.716416</ele>
        <time>2022-07-11T17:10:51.929Z</time>
      </trkpt>
      <trkpt lat="44.81604" lon="0.49196">
        <ele>48.733467</ele>
        <time>2022-07-11T17:11:16.260Z</time>
      </trkpt>
      <trkpt lat="44.81807" lon="0.49205">
        <ele>47.537646</ele>
        <time>2022-07-11T17:11:50.021Z</time>
      </trkpt>
      <trkpt lat="44.81834" lon="0.492">
        <ele>47.399753</ele>
        <time>2022-07-11T17:11:54.469Z</time>
      </trkpt>
      <trkpt lat="44.8194" lon="0.49135">
        <ele>46.864595</ele>
        <time>2022-07-11T17:12:13.771Z</time>
      </trkpt>
      <trkpt lat="44.82186" lon="0.49026">
        <ele>45.975641</ele>
        <time>2022-07-11T17:12:57.787Z</time>
      </trkpt>
      <trkpt lat="44.82206" lon="0.49004">
        <ele>45.929946</ele>
        <time>2022-07-11T17:13:02.189Z</time>
      </trkpt>
      <trkpt lat="44.82232" lon="0.48955">
        <ele>45.850922</ele>
        <time>2022-07-11T17:13:09.817Z</time>
      </trkpt>
      <trkpt lat="44.82267" lon="0.48901">
        <ele>45.757575</ele>
        <time>2022-07-11T17:13:18.754Z</time>
      </trkpt>
      <trkpt lat="44.82293" lon="0.48879">
        <ele>45.702147</ele>
        <time>2022-07-11T17:13:24.110Z</time>
      </trkpt>
      <trkpt lat="44.82319" lon="0.48864">
        <ele>45.692297</ele>
        <time>2022-07-11T17:13:28.963Z</time>
      </trkpt>
      <trkpt lat="44.82379" lon="0.48844">
        <ele>45.673116</ele>
        <time>2022-07-11T17:13:39.858Z</time>
      </trkpt>
      <trkpt lat="44.82577" lon="0.48782">
        <ele>45.678599</ele>
        <time>2022-07-11T17:14:16.511Z</time>
      </trkpt>
      <trkpt lat="44.8261" lon="0.48781">
        <ele>45.688421</ele>
        <time>2022-07-11T17:14:22.514Z</time>
      </trkpt>
      <trkpt lat="44.82611" lon="0.48782">
        <ele>45.688803</ele>
        <time>2022-07-11T17:14:22.744Z</time>
      </trkpt>
      <trkpt lat="44.82622" lon="0.48787">
        <ele>45.692374</ele>
        <time>2022-07-11T17:14:24.888Z</time>
      </trkpt>
      <trkpt lat="44.82633" lon="0.48784">
        <ele>45.695936</ele>
        <time>2022-07-11T17:14:27.033Z</time>
      </trkpt>
      <trkpt lat="44.82641" lon="0.48772">
        <ele>45.688557</ele>
        <time>2022-07-11T17:14:29.076Z</time>
      </trkpt>
      <trkpt lat="44.8267" lon="0.48755">
        <ele>45.336282</ele>
        <time>2022-07-11T17:14:34.419Z</time>
      </trkpt>
      <trkpt lat="44.82728" lon="0.4874">
        <ele>44.660493</ele>
        <time>2022-07-11T17:14:44.129Z</time>
      </trkpt>
      <trkpt lat="44.82785" lon="0.48747">
        <ele>44.010462</ele>
        <time>2022-07-11T17:14:52.818Z</time>
      </trkpt>
      <trkpt lat="44.82845" lon="0.48748">
        <ele>42.921036</ele>
        <time>2022-07-11T17:15:01.508Z</time>
      </trkpt>
      <trkpt lat="44.82911" lon="0.48715">
        <ele>41.11868</ele>
        <time>2022-07-11T17:15:11.384Z</time>
      </trkpt>
      <trkpt lat="44.82978" lon="0.48701">
        <ele>39.377</ele>
        <time>2022-07-11T17:15:20.748Z</time>
      </trkpt>
      <trkpt lat="44.83222" lon="0.48683">
        <ele>34.465708</ele>
        <time>2022-07-11T17:15:55.877Z</time>
      </trkpt>
      <trkpt lat="44.8354" lon="0.48678">
        <ele>32.701574</ele>
        <time>2022-07-11T17:16:50.309Z</time>
      </trkpt>
      <trkpt lat="44.83569" lon="0.48662">
        <ele>32.626296</ele>
        <time>2022-07-11T17:16:55.660Z</time>
      </trkpt>
      <trkpt lat="44.83628" lon="0.48591">
        <ele>32.443662</ele>
        <time>2022-07-11T17:17:08.833Z</time>
      </trkpt>
      <trkpt lat="44.83654" lon="0.48559">
        <ele>32.362328</ele>
        <time>2022-07-11T17:17:14.771Z</time>
      </trkpt>
      <trkpt lat="44.83665" lon="0.48547">
        <ele>32.328239</ele>
        <time>2022-07-11T17:17:17.258Z</time>
      </trkpt>
      <trkpt lat="44.83673" lon="0.48538">
        <ele>32.305666</ele>
        <time>2022-07-11T17:17:18.918Z</time>
      </trkpt>
      <trkpt lat="44.83857" lon="0.48428">
        <ele>32.490146</ele>
        <time>2022-07-11T17:17:55.864Z</time>
      </trkpt>
      <trkpt lat="44.8397" lon="0.48364">
        <ele>32.314349</ele>
        <time>2022-07-11T17:18:17.174Z</time>
      </trkpt>
      <trkpt lat="44.83976" lon="0.48362">
        <ele>32.306081</ele>
        <time>2022-07-11T17:18:18.155Z</time>
      </trkpt>
      <trkpt lat="44.84009" lon="0.48349">
        <ele>32.255752</ele>
        <time>2022-07-11T17:18:24.003Z</time>
      </trkpt>
      <trkpt lat="44.84136" lon="0.48318">
        <ele>32.175598</ele>
        <time>2022-07-11T17:18:46.461Z</time>
      </trkpt>
      <trkpt lat="44.84188" lon="0.48319">
        <ele>32.14365</ele>
        <time>2022-07-11T17:18:56.172Z</time>
      </trkpt>
      <trkpt lat="44.84198" lon="0.48322">
        <ele>32.16795</ele>
        <time>2022-07-11T17:18:58.085Z</time>
      </trkpt>
      <trkpt lat="44.84247" lon="0.48327">
        <ele>32.288226</ele>
        <time>2022-07-11T17:19:07.459Z</time>
      </trkpt>
      <trkpt lat="44.84316" lon="0.4832">
        <ele>32.455584</ele>
        <time>2022-07-11T17:19:20.910Z</time>
      </trkpt>
      <trkpt lat="44.84444" lon="0.48316">
        <ele>32.594978</ele>
        <time>2022-07-11T17:19:43.710Z</time>
      </trkpt>
      <trkpt lat="44.84452" lon="0.48334">
        <ele>32.597401</ele>
        <time>2022-07-11T17:19:46.543Z</time>
      </trkpt>
      <trkpt lat="44.84466" lon="0.48318">
        <ele>32.60034</ele>
        <time>2022-07-11T17:19:49.599Z</time>
      </trkpt>
      <trkpt lat="44.84478" lon="0.48303">
        <ele>32.602958</ele>
        <time>2022-07-11T17:19:52.519Z</time>
      </trkpt>
      <trkpt lat="44.84565" lon="0.48258">
        <ele>32.37678</ele>
        <time>2022-07-11T17:20:09.480Z</time>
      </trkpt>
      <trkpt lat="44.84578" lon="0.48251">
        <ele>32.282624</ele>
        <time>2022-07-11T17:20:12.247Z</time>
      </trkpt>
      <trkpt lat="44.84635" lon="0.48223">
        <ele>31.902315</ele>
        <time>2022-07-11T17:20:21.805Z</time>
      </trkpt>
      <trkpt lat="44.84645" lon="0.48218">
        <ele>31.83586</ele>
        <time>2022-07-11T17:20:23.534Z</time>
      </trkpt>
      <trkpt lat="44.84679" lon="0.48199">
        <ele>31.603442</ele>
        <time>2022-07-11T17:20:29.340Z</time>
      </trkpt>
      <trkpt lat="44.84691" lon="0.48201">
        <ele>31.526373</ele>
        <time>2022-07-11T17:20:31.219Z</time>
      </trkpt>
      <trkpt lat="44.84698" lon="0.4821">
        <ele>31.457369</ele>
        <time>2022-07-11T17:20:32.744Z</time>
      </trkpt>
      <trkpt lat="44.84702" lon="0.48208">
        <ele>31.400798</ele>
        <time>2022-07-11T17:20:33.513Z</time>
      </trkpt>
      <trkpt lat="44.84708" lon="0.48219">
        <ele>31.282388</ele>
        <time>2022-07-11T17:20:34.992Z</time>
      </trkpt>
      <trkpt lat="44.84724" lon="0.48239">
        <ele>30.997966</ele>
        <time>2022-07-11T17:20:38.359Z</time>
      </trkpt>
      <trkpt lat="44.8475" lon="0.4827">
        <ele>30.553822</ele>
        <time>2022-07-11T17:20:43.683Z</time>
      </trkpt>
      <trkpt lat="44.84858" lon="0.48402">
        <ele>29.039426</ele>
        <time>2022-07-11T17:21:05.404Z</time>
      </trkpt>
      <trkpt lat="44.8486" lon="0.48404">
        <ele>29.03404</ele>
        <time>2022-07-11T17:21:05.765Z</time>
      </trkpt>
      <trkpt lat="44.8486" lon="0.48404">
        <ele>29.032857</ele>
        <time>2022-07-11T17:21:05.856Z</time>
      </trkpt>
      <trkpt lat="44.84871" lon="0.48389">
        <ele>28.993317</ele>
        <time>2022-07-11T17:21:08.537Z</time>
      </trkpt>
      <trkpt lat="44.84905" lon="0.48332">
        <ele>28.858929</ele>
        <time>2022-07-11T17:21:18.571Z</time>
      </trkpt>
      <trkpt lat="44.84871" lon="0.48389">
        <ele>28.72454</ele>
        <time>2022-07-11T17:21:28.193Z</time>
      </trkpt>
      <trkpt lat="44.8486" lon="0.48404">
        <ele>28.685</ele>
        <time>2022-07-11T17:21:31.449Z</time>
      </trkpt>
      <trkpt lat="44.8486" lon="0.48404">
        <ele>28.683817</ele>
        <time>2022-07-11T17:21:31.532Z</time>
      </trkpt>
      <trkpt lat="44.84858" lon="0.48402">
        <ele>28.678432</ele>
        <time>2022-07-11T17:21:31.957Z</time>
      </trkpt>
      <trkpt lat="44.8475" lon="0.4827">
        <ele>29.696096</ele>
        <time>2022-07-11T17:22:02.480Z</time>
      </trkpt>
      <trkpt lat="44.84724" lon="0.48239">
        <ele>29.949533</ele>
        <time>2022-07-11T17:22:09.522Z</time>
      </trkpt>
      <trkpt lat="44.84737" lon="0.48217">
        <ele>30.059673</ele>
        <time>2022-07-11T17:22:13.742Z</time>
      </trkpt>
      <trkpt lat="44.84744" lon="0.48203">
        <ele>30.111724</ele>
        <time>2022-07-11T17:22:16.358Z</time>
      </trkpt>
      <trkpt lat="44.84764" lon="0.48171">
        <ele>30.240325</ele>
        <time>2022-07-11T17:22:22.778Z</time>
      </trkpt>
      <trkpt lat="44.84775" lon="0.48158">
        <ele>30.303754</ele>
        <time>2022-07-11T17:22:25.994Z</time>
      </trkpt>
      <trkpt lat="44.84782" lon="0.48149">
        <ele>30.344267</ele>
        <time>2022-07-11T17:22:28.117Z</time>
      </trkpt>
      <trkpt lat="44.84814" lon="0.48098">
        <ele>30.547732</ele>
        <time>2022-07-11T17:22:38.403Z</time>
      </trkpt>
      <trkpt lat="44.8483" lon="0.48058">
        <ele>30.689454</ele>
        <time>2022-07-11T17:22:44.422Z</time>
      </trkpt>
      <trkpt lat="44.84849" lon="0.47989">
        <ele>30.741354</ele>
        <time>2022-07-11T17:22:53.568Z</time>
      </trkpt>
      <trkpt lat="44.8486" lon="0.47959">
        <ele>30.718909</ele>
        <time>2022-07-11T17:22:57.939Z</time>
      </trkpt>
      <trkpt lat="44.84872" lon="0.47925">
        <ele>30.693014</ele>
        <time>2022-07-11T17:23:02.978Z</time>
      </trkpt>
      <trkpt lat="44.84902" lon="0.47843">
        <ele>30.632003</ele>
        <time>2022-07-11T17:23:15.005Z</time>
      </trkpt>
      <trkpt lat="44.84906" lon="0.47796">
        <ele>30.607773</ele>
        <time>2022-07-11T17:23:21.220Z</time>
      </trkpt>
      <trkpt lat="44.84899" lon="0.4778">
        <ele>30.633378</ele>
        <time>2022-07-11T17:23:23.771Z</time>
      </trkpt>
      <trkpt lat="44.84897" lon="0.4775">
        <ele>30.671969</ele>
        <time>2022-07-11T17:23:27.626Z</time>
      </trkpt>
      <trkpt lat="44.84892" lon="0.47697">
        <ele>30.741761</ele>
        <time>2022-07-11T17:23:34.690Z</time>
      </trkpt>
      <trkpt lat="44.84884" lon="0.4764">
        <ele>30.818658</ele>
        <time>2022-07-11T17:23:43.217Z</time>
      </trkpt>
      <trkpt lat="44.84883" lon="0.47633">
        <ele>30.827219</ele>
        <time>2022-07-11T17:23:44.180Z</time>
      </trkpt>
      <trkpt lat="44.84867" lon="0.47589">
        <ele>30.891486</ele>
        <time>2022-07-11T17:23:51.621Z</time>
      </trkpt>
      <trkpt lat="44.84844" lon="0.47548">
        <ele>30.862058</ele>
        <time>2022-07-11T17:23:58.521Z</time>
      </trkpt>
      <trkpt lat="44.84812" lon="0.47466">
        <ele>30.520552</ele>
        <time>2022-07-11T17:24:09.559Z</time>
      </trkpt>
      <trkpt lat="44.84794" lon="0.47421">
        <ele>30.328799</ele>
        <time>2022-07-11T17:24:15.590Z</time>
      </trkpt>
      <trkpt lat="44.84776" lon="0.47379">
        <ele>30.151017</ele>
        <time>2022-07-11T17:24:21.185Z</time>
      </trkpt>
      <trkpt lat="44.84761" lon="0.47337">
        <ele>29.99125</ele>
        <time>2022-07-11T17:24:26.635Z</time>
      </trkpt>
      <trkpt lat="44.84739" lon="0.47286">
        <ele>29.882266</ele>
        <time>2022-07-11T17:24:33.459Z</time>
      </trkpt>
      <trkpt lat="44.84724" lon="0.47248">
        <ele>29.802069</ele>
        <time>2022-07-11T17:24:38.502Z</time>
      </trkpt>
      <trkpt lat="44.84715" lon="0.47225">
        <ele>29.754456</ele>
        <time>2022-07-11T17:24:41.533Z</time>
      </trkpt>
      <trkpt lat="44.84687" lon="0.47162">
        <ele>29.617386</ele>
        <time>2022-07-11T17:24:50.656Z</time>
      </trkpt>
      <trkpt lat="44.8461" lon="0.47201">
        <ele>30.066137</ele>
        <time>2022-07-11T17:25:08.308Z</time>
      </trkpt>
      <trkpt lat="44.84595" lon="0.47175">
        <ele>30.31186</ele>
        <time>2022-07-11T17:25:13.931Z</time>
      </trkpt>
      <trkpt lat="44.84562" lon="0.47142">
        <ele>30.731807</ele>
        <time>2022-07-11T17:25:23.792Z</time>
      </trkpt>
      <trkpt lat="44.84543" lon="0.47123">
        <ele>30.979809</ele>
        <time>2022-07-11T17:25:29.761Z</time>
      </trkpt>
      <trkpt lat="44.84516" lon="0.471">
        <ele>31.302279</ele>
        <time>2022-07-11T17:25:37.232Z</time>
      </trkpt>
      <trkpt lat="44.84483" lon="0.47078">
        <ele>31.476997</ele>
        <time>2022-07-11T17:25:44.970Z</time>
      </trkpt>
      <trkpt lat="44.84426" lon="0.47041">
        <ele>31.660159</ele>
        <time>2022-07-11T17:25:57.209Z</time>
      </trkpt>
      <trkpt lat="44.84418" lon="0.47036">
        <ele>31.686178</ele>
        <time>2022-07-11T17:25:58.894Z</time>
      </trkpt>
      <trkpt lat="44.84408" lon="0.47031">
        <ele>31.718859</ele>
        <time>2022-07-11T17:26:00.986Z</time>
      </trkpt>
      <trkpt lat="44.84391" lon="0.47021">
        <ele>31.77256</ele>
        <time>2022-07-11T17:26:04.436Z</time>
      </trkpt>
      <trkpt lat="44.84373" lon="0.46979">
        <ele>31.873964</ele>
        <time>2022-07-11T17:26:10.517Z</time>
      </trkpt>
      <trkpt lat="44.84359" lon="0.46947">
        <ele>31.903878</ele>
        <time>2022-07-11T17:26:15.284Z</time>
      </trkpt>
      <trkpt lat="44.8433" lon="0.46883">
        <ele>31.792798</ele>
        <time>2022-07-11T17:26:25.407Z</time>
      </trkpt>
      <trkpt lat="44.84295" lon="0.46806">
        <ele>31.66054</ele>
        <time>2022-07-11T17:26:36.366Z</time>
      </trkpt>
      <trkpt lat="44.84259" lon="0.46724">
        <ele>31.429702</ele>
        <time>2022-07-11T17:26:47.942Z</time>
      </trkpt>
      <trkpt lat="44.84254" lon="0.46711">
        <ele>31.353191</ele>
        <time>2022-07-11T17:26:49.684Z</time>
      </trkpt>
      <trkpt lat="44.84241" lon="0.46681">
        <ele>31.168446</ele>
        <time>2022-07-11T17:26:53.801Z</time>
      </trkpt>
      <trkpt lat="44.84222" lon="0.4664">
        <ele>30.911882</ele>
        <time>2022-07-11T17:26:59.476Z</time>
      </trkpt>
      <trkpt lat="44.84203" lon="0.46595">
        <ele>30.633872</ele>
        <time>2022-07-11T17:27:05.629Z</time>
      </trkpt>
      <trkpt lat="44.8417" lon="0.46521">
        <ele>30.190956</ele>
        <time>2022-07-11T17:27:15.493Z</time>
      </trkpt>
      <trkpt lat="44.84161" lon="0.46505">
        <ele>30.121608</ele>
        <time>2022-07-11T17:27:17.762Z</time>
      </trkpt>
      <trkpt lat="44.84152" lon="0.46495">
        <ele>30.070488</ele>
        <time>2022-07-11T17:27:19.463Z</time>
      </trkpt>
      <trkpt lat="44.84154" lon="0.4648">
        <ele>30.018613</ele>
        <time>2022-07-11T17:27:21.156Z</time>
      </trkpt>
      <trkpt lat="44.84149" lon="0.46474">
        <ele>29.990072</ele>
        <time>2022-07-11T17:27:22.100Z</time>
      </trkpt>
      <trkpt lat="44.84144" lon="0.46472">
        <ele>29.961339</ele>
        <time>2022-07-11T17:27:23.033Z</time>
      </trkpt>
      <trkpt lat="44.84141" lon="0.46454">
        <ele>29.899019</ele>
        <time>2022-07-11T17:27:25.143Z</time>
      </trkpt>
      <trkpt lat="44.84128" lon="0.46425">
        <ele>29.785701</ele>
        <time>2022-07-11T17:27:28.950Z</time>
      </trkpt>
      <trkpt lat="44.84123" lon="0.46413">
        <ele>29.73757</ele>
        <time>2022-07-11T17:27:30.664Z</time>
      </trkpt>
      <trkpt lat="44.84083" lon="0.46323">
        <ele>29.379418</ele>
        <time>2022-07-11T17:27:44.264Z</time>
      </trkpt>
      <trkpt lat="44.8407" lon="0.46294">
        <ele>29.428866</ele>
        <time>2022-07-11T17:27:48.885Z</time>
      </trkpt>
      <trkpt lat="44.8404" lon="0.46227">
        <ele>29.594495</ele>
        <time>2022-07-11T17:27:59.945Z</time>
      </trkpt>
      <trkpt lat="44.84037" lon="0.4622">
        <ele>29.610919</ele>
        <time>2022-07-11T17:28:01.015Z</time>
      </trkpt>
      <trkpt lat="44.84031" lon="0.46205">
        <ele>29.647841</ele>
        <time>2022-07-11T17:28:03.358Z</time>
      </trkpt>
      <trkpt lat="44.84021" lon="0.46184">
        <ele>29.699336</ele>
        <time>2022-07-11T17:28:06.602Z</time>
      </trkpt>
      <trkpt lat="44.84017" lon="0.46174">
        <ele>29.722366</ele>
        <time>2022-07-11T17:28:08.078Z</time>
      </trkpt>
      <trkpt lat="44.83996" lon="0.46127">
        <ele>29.83925</ele>
        <time>2022-07-11T17:28:15.475Z</time>
      </trkpt>
      <trkpt lat="44.83978" lon="0.46086">
        <ele>29.943802</ele>
        <time>2022-07-11T17:28:22.059Z</time>
      </trkpt>
      <trkpt lat="44.83977" lon="0.46083">
        <ele>29.949948</ele>
        <time>2022-07-11T17:28:22.431Z</time>
      </trkpt>
      <trkpt lat="44.83934" lon="0.45986">
        <ele>30.209505</ele>
        <time>2022-07-11T17:28:38.260Z</time>
      </trkpt>
      <trkpt lat="44.83858" lon="0.45812">
        <ele>30.614954</ele>
        <time>2022-07-11T17:29:05.587Z</time>
      </trkpt>
      <trkpt lat="44.83819" lon="0.45724">
        <ele>30.780397</ele>
        <time>2022-07-11T17:29:19.658Z</time>
      </trkpt>
      <trkpt lat="44.83811" lon="0.45707">
        <ele>30.812559</ele>
        <time>2022-07-11T17:29:22.204Z</time>
      </trkpt>
      <trkpt lat="44.83802" lon="0.45686">
        <ele>30.851099</ele>
        <time>2022-07-11T17:29:25.433Z</time>
      </trkpt>
      <trkpt lat="44.838" lon="0.4568">
        <ele>30.862824</ele>
        <time>2022-07-11T17:29:26.372Z</time>
      </trkpt>
      <trkpt lat="44.83797" lon="0.45674">
        <ele>30.874024</ele>
        <time>2022-07-11T17:29:27.238Z</time>
      </trkpt>
      <trkpt lat="44.83773" lon="0.45622">
        <ele>30.897694</ele>
        <time>2022-07-11T17:29:35.072Z</time>
      </trkpt>
      <trkpt lat="44.83778" lon="0.45607">
        <ele>30.903601</ele>
        <time>2022-07-11T17:29:37.150Z</time>
      </trkpt>
      <trkpt lat="44.83774" lon="0.45596">
        <ele>30.908444</ele>
        <time>2022-07-11T17:29:38.871Z</time>
      </trkpt>
      <trkpt lat="44.83771" lon="0.45594">
        <ele>30.910009</ele>
        <time>2022-07-11T17:29:39.398Z</time>
      </trkpt>
      <trkpt lat="44.83762" lon="0.45595">
        <ele>30.914483</ele>
        <time>2022-07-11T17:29:40.899Z</time>
      </trkpt>
      <trkpt lat="44.83724" lon="0.45507">
        <ele>30.953183</ele>
        <time>2022-07-11T17:29:54.120Z</time>
      </trkpt>
      <trkpt lat="44.83697" lon="0.45445">
        <ele>30.968413</ele>
        <time>2022-07-11T17:30:03.369Z</time>
      </trkpt>
      <trkpt lat="44.83701" lon="0.45437">
        <ele>30.968223</ele>
        <time>2022-07-11T17:30:04.661Z</time>
      </trkpt>
      <trkpt lat="44.837" lon="0.45423">
        <ele>30.967946</ele>
        <time>2022-07-11T17:30:06.414Z</time>
      </trkpt>
      <trkpt lat="44.83691" lon="0.45417">
        <ele>30.967683</ele>
        <time>2022-07-11T17:30:08.053Z</time>
      </trkpt>
      <trkpt lat="44.83685" lon="0.45418">
        <ele>30.9675</ele>
        <time>2022-07-11T17:30:09.162Z</time>
      </trkpt>
      <trkpt lat="44.8364" lon="0.45317">
        <ele>30.965129</ele>
        <time>2022-07-11T17:30:24.334Z</time>
      </trkpt>
      <trkpt lat="44.83628" lon="0.4529">
        <ele>30.964511</ele>
        <time>2022-07-11T17:30:28.232Z</time>
      </trkpt>
      <trkpt lat="44.83602" lon="0.45229">
        <ele>30.926722</ele>
        <time>2022-07-11T17:30:37.381Z</time>
      </trkpt>
      <trkpt lat="44.83541" lon="0.45086">
        <ele>30.789198</ele>
        <time>2022-07-11T17:30:58.202Z</time>
      </trkpt>
      <trkpt lat="44.83544" lon="0.45078">
        <ele>30.781631</ele>
        <time>2022-07-11T17:30:59.396Z</time>
      </trkpt>
      <trkpt lat="44.83542" lon="0.45065">
        <ele>30.770502</ele>
        <time>2022-07-11T17:31:01.106Z</time>
      </trkpt>
      <trkpt lat="44.83529" lon="0.45062">
        <ele>30.755541</ele>
        <time>2022-07-11T17:31:03.226Z</time>
      </trkpt>
      <trkpt lat="44.83514" lon="0.4503">
        <ele>30.661653</ele>
        <time>2022-07-11T17:31:07.781Z</time>
      </trkpt>
      <trkpt lat="44.83483" lon="0.4496">
        <ele>30.451557</ele>
        <time>2022-07-11T17:31:17.730Z</time>
      </trkpt>
      <trkpt lat="44.83464" lon="0.44906">
        <ele>30.300852</ele>
        <time>2022-07-11T17:31:24.963Z</time>
      </trkpt>
      <trkpt lat="44.83462" lon="0.44884">
        <ele>30.244695</ele>
        <time>2022-07-11T17:31:27.575Z</time>
      </trkpt>
      <trkpt lat="44.83465" lon="0.44876">
        <ele>30.221929</ele>
        <time>2022-07-11T17:31:28.694Z</time>
      </trkpt>
      <trkpt lat="44.83463" lon="0.44845">
        <ele>30.143438</ele>
        <time>2022-07-11T17:31:32.439Z</time>
      </trkpt>
      <trkpt lat="44.83457" lon="0.44835">
        <ele>30.117449</ele>
        <time>2022-07-11T17:31:33.968Z</time>
      </trkpt>
      <trkpt lat="44.83441" lon="0.44826">
        <ele>30.133651</ele>
        <time>2022-07-11T17:31:37.008Z</time>
      </trkpt>
      <trkpt lat="44.83421" lon="0.44813">
        <ele>30.153699</ele>
        <time>2022-07-11T17:31:40.748Z</time>
      </trkpt>
      <trkpt lat="44.83392" lon="0.44756">
        <ele>30.199659</ele>
        <time>2022-07-11T17:31:49.374Z</time>
      </trkpt>
      <trkpt lat="44.83375" lon="0.44692">
        <ele>30.244762</ele>
        <time>2022-07-11T17:31:58.125Z</time>
      </trkpt>
      <trkpt lat="44.83365" lon="0.44608">
        <ele>30.386868</ele>
        <time>2022-07-11T17:32:10.842Z</time>
      </trkpt>
      <trkpt lat="44.83298" lon="0.44616">
        <ele>30.752316</ele>
        <time>2022-07-11T17:32:25.248Z</time>
      </trkpt>
      <trkpt lat="44.83271" lon="0.44529">
        <ele>31.114639</ele>
        <time>2022-07-11T17:32:38.829Z</time>
      </trkpt>
      <trkpt lat="44.8327" lon="0.44525">
        <ele>31.133579</ele>
        <time>2022-07-11T17:32:39.473Z</time>
      </trkpt>
      <trkpt lat="44.83268" lon="0.44517">
        <ele>31.163711</ele>
        <time>2022-07-11T17:32:40.572Z</time>
      </trkpt>
      <trkpt lat="44.83265" lon="0.44507">
        <ele>31.20772</ele>
        <time>2022-07-11T17:32:42.184Z</time>
      </trkpt>
      <trkpt lat="44.83258" lon="0.44461">
        <ele>31.364911</ele>
        <time>2022-07-11T17:32:48.611Z</time>
      </trkpt>
      <trkpt lat="44.83256" lon="0.44422">
        <ele>31.494547</ele>
        <time>2022-07-11T17:32:54.360Z</time>
      </trkpt>
      <trkpt lat="44.83255" lon="0.44388">
        <ele>31.604013</ele>
        <time>2022-07-11T17:32:59.457Z</time>
      </trkpt>
      <trkpt lat="44.8325" lon="0.44357">
        <ele>31.705437</ele>
        <time>2022-07-11T17:33:04.152Z</time>
      </trkpt>
      <trkpt lat="44.83239" lon="0.44333">
        <ele>31.798927</ele>
        <time>2022-07-11T17:33:08.457Z</time>
      </trkpt>
      <trkpt lat="44.832" lon="0.44305">
        <ele>31.999825</ele>
        <time>2022-07-11T17:33:17.239Z</time>
      </trkpt>
      <trkpt lat="44.83186" lon="0.44294">
        <ele>32.073741</ele>
        <time>2022-07-11T17:33:20.471Z</time>
      </trkpt>
      <trkpt lat="44.8316" lon="0.44276">
        <ele>32.133319</ele>
        <time>2022-07-11T17:33:26.232Z</time>
      </trkpt>
      <trkpt lat="44.83151" lon="0.44269">
        <ele>32.15524</ele>
        <time>2022-07-11T17:33:28.358Z</time>
      </trkpt>
      <trkpt lat="44.83137" lon="0.44259">
        <ele>32.187318</ele>
        <time>2022-07-11T17:33:31.496Z</time>
      </trkpt>
      <trkpt lat="44.83129" lon="0.44253">
        <ele>32.204825</ele>
        <time>2022-07-11T17:33:33.196Z</time>
      </trkpt>
      <trkpt lat="44.831" lon="0.44232">
        <ele>32.271982</ele>
        <time>2022-07-11T17:33:39.673Z</time>
      </trkpt>
      <trkpt lat="44.83089" lon="0.44224">
        <ele>32.296956</ele>
        <time>2022-07-11T17:33:41.999Z</time>
      </trkpt>
      <trkpt lat="44.83062" lon="0.44205">
        <ele>32.357501</ele>
        <time>2022-07-11T17:33:47.832Z</time>
      </trkpt>
      <trkpt lat="44.83036" lon="0.44186">
        <ele>32.417373</ele>
        <time>2022-07-11T17:33:53.608Z</time>
      </trkpt>
      <trkpt lat="44.8302" lon="0.44175">
        <ele>32.4262</ele>
        <time>2022-07-11T17:33:56.761Z</time>
      </trkpt>
      <trkpt lat="44.83007" lon="0.44166">
        <ele>32.381252</ele>
        <time>2022-07-11T17:33:59.659Z</time>
      </trkpt>
      <trkpt lat="44.82968" lon="0.44138">
        <ele>32.255559</ele>
        <time>2022-07-11T17:34:07.344Z</time>
      </trkpt>
      <trkpt lat="44.82957" lon="0.4413">
        <ele>32.21967</ele>
        <time>2022-07-11T17:34:09.478Z</time>
      </trkpt>
      <trkpt lat="44.82906" lon="0.44094">
        <ele>32.054773</ele>
        <time>2022-07-11T17:34:19.390Z</time>
      </trkpt>
      <trkpt lat="44.82867" lon="0.44067">
        <ele>31.931252</ele>
        <time>2022-07-11T17:34:26.894Z</time>
      </trkpt>
      <trkpt lat="44.82855" lon="0.44055">
        <ele>31.98159</ele>
        <time>2022-07-11T17:34:29.470Z</time>
      </trkpt>
      <trkpt lat="44.82731" lon="0.43939">
        <ele>32.745583</ele>
        <time>2022-07-11T17:34:59.513Z</time>
      </trkpt>
      <trkpt lat="44.82615" lon="0.43928">
        <ele>34.378607</ele>
        <time>2022-07-11T17:35:29.325Z</time>
      </trkpt>
      <trkpt lat="44.82581" lon="0.4392">
        <ele>34.925026</ele>
        <time>2022-07-11T17:35:38.322Z</time>
      </trkpt>
      <trkpt lat="44.82548" lon="0.43903">
        <ele>35.476927</ele>
        <time>2022-07-11T17:35:47.282Z</time>
      </trkpt>
      <trkpt lat="44.82447" lon="0.43835">
        <ele>36.83243</ele>
        <time>2022-07-11T17:36:13.593Z</time>
      </trkpt>
      <trkpt lat="44.82427" lon="0.43832">
        <ele>37.072173</ele>
        <time>2022-07-11T17:36:18.468Z</time>
      </trkpt>
      <trkpt lat="44.82376" lon="0.43824">
        <ele>37.665732</ele>
        <time>2022-07-11T17:36:29.714Z</time>
      </trkpt>
      <trkpt lat="44.82349" lon="0.43789">
        <ele>38.046826</ele>
        <time>2022-07-11T17:36:37.511Z</time>
      </trkpt>
      <trkpt lat="44.8229" lon="0.4369">
        <ele>38.968434</ele>
        <time>2022-07-11T17:36:57.698Z</time>
      </trkpt>
      <trkpt lat="44.82262" lon="0.43658">
        <ele>39.329752</ele>
        <time>2022-07-11T17:37:06.173Z</time>
      </trkpt>
      <trkpt lat="44.82257" lon="0.43655">
        <ele>39.380976</ele>
        <time>2022-07-11T17:37:07.373Z</time>
      </trkpt>
      <trkpt lat="44.82247" lon="0.43651">
        <ele>39.48751</ele>
        <time>2022-07-11T17:37:09.879Z</time>
      </trkpt>
      <trkpt lat="44.82231" lon="0.4365">
        <ele>39.638966</ele>
        <time>2022-07-11T17:37:13.896Z</time>
      </trkpt>
      <trkpt lat="44.8222" lon="0.4365">
        <ele>39.735845</ele>
        <time>2022-07-11T17:37:16.607Z</time>
      </trkpt>
      <trkpt lat="44.82193" lon="0.43648">
        <ele>39.970259</ele>
        <time>2022-07-11T17:37:23.115Z</time>
      </trkpt>
      <trkpt lat="44.82184" lon="0.43647">
        <ele>40.047324</ele>
        <time>2022-07-11T17:37:25.179Z</time>
      </trkpt>
      <trkpt lat="44.82166" lon="0.43646">
        <ele>40.199492</ele>
        <time>2022-07-11T17:37:29.192Z</time>
      </trkpt>
      <trkpt lat="44.82152" lon="0.43645">
        <ele>40.320776</ele>
        <time>2022-07-11T17:37:32.290Z</time>
      </trkpt>
      <trkpt lat="44.82133" lon="0.43644">
        <ele>40.490258</ele>
        <time>2022-07-11T17:37:36.415Z</time>
      </trkpt>
      <trkpt lat="44.82092" lon="0.43639">
        <ele>40.842331</ele>
        <time>2022-07-11T17:37:44.904Z</time>
      </trkpt>
      <trkpt lat="44.82091" lon="0.43593">
        <ele>41.126897</ele>
        <time>2022-07-11T17:37:51.656Z</time>
      </trkpt>
      <trkpt lat="44.82091" lon="0.43577">
        <ele>41.156323</ele>
        <time>2022-07-11T17:37:53.855Z</time>
      </trkpt>
      <trkpt lat="44.82091" lon="0.43557">
        <ele>41.187202</ele>
        <time>2022-07-11T17:37:56.799Z</time>
      </trkpt>
      <trkpt lat="44.8209" lon="0.43531">
        <ele>41.22465</ele>
        <time>2022-07-11T17:38:00.375Z</time>
      </trkpt>
      <trkpt lat="44.8209" lon="0.43509">
        <ele>41.25763</ele>
        <time>2022-07-11T17:38:03.455Z</time>
      </trkpt>
      <trkpt lat="44.82088" lon="0.43467">
        <ele>41.319891</ele>
        <time>2022-07-11T17:38:09.207Z</time>
      </trkpt>
      <trkpt lat="44.82087" lon="0.43424">
        <ele>41.38405</ele>
        <time>2022-07-11T17:38:15.043Z</time>
      </trkpt>
      <trkpt lat="44.82081" lon="0.43348">
        <ele>41.497717</ele>
        <time>2022-07-11T17:38:25.293Z</time>
      </trkpt>
      <trkpt lat="44.82074" lon="0.43306">
        <ele>41.630961</ele>
        <time>2022-07-11T17:38:30.989Z</time>
      </trkpt>
      <trkpt lat="44.82057" lon="0.43222">
        <ele>41.937924</ele>
        <time>2022-07-11T17:38:42.672Z</time>
      </trkpt>
      <trkpt lat="44.82048" lon="0.43204">
        <ele>42.015867</ele>
        <time>2022-07-11T17:38:45.771Z</time>
      </trkpt>
      <trkpt lat="44.82003" lon="0.43192">
        <ele>42.244079</ele>
        <time>2022-07-11T17:38:55.287Z</time>
      </trkpt>
      <trkpt lat="44.81878" lon="0.43173">
        <ele>44.115823</ele>
        <time>2022-07-11T17:39:25.737Z</time>
      </trkpt>
      <trkpt lat="44.81822" lon="0.4316">
        <ele>45.14886</ele>
        <time>2022-07-11T17:39:41.049Z</time>
      </trkpt>
      <trkpt lat="44.81803" lon="0.43153">
        <ele>45.512729</ele>
        <time>2022-07-11T17:39:46.387Z</time>
      </trkpt>
      <trkpt lat="44.81675" lon="0.43066">
        <ele>49.28616</ele>
        <time>2022-07-11T17:40:29.464Z</time>
      </trkpt>
      <trkpt lat="44.81478" lon="0.43031">
        <ele>53.881089</ele>
        <time>2022-07-11T17:41:26.204Z</time>
      </trkpt>
      <trkpt lat="44.81479" lon="0.43015">
        <ele>54.1335</ele>
        <time>2022-07-11T17:41:28.854Z</time>
      </trkpt>
      <trkpt lat="44.81489" lon="0.42856">
        <ele>55.007477</ele>
        <time>2022-07-11T17:41:52.558Z</time>
      </trkpt>
      <trkpt lat="44.8149" lon="0.42709">
        <ele>55.45542</ele>
        <time>2022-07-11T17:42:10.923Z</time>
      </trkpt>
      <trkpt lat="44.81482" lon="0.42611">
        <ele>55.538692</ele>
        <time>2022-07-11T17:42:23.581Z</time>
      </trkpt>
      <trkpt lat="44.81482" lon="0.4261">
        <ele>55.539718</ele>
        <time>2022-07-11T17:42:23.747Z</time>
      </trkpt>
      <trkpt lat="44.81481" lon="0.42604">
        <ele>55.544682</ele>
        <time>2022-07-11T17:42:24.534Z</time>
      </trkpt>
      <trkpt lat="44.81477" lon="0.42533">
        <ele>55.605304</ele>
        <time>2022-07-11T17:42:34.191Z</time>
      </trkpt>
      <trkpt lat="44.81477" lon="0.42511">
        <ele>55.624165</ele>
        <time>2022-07-11T17:42:37.147Z</time>
      </trkpt>
      <trkpt lat="44.81477" lon="0.42497">
        <ele>55.636314</ele>
        <time>2022-07-11T17:42:39.085Z</time>
      </trkpt>
      <trkpt lat="44.81477" lon="0.42455">
        <ele>55.685257</ele>
        <time>2022-07-11T17:42:44.492Z</time>
      </trkpt>
      <trkpt lat="44.81477" lon="0.42441">
        <ele>55.70276</ele>
        <time>2022-07-11T17:42:46.188Z</time>
      </trkpt>
      <trkpt lat="44.81472" lon="0.4235">
        <ele>55.822747</ele>
        <time>2022-07-11T17:42:57.827Z</time>
      </trkpt>
      <trkpt lat="44.81467" lon="0.42271">
        <ele>55.925559</ele>
        <time>2022-07-11T17:43:08.184Z</time>
      </trkpt>
      <trkpt lat="44.81462" lon="0.4221">
        <ele>56.059273</ele>
        <time>2022-07-11T17:43:16.440Z</time>
      </trkpt>
      <trkpt lat="44.81437" lon="0.41868">
        <ele>56.857594</ele>
        <time>2022-07-11T17:44:05.362Z</time>
      </trkpt>
      <trkpt lat="44.8143" lon="0.41777">
        <ele>56.787861</ele>
        <time>2022-07-11T17:44:16.378Z</time>
      </trkpt>
      <trkpt lat="44.81426" lon="0.41697">
        <ele>56.612426</ele>
        <time>2022-07-11T17:44:25.568Z</time>
      </trkpt>
      <trkpt lat="44.81428" lon="0.41572">
        <ele>56.035609</ele>
        <time>2022-07-11T17:44:39.848Z</time>
      </trkpt>
      <trkpt lat="44.81416" lon="0.41472">
        <ele>55.593115</ele>
        <time>2022-07-11T17:44:51.628Z</time>
      </trkpt>
      <trkpt lat="44.8135" lon="0.41153">
        <ele>56.16258</ele>
        <time>2022-07-11T17:45:38.748Z</time>
      </trkpt>
      <trkpt lat="44.81255" lon="0.40609">
        <ele>55.011053</ele>
        <time>2022-07-11T17:46:46.718Z</time>
      </trkpt>
      <trkpt lat="44.8125" lon="0.4055">
        <ele>54.717242</ele>
        <time>2022-07-11T17:46:53.429Z</time>
      </trkpt>
      <trkpt lat="44.8125" lon="0.40484">
        <ele>54.340757</ele>
        <time>2022-07-11T17:47:00.781Z</time>
      </trkpt>
      <trkpt lat="44.81252" lon="0.40425">
        <ele>53.629069</ele>
        <time>2022-07-11T17:47:07.180Z</time>
      </trkpt>
      <trkpt lat="44.81254" lon="0.40359">
        <ele>52.829711</ele>
        <time>2022-07-11T17:47:14.223Z</time>
      </trkpt>
      <trkpt lat="44.81257" lon="0.40196">
        <ele>50.918665</ele>
        <time>2022-07-11T17:47:31.344Z</time>
      </trkpt>
      <trkpt lat="44.81258" lon="0.4016">
        <ele>50.530151</ele>
        <time>2022-07-11T17:47:35.138Z</time>
      </trkpt>
      <trkpt lat="44.8126" lon="0.40099">
        <ele>49.883313</ele>
        <time>2022-07-11T17:47:41.494Z</time>
      </trkpt>
      <trkpt lat="44.81262" lon="0.40008">
        <ele>48.902505</ele>
        <time>2022-07-11T17:47:51.477Z</time>
      </trkpt>
      <trkpt lat="44.81263" lon="0.39972">
        <ele>48.567729</ele>
        <time>2022-07-11T17:47:55.616Z</time>
      </trkpt>
      <trkpt lat="44.81264" lon="0.39922">
        <ele>48.26834</ele>
        <time>2022-07-11T17:48:01.308Z</time>
      </trkpt>
      <trkpt lat="44.81261" lon="0.39844">
        <ele>47.79505</ele>
        <time>2022-07-11T17:48:10.378Z</time>
      </trkpt>
      <trkpt lat="44.81245" lon="0.39779">
        <ele>47.383061</ele>
        <time>2022-07-11T17:48:18.300Z</time>
      </trkpt>
      <trkpt lat="44.81088" lon="0.39364">
        <ele>44.570731</ele>
        <time>2022-07-11T17:49:12.254Z</time>
      </trkpt>
      <trkpt lat="44.81005" lon="0.39145">
        <ele>43.096565</ele>
        <time>2022-07-11T17:49:40.378Z</time>
      </trkpt>
      <trkpt lat="44.80995" lon="0.39117">
        <ele>42.909292</ele>
        <time>2022-07-11T17:49:44.058Z</time>
      </trkpt>
      <trkpt lat="44.80981" lon="0.39033">
        <ele>42.562345</ele>
        <time>2022-07-11T17:49:54.066Z</time>
      </trkpt>
      <trkpt lat="44.80971" lon="0.3894">
        <ele>42.482466</ele>
        <time>2022-07-11T17:50:05.275Z</time>
      </trkpt>
      <trkpt lat="44.80963" lon="0.38295">
        <ele>42.35483</ele>
        <time>2022-07-11T17:51:27.104Z</time>
      </trkpt>
      <trkpt lat="44.81012" lon="0.37972">
        <ele>43.574319</ele>
        <time>2022-07-11T17:52:14.868Z</time>
      </trkpt>
      <trkpt lat="44.8102" lon="0.37912">
        <ele>43.764934</ele>
        <time>2022-07-11T17:52:23.343Z</time>
      </trkpt>
      <trkpt lat="44.81028" lon="0.37855">
        <ele>43.948545</ele>
        <time>2022-07-11T17:52:31.232Z</time>
      </trkpt>
      <trkpt lat="44.81036" lon="0.37802">
        <ele>44.130192</ele>
        <time>2022-07-11T17:52:38.307Z</time>
      </trkpt>
      <trkpt lat="44.81051" lon="0.37708">
        <ele>44.608311</ele>
        <time>2022-07-11T17:52:51.609Z</time>
      </trkpt>
      <trkpt lat="44.81055" lon="0.37604">
        <ele>45.121321</ele>
        <time>2022-07-11T17:53:06.439Z</time>
      </trkpt>
      <trkpt lat="44.81057" lon="0.37275">
        <ele>47.825546</ele>
        <time>2022-07-11T17:54:01.517Z</time>
      </trkpt>
      <trkpt lat="44.81023" lon="0.36945">
        <ele>47.765486</ele>
        <time>2022-07-11T17:54:45.830Z</time>
      </trkpt>
      <trkpt lat="44.81013" lon="0.36834">
        <ele>46.980094</ele>
        <time>2022-07-11T17:54:57.846Z</time>
      </trkpt>
      <trkpt lat="44.81013" lon="0.36739">
        <ele>45.375285</ele>
        <time>2022-07-11T17:55:07.478Z</time>
      </trkpt>
      <trkpt lat="44.81021" lon="0.36648">
        <ele>43.368852</ele>
        <time>2022-07-11T17:55:16.323Z</time>
      </trkpt>
      <trkpt lat="44.81075" lon="0.36377">
        <ele>37.221041</ele>
        <time>2022-07-11T17:55:43.171Z</time>
      </trkpt>
      <trkpt lat="44.81101" lon="0.36251">
        <ele>35.072647</ele>
        <time>2022-07-11T17:55:56.788Z</time>
      </trkpt>
      <trkpt lat="44.81123" lon="0.36185">
        <ele>34.352165</ele>
        <time>2022-07-11T17:56:04.641Z</time>
      </trkpt>
      <trkpt lat="44.81131" lon="0.36163">
        <ele>34.106972</ele>
        <time>2022-07-11T17:56:07.418Z</time>
      </trkpt>
      <trkpt lat="44.81204" lon="0.35976">
        <ele>32.837964</ele>
        <time>2022-07-11T17:56:31.954Z</time>
      </trkpt>
      <trkpt lat="44.81234" lon="0.35837">
        <ele>32.500159</ele>
        <time>2022-07-11T17:56:49.794Z</time>
      </trkpt>
      <trkpt lat="44.81238" lon="0.35751">
        <ele>32.966152</ele>
        <time>2022-07-11T17:57:02.025Z</time>
      </trkpt>
      <trkpt lat="44.81213" lon="0.35597">
        <ele>33.817312</ele>
        <time>2022-07-11T17:57:26.977Z</time>
      </trkpt>
      <trkpt lat="44.81211" lon="0.35581">
        <ele>33.901058</ele>
        <time>2022-07-11T17:57:29.590Z</time>
      </trkpt>
      <trkpt lat="44.81198" lon="0.35453">
        <ele>34.550489</ele>
        <time>2022-07-11T17:57:48.672Z</time>
      </trkpt>
      <trkpt lat="44.81194" lon="0.35405">
        <ele>34.796341</ele>
        <time>2022-07-11T17:57:55.391Z</time>
      </trkpt>
      <trkpt lat="44.81194" lon="0.35331">
        <ele>35.156339</ele>
        <time>2022-07-11T17:58:06.100Z</time>
      </trkpt>
      <trkpt lat="44.81199" lon="0.35205">
        <ele>35.658479</ele>
        <time>2022-07-11T17:58:23.024Z</time>
      </trkpt>
      <trkpt lat="44.81202" lon="0.35131">
        <ele>35.956294</ele>
        <time>2022-07-11T17:58:33.488Z</time>
      </trkpt>
      <trkpt lat="44.8121" lon="0.34843">
        <ele>38.244911</ele>
        <time>2022-07-11T17:59:19.263Z</time>
      </trkpt>
      <trkpt lat="44.81214" lon="0.34653">
        <ele>40.664235</ele>
        <time>2022-07-11T17:59:53.143Z</time>
      </trkpt>
      <trkpt lat="44.81213" lon="0.34386">
        <ele>44.405548</ele>
        <time>2022-07-11T18:00:42.464Z</time>
      </trkpt>
      <trkpt lat="44.81211" lon="0.34103">
        <ele>48.020088</ele>
        <time>2022-07-11T18:01:33.212Z</time>
      </trkpt>
      <trkpt lat="44.81202" lon="0.33997">
        <ele>48.683648</ele>
        <time>2022-07-11T18:01:50.484Z</time>
      </trkpt>
      <trkpt lat="44.81166" lon="0.33792">
        <ele>49.295494</ele>
        <time>2022-07-11T18:02:18.945Z</time>
      </trkpt>
      <trkpt lat="44.81145" lon="0.33731">
        <ele>49.059306</ele>
        <time>2022-07-11T18:02:26.944Z</time>
      </trkpt>
      <trkpt lat="44.81124" lon="0.33686">
        <ele>48.87488</ele>
        <time>2022-07-11T18:02:33.073Z</time>
      </trkpt>
      <trkpt lat="44.80997" lon="0.33527">
        <ele>48.092656</ele>
        <time>2022-07-11T18:03:00.662Z</time>
      </trkpt>
      <trkpt lat="44.80982" lon="0.33493">
        <ele>47.968332</ele>
        <time>2022-07-11T18:03:05.482Z</time>
      </trkpt>
      <trkpt lat="44.80976" lon="0.33459">
        <ele>47.857189</ele>
        <time>2022-07-11T18:03:09.937Z</time>
      </trkpt>
      <trkpt lat="44.80974" lon="0.33439">
        <ele>47.794656</ele>
        <time>2022-07-11T18:03:12.445Z</time>
      </trkpt>
      <trkpt lat="44.80974" lon="0.3339">
        <ele>48.121356</ele>
        <time>2022-07-11T18:03:18.963Z</time>
      </trkpt>
      <trkpt lat="44.80982" lon="0.3334">
        <ele>48.61319</ele>
        <time>2022-07-11T18:03:26.899Z</time>
      </trkpt>
      <trkpt lat="44.81027" lon="0.33196">
        <ele>50.14712</ele>
        <time>2022-07-11T18:03:54.652Z</time>
      </trkpt>
      <trkpt lat="44.81039" lon="0.33155">
        <ele>50.729276</ele>
        <time>2022-07-11T18:04:03.035Z</time>
      </trkpt>
      <trkpt lat="44.81047" lon="0.33095">
        <ele>51.586746</ele>
        <time>2022-07-11T18:04:14.631Z</time>
      </trkpt>
      <trkpt lat="44.81045" lon="0.32981">
        <ele>53.198292</ele>
        <time>2022-07-11T18:04:36.211Z</time>
      </trkpt>
      <trkpt lat="44.81035" lon="0.32855">
        <ele>54.091364</ele>
        <time>2022-07-11T18:04:57.126Z</time>
      </trkpt>
      <trkpt lat="44.81041" lon="0.32787">
        <ele>54.333369</ele>
        <time>2022-07-11T18:05:07.057Z</time>
      </trkpt>
      <trkpt lat="44.81118" lon="0.32439">
        <ele>53.758002</ele>
        <time>2022-07-11T18:05:50.579Z</time>
      </trkpt>
      <trkpt lat="44.81163" lon="0.32236">
        <ele>52.395225</ele>
        <time>2022-07-11T18:06:14.696Z</time>
      </trkpt>
      <trkpt lat="44.81177" lon="0.32165">
        <ele>51.833774</ele>
        <time>2022-07-11T18:06:23.004Z</time>
      </trkpt>
      <trkpt lat="44.81188" lon="0.32117">
        <ele>51.40913</ele>
        <time>2022-07-11T18:06:28.692Z</time>
      </trkpt>
      <trkpt lat="44.81287" lon="0.31663">
        <ele>47.037278</ele>
        <time>2022-07-11T18:07:20.637Z</time>
      </trkpt>
      <trkpt lat="44.81314" lon="0.31511">
        <ele>45.642232</ele>
        <time>2022-07-11T18:07:37.495Z</time>
      </trkpt>
      <trkpt lat="44.81402" lon="0.31085">
        <ele>45.263166</ele>
        <time>2022-07-11T18:08:30.725Z</time>
      </trkpt>
      <trkpt lat="44.8131" lon="0.31058">
        <ele>46.777055</ele>
        <time>2022-07-11T18:09:01.958Z</time>
      </trkpt>
      <trkpt lat="44.81279" lon="0.30987">
        <ele>49.298607</ele>
        <time>2022-07-11T18:09:22.253Z</time>
      </trkpt>
      <trkpt lat="44.81271" lon="0.30983">
        <ele>49.643004</ele>
        <time>2022-07-11T18:09:25.214Z</time>
      </trkpt>
      <trkpt lat="44.81252" lon="0.30937">
        <ele>51.239672</ele>
        <time>2022-07-11T18:09:40.274Z</time>
      </trkpt>
      <trkpt lat="44.81306" lon="0.30889">
        <ele>54.584679</ele>
        <time>2022-07-11T18:10:08.252Z</time>
      </trkpt>
      <trkpt lat="44.81323" lon="0.30868">
        <ele>56.736165</ele>
        <time>2022-07-11T18:10:19.764Z</time>
      </trkpt>
      <trkpt lat="44.81299" lon="0.30857">
        <ele>59.113133</ele>
        <time>2022-07-11T18:10:33.076Z</time>
      </trkpt>
      <trkpt lat="44.81179" lon="0.30666">
        <ele>75.852491</ele>
        <time>2022-07-11T18:12:22.537Z</time>
      </trkpt>
      <trkpt lat="44.81168" lon="0.30656">
        <ele>77.029212</ele>
        <time>2022-07-11T18:12:31.018Z</time>
      </trkpt>
      <trkpt lat="44.81137" lon="0.30648">
        <ele>79.929039</ele>
        <time>2022-07-11T18:12:49.792Z</time>
      </trkpt>
      <trkpt lat="44.81127" lon="0.30629">
        <ele>81.402456</ele>
        <time>2022-07-11T18:12:58.647Z</time>
      </trkpt>
      <trkpt lat="44.81123" lon="0.30608">
        <ele>82.840387</ele>
        <time>2022-07-11T18:13:06.653Z</time>
      </trkpt>
      <trkpt lat="44.81134" lon="0.30517">
        <ele>87.960841</ele>
        <time>2022-07-11T18:13:35.557Z</time>
      </trkpt>
      <trkpt lat="44.8114" lon="0.30492">
        <ele>89.04453</ele>
        <time>2022-07-11T18:13:44.022Z</time>
      </trkpt>
      <trkpt lat="44.81233" lon="0.3039">
        <ele>95.915748</ele>
        <time>2022-07-11T18:14:31.256Z</time>
      </trkpt>
      <trkpt lat="44.81238" lon="0.30367">
        <ele>96.879201</ele>
        <time>2022-07-11T18:14:38.158Z</time>
      </trkpt>
      <trkpt lat="44.81232" lon="0.30348">
        <ele>97.828214</ele>
        <time>2022-07-11T18:14:44.611Z</time>
      </trkpt>
      <trkpt lat="44.81222" lon="0.30334">
        <ele>98.718042</ele>
        <time>2022-07-11T18:14:49.949Z</time>
      </trkpt>
      <trkpt lat="44.81168" lon="0.30319">
        <ele>102.131323</ele>
        <time>2022-07-11T18:15:13.179Z</time>
      </trkpt>
      <trkpt lat="44.81153" lon="0.30312">
        <ele>103.096571</ele>
        <time>2022-07-11T18:15:19.865Z</time>
      </trkpt>
      <trkpt lat="44.81142" lon="0.30296">
        <ele>104.094079</ele>
        <time>2022-07-11T18:15:27.404Z</time>
      </trkpt>
      <trkpt lat="44.81107" lon="0.30212">
        <ele>108.358673</ele>
        <time>2022-07-11T18:16:00.027Z</time>
      </trkpt>
      <trkpt lat="44.81057" lon="0.30126">
        <ele>112.401923</ele>
        <time>2022-07-11T18:16:32.813Z</time>
      </trkpt>
      <trkpt lat="44.81039" lon="0.3008">
        <ele>114.309922</ele>
        <time>2022-07-11T18:16:47.400Z</time>
      </trkpt>
      <trkpt lat="44.8101" lon="0.30022">
        <ele>116.894365</ele>
        <time>2022-07-11T18:17:05.161Z</time>
      </trkpt>
      <trkpt lat="44.80957" lon="0.29952">
        <ele>118.912323</ele>
        <time>2022-07-11T18:17:27.907Z</time>
      </trkpt>
      <trkpt lat="44.80909" lon="0.29871">
        <ele>120.752714</ele>
        <time>2022-07-11T18:17:47.440Z</time>
      </trkpt>
      <trkpt lat="44.80886" lon="0.29817">
        <ele>121.848881</ele>
        <time>2022-07-11T18:17:58.967Z</time>
      </trkpt>
      <trkpt lat="44.80885" lon="0.29723">
        <ele>123.165392</ele>
        <time>2022-07-11T18:18:16.616Z</time>
      </trkpt>
      <trkpt lat="44.80871" lon="0.29716">
        <ele>123.443566</ele>
        <time>2022-07-11T18:18:20.677Z</time>
      </trkpt>
      <trkpt lat="44.8084" lon="0.29666">
        <ele>124.379883</ele>
        <time>2022-07-11T18:18:33.842Z</time>
      </trkpt>
      <trkpt lat="44.80805" lon="0.29593">
        <ele>125.264605</ele>
        <time>2022-07-11T18:18:51.160Z</time>
      </trkpt>
      <trkpt lat="44.80717" lon="0.29472">
        <ele>124.675216</ele>
        <time>2022-07-11T18:19:14.198Z</time>
      </trkpt>
      <trkpt lat="44.80652" lon="0.29401">
        <ele>122.639477</ele>
        <time>2022-07-11T18:19:26.091Z</time>
      </trkpt>
      <trkpt lat="44.80643" lon="0.2938">
        <ele>121.849837</ele>
        <time>2022-07-11T18:19:28.420Z</time>
      </trkpt>
      <trkpt lat="44.80637" lon="0.29317">
        <ele>119.760793</ele>
        <time>2022-07-11T18:19:34.351Z</time>
      </trkpt>
      <trkpt lat="44.8059" lon="0.29162">
        <ele>114.711379</ele>
        <time>2022-07-11T18:19:50.013Z</time>
      </trkpt>
      <trkpt lat="44.80586" lon="0.29073">
        <ele>112.484965</ele>
        <time>2022-07-11T18:19:58.834Z</time>
      </trkpt>
      <trkpt lat="44.80556" lon="0.29027">
        <ele>110.925451</ele>
        <time>2022-07-11T18:20:05.375Z</time>
      </trkpt>
      <trkpt lat="44.8044" lon="0.2888">
        <ele>107.400163</ele>
        <time>2022-07-11T18:20:30.162Z</time>
      </trkpt>
      <trkpt lat="44.80456" lon="0.28834">
        <ele>106.685549</ele>
        <time>2022-07-11T18:20:35.658Z</time>
      </trkpt>
      <trkpt lat="44.80455" lon="0.28807">
        <ele>106.320488</ele>
        <time>2022-07-11T18:20:38.418Z</time>
      </trkpt>
      <trkpt lat="44.80447" lon="0.28782">
        <ele>105.885263</ele>
        <time>2022-07-11T18:20:41.333Z</time>
      </trkpt>
      <trkpt lat="44.80432" lon="0.28756">
        <ele>105.362231</ele>
        <time>2022-07-11T18:20:44.804Z</time>
      </trkpt>
      <trkpt lat="44.80417" lon="0.28714">
        <ele>104.635019</ele>
        <time>2022-07-11T18:20:49.710Z</time>
      </trkpt>
      <trkpt lat="44.80404" lon="0.28667">
        <ele>103.859275</ele>
        <time>2022-07-11T18:20:55.026Z</time>
      </trkpt>
      <trkpt lat="44.80394" lon="0.28627">
        <ele>103.200623</ele>
        <time>2022-07-11T18:20:59.678Z</time>
      </trkpt>
      <trkpt lat="44.80385" lon="0.28581">
        <ele>102.465376</ele>
        <time>2022-07-11T18:21:04.991Z</time>
      </trkpt>
      <trkpt lat="44.80377" lon="0.28566">
        <ele>102.385807</ele>
        <time>2022-07-11T18:21:07.087Z</time>
      </trkpt>
      <trkpt lat="44.8035" lon="0.28574">
        <ele>102.319071</ele>
        <time>2022-07-11T18:21:11.837Z</time>
      </trkpt>
      <trkpt lat="44.80344" lon="0.28576">
        <ele>102.30348</ele>
        <time>2022-07-11T18:21:12.928Z</time>
      </trkpt>
      <trkpt lat="44.803" lon="0.28589">
        <ele>102.196816</ele>
        <time>2022-07-11T18:21:20.951Z</time>
      </trkpt>
      <trkpt lat="44.8022" lon="0.28609">
        <ele>102.003872</ele>
        <time>2022-07-11T18:21:37.382Z</time>
      </trkpt>
      <trkpt lat="44.80163" lon="0.28612">
        <ele>101.379672</ele>
        <time>2022-07-11T18:21:49.096Z</time>
      </trkpt>
      <trkpt lat="44.80145" lon="0.28606">
        <ele>101.143265</ele>
        <time>2022-07-11T18:21:52.474Z</time>
      </trkpt>
      <trkpt lat="44.80034" lon="0.28536">
        <ele>99.344649</ele>
        <time>2022-07-11T18:22:11.383Z</time>
      </trkpt>
      <trkpt lat="44.79991" lon="0.28522">
        <ele>97.316199</ele>
        <time>2022-07-11T18:22:17.531Z</time>
      </trkpt>
      <trkpt lat="44.79931" lon="0.28502">
        <ele>94.558538</ele>
        <time>2022-07-11T18:22:25.780Z</time>
      </trkpt>
      <trkpt lat="44.79885" lon="0.28486">
        <ele>92.36777</ele>
        <time>2022-07-11T18:22:32.075Z</time>
      </trkpt>
      <trkpt lat="44.79858" lon="0.28459">
        <ele>90.656247</ele>
        <time>2022-07-11T18:22:36.309Z</time>
      </trkpt>
      <trkpt lat="44.79822" lon="0.28371">
        <ele>86.276435</ele>
        <time>2022-07-11T18:22:45.536Z</time>
      </trkpt>
      <trkpt lat="44.79675" lon="0.2817">
        <ele>74.878642</ele>
        <time>2022-07-11T18:23:12.041Z</time>
      </trkpt>
      <trkpt lat="44.79586" lon="0.28087">
        <ele>70.132139</ele>
        <time>2022-07-11T18:23:26.654Z</time>
      </trkpt>
      <trkpt lat="44.79572" lon="0.28061">
        <ele>69.368525</ele>
        <time>2022-07-11T18:23:30.155Z</time>
      </trkpt>
      <trkpt lat="44.79561" lon="0.28014">
        <ele>68.248092</ele>
        <time>2022-07-11T18:23:35.253Z</time>
      </trkpt>
      <trkpt lat="44.79553" lon="0.28006">
        <ele>67.936016</ele>
        <time>2022-07-11T18:23:36.623Z</time>
      </trkpt>
      <trkpt lat="44.7955" lon="0.27981">
        <ele>67.368499</ele>
        <time>2022-07-11T18:23:39.078Z</time>
      </trkpt>
      <trkpt lat="44.79531" lon="0.27938">
        <ele>66.179908</ele>
        <time>2022-07-11T18:23:44.183Z</time>
      </trkpt>
      <trkpt lat="44.79522" lon="0.2788">
        <ele>64.978496</ele>
        <time>2022-07-11T18:23:49.984Z</time>
      </trkpt>
      <trkpt lat="44.79527" lon="0.27856">
        <ele>64.523906</ele>
        <time>2022-07-11T18:23:52.376Z</time>
      </trkpt>
      <trkpt lat="44.79555" lon="0.27775">
        <ele>62.878718</ele>
        <time>2022-07-11T18:24:01.160Z</time>
      </trkpt>
      <trkpt lat="44.79569" lon="0.27648">
        <ele>60.73051</ele>
        <time>2022-07-11T18:24:14.532Z</time>
      </trkpt>
      <trkpt lat="44.79589" lon="0.27617">
        <ele>60.313802</ele>
        <time>2022-07-11T18:24:19.160Z</time>
      </trkpt>
      <trkpt lat="44.79677" lon="0.27574">
        <ele>59.02009</ele>
        <time>2022-07-11T18:24:34.251Z</time>
      </trkpt>
      <trkpt lat="44.79748" lon="0.2756">
        <ele>57.42167</ele>
        <time>2022-07-11T18:24:44.908Z</time>
      </trkpt>
      <trkpt lat="44.79787" lon="0.2756">
        <ele>56.120398</ele>
        <time>2022-07-11T18:24:50.577Z</time>
      </trkpt>
      <trkpt lat="44.79784" lon="0.27543">
        <ele>55.718734</ele>
        <time>2022-07-11T18:24:52.046Z</time>
      </trkpt>
      <trkpt lat="44.79772" lon="0.27536">
        <ele>55.273651</ele>
        <time>2022-07-11T18:24:54.388Z</time>
      </trkpt>
      <trkpt lat="44.79697" lon="0.27521">
        <ele>52.751315</ele>
        <time>2022-07-11T18:25:04.826Z</time>
      </trkpt>
      <trkpt lat="44.79682" lon="0.27508">
        <ele>52.238287</ele>
        <time>2022-07-11T18:25:06.970Z</time>
      </trkpt>
      <trkpt lat="44.79673" lon="0.27491">
        <ele>51.830365</ele>
        <time>2022-07-11T18:25:09.288Z</time>
      </trkpt>
      <trkpt lat="44.79662" lon="0.27422">
        <ele>50.48033</ele>
        <time>2022-07-11T18:25:16.125Z</time>
      </trkpt>
      <trkpt lat="44.79645" lon="0.27369">
        <ele>49.368265</ele>
        <time>2022-07-11T18:25:22.321Z</time>
      </trkpt>
      <trkpt lat="44.79533" lon="0.27217">
        <ele>48.058175</ele>
        <time>2022-07-11T18:25:48.350Z</time>
      </trkpt>
      <trkpt lat="44.79497" lon="0.27185">
        <ele>48.251487</ele>
        <time>2022-07-11T18:25:58.037Z</time>
      </trkpt>
      <trkpt lat="44.79484" lon="0.27155">
        <ele>48.366122</ele>
        <time>2022-07-11T18:26:04.434Z</time>
      </trkpt>
      <trkpt lat="44.79481" lon="0.2711">
        <ele>48.958247</ele>
        <time>2022-07-11T18:26:13.519Z</time>
      </trkpt>
      <trkpt lat="44.79474" lon="0.27084">
        <ele>49.798828</ele>
        <time>2022-07-11T18:26:19.405Z</time>
      </trkpt>
      <trkpt lat="44.79447" lon="0.2705">
        <ele>51.42629</ele>
        <time>2022-07-11T18:26:31.649Z</time>
      </trkpt>
      <trkpt lat="44.79431" lon="0.27041">
        <ele>52.198238</ele>
        <time>2022-07-11T18:26:37.807Z</time>
      </trkpt>
      <trkpt lat="44.79326" lon="0.27027">
        <ele>56.890848</ele>
        <time>2022-07-11T18:27:20.541Z</time>
      </trkpt>
      <trkpt lat="44.79234" lon="0.26994">
        <ele>61.444473</ele>
        <time>2022-07-11T18:28:00.797Z</time>
      </trkpt>
      <trkpt lat="44.79143" lon="0.26972">
        <ele>65.269702</ele>
        <time>2022-07-11T18:28:31.808Z</time>
      </trkpt>
      <trkpt lat="44.79128" lon="0.26968">
        <ele>65.504519</ele>
        <time>2022-07-11T18:28:36.274Z</time>
      </trkpt>
      <trkpt lat="44.79003" lon="0.26925">
        <ele>67.453341</ele>
        <time>2022-07-11T18:29:05.068Z</time>
      </trkpt>
      <trkpt lat="44.78913" lon="0.26963">
        <ele>68.236015</ele>
        <time>2022-07-11T18:29:24.522Z</time>
      </trkpt>
      <trkpt lat="44.78862" lon="0.26955">
        <ele>68.578299</ele>
        <time>2022-07-11T18:29:35.996Z</time>
      </trkpt>
      <trkpt lat="44.78778" lon="0.26924">
        <ele>68.920496</ele>
        <time>2022-07-11T18:29:54.416Z</time>
      </trkpt>
      <trkpt lat="44.78691" lon="0.2691">
        <ele>68.899568</ele>
        <time>2022-07-11T18:30:10.317Z</time>
      </trkpt>
      <trkpt lat="44.78655" lon="0.2689">
        <ele>68.890231</ele>
        <time>2022-07-11T18:30:17.449Z</time>
      </trkpt>
      <trkpt lat="44.78632" lon="0.26907">
        <ele>68.859632</ele>
        <time>2022-07-11T18:30:21.623Z</time>
      </trkpt>
      <trkpt lat="44.78584" lon="0.2691">
        <ele>68.657523</ele>
        <time>2022-07-11T18:30:29.848Z</time>
      </trkpt>
      <trkpt lat="44.78566" lon="0.26905">
        <ele>68.579161</ele>
        <time>2022-07-11T18:30:32.711Z</time>
      </trkpt>
      <trkpt lat="44.78565" lon="0.26904">
        <ele>68.574345</ele>
        <time>2022-07-11T18:30:32.913Z</time>
      </trkpt>
      <trkpt lat="44.78545" lon="0.2689">
        <ele>68.480554</ele>
        <time>2022-07-11T18:30:36.761Z</time>
      </trkpt>
      <trkpt lat="44.78539" lon="0.26884">
        <ele>68.450243</ele>
        <time>2022-07-11T18:30:37.890Z</time>
      </trkpt>
      <trkpt lat="44.78521" lon="0.26871">
        <ele>68.366043</ele>
        <time>2022-07-11T18:30:41.347Z</time>
      </trkpt>
      <trkpt lat="44.78491" lon="0.26857">
        <ele>68.232557</ele>
        <time>2022-07-11T18:30:46.505Z</time>
      </trkpt>
      <trkpt lat="44.7846" lon="0.26862">
        <ele>68.127194</ele>
        <time>2022-07-11T18:30:52.220Z</time>
      </trkpt>
      <trkpt lat="44.784" lon="0.26889">
        <ele>68.082871</ele>
        <time>2022-07-11T18:31:04.111Z</time>
      </trkpt>
      <trkpt lat="44.78381" lon="0.26893">
        <ele>68.069312</ele>
        <time>2022-07-11T18:31:07.516Z</time>
      </trkpt>
      <trkpt lat="44.78356" lon="0.2689">
        <ele>68.051404</ele>
        <time>2022-07-11T18:31:11.755Z</time>
      </trkpt>
      <trkpt lat="44.7832" lon="0.26869">
        <ele>68.023856</ele>
        <time>2022-07-11T18:31:18.367Z</time>
      </trkpt>
      <trkpt lat="44.78294" lon="0.26861">
        <ele>68.004841</ele>
        <time>2022-07-11T18:31:22.974Z</time>
      </trkpt>
      <trkpt lat="44.78159" lon="0.26851">
        <ele>69.319621</ele>
        <time>2022-07-11T18:31:48.307Z</time>
      </trkpt>
      <trkpt lat="44.78141" lon="0.2685">
        <ele>69.490094</ele>
        <time>2022-07-11T18:31:52.514Z</time>
      </trkpt>
      <trkpt lat="44.78136" lon="0.26849">
        <ele>69.543704</ele>
        <time>2022-07-11T18:31:53.965Z</time>
      </trkpt>
      <trkpt lat="44.78031" lon="0.26842">
        <ele>74.086956</ele>
        <time>2022-07-11T18:32:28.184Z</time>
      </trkpt>
      <trkpt lat="44.77816" lon="0.2677">
        <ele>86.754119</ele>
        <time>2022-07-11T18:34:08.495Z</time>
      </trkpt>
      <trkpt lat="44.77734" lon="0.26774">
        <ele>90.842047</ele>
        <time>2022-07-11T18:34:39.357Z</time>
      </trkpt>
      <trkpt lat="44.77662" lon="0.26757">
        <ele>92.817117</ele>
        <time>2022-07-11T18:35:01.127Z</time>
      </trkpt>
      <trkpt lat="44.77571" lon="0.26671">
        <ele>95.183257</ele>
        <time>2022-07-11T18:35:26.768Z</time>
      </trkpt>
      <trkpt lat="44.7749" lon="0.26525">
        <ele>96.099139</ele>
        <time>2022-07-11T18:35:53.416Z</time>
      </trkpt>
      <trkpt lat="44.77375" lon="0.26297">
        <ele>96.49717</ele>
        <time>2022-07-11T18:36:29.205Z</time>
      </trkpt>
      <trkpt lat="44.7734" lon="0.26254">
        <ele>96.891562</ele>
        <time>2022-07-11T18:36:38.056Z</time>
      </trkpt>
      <trkpt lat="44.77281" lon="0.26222">
        <ele>97.43519</ele>
        <time>2022-07-11T18:36:51.069Z</time>
      </trkpt>
      <trkpt lat="44.77031" lon="0.26122">
        <ele>100.711057</ele>
        <time>2022-07-11T18:37:52.634Z</time>
      </trkpt>
      <trkpt lat="44.76927" lon="0.26072">
        <ele>101.868984</ele>
        <time>2022-07-11T18:38:17.229Z</time>
      </trkpt>
      <trkpt lat="44.7688" lon="0.26033">
        <ele>102.444082</ele>
        <time>2022-07-11T18:38:28.417Z</time>
      </trkpt>
      <trkpt lat="44.76789" lon="0.25908">
        <ele>103.573468</ele>
        <time>2022-07-11T18:38:54.335Z</time>
      </trkpt>
      <trkpt lat="44.76764" lon="0.25854">
        <ele>103.976082</ele>
        <time>2022-07-11T18:39:04.226Z</time>
      </trkpt>
      <trkpt lat="44.76742" lon="0.25621">
        <ele>106.950174</ele>
        <time>2022-07-11T18:39:45.758Z</time>
      </trkpt>
      <trkpt lat="44.76715" lon="0.2549">
        <ele>109.483176</ele>
        <time>2022-07-11T18:40:12.604Z</time>
      </trkpt>
      <trkpt lat="44.76669" lon="0.25395">
        <ele>111.849099</ele>
        <time>2022-07-11T18:40:38.300Z</time>
      </trkpt>
      <trkpt lat="44.76635" lon="0.25361">
        <ele>113.050714</ele>
        <time>2022-07-11T18:40:50.930Z</time>
      </trkpt>
      <trkpt lat="44.76622" lon="0.25349">
        <ele>113.499596</ele>
        <time>2022-07-11T18:40:55.356Z</time>
      </trkpt>
      <trkpt lat="44.76578" lon="0.25308">
        <ele>115.03364</ele>
        <time>2022-07-11T18:41:10.607Z</time>
      </trkpt>
      <trkpt lat="44.76537" lon="0.25281">
        <ele>116.337068</ele>
        <time>2022-07-11T18:41:23.935Z</time>
      </trkpt>
      <trkpt lat="44.76497" lon="0.25243">
        <ele>117.730026</ele>
        <time>2022-07-11T18:41:38.385Z</time>
      </trkpt>
      <trkpt lat="44.76448" lon="0.25216">
        <ele>118.879946</ele>
        <time>2022-07-11T18:41:53.565Z</time>
      </trkpt>
      <trkpt lat="44.76457" lon="0.25202">
        <ele>119.158632</ele>
        <time>2022-07-11T18:41:56.898Z</time>
      </trkpt>
      <trkpt lat="44.76458" lon="0.25187">
        <ele>119.398015</ele>
        <time>2022-07-11T18:41:59.883Z</time>
      </trkpt>
      <trkpt lat="44.76427" lon="0.25182">
        <ele>120.053196</ele>
        <time>2022-07-11T18:42:07.606Z</time>
      </trkpt>
      <trkpt lat="44.76359" lon="0.25155">
        <ele>121.535619</ele>
        <time>2022-07-11T18:42:24.953Z</time>
      </trkpt>
      <trkpt lat="44.76342" lon="0.25149">
        <ele>121.779553</ele>
        <time>2022-07-11T18:42:29.290Z</time>
      </trkpt>
      <trkpt lat="44.76308" lon="0.25104">
        <ele>122.307144</ele>
        <time>2022-07-11T18:42:41.673Z</time>
      </trkpt>
      <trkpt lat="44.76289" lon="0.2508">
        <ele>122.590949</ele>
        <time>2022-07-11T18:42:47.521Z</time>
      </trkpt>
      <trkpt lat="44.76239" lon="0.25014">
        <ele>123.358747</ele>
        <time>2022-07-11T18:43:02.136Z</time>
      </trkpt>
      <trkpt lat="44.762" lon="0.24956">
        <ele>123.487825</ele>
        <time>2022-07-11T18:43:12.457Z</time>
      </trkpt>
    </trkseg>
  </trk>
  <trk>
    <name><![CDATA[P3_Margueron-Frontenac (42) ]]></name>
    <extensions>
      <line xmlns="http://www.topografix.com/GPX/gpx_style/0/2">
        <color>ff00f7</color>
        <width>4</width>
      </line>
    </extensions>
    <trkseg>
      <trkpt lat="44.762" lon="0.24956">
        <ele>123.487825</ele>
        <time>2022-07-11T18:43:12.457Z</time>
      </trkpt>
      <trkpt lat="44.76209" lon="0.24938">
        <ele>123.401937</ele>
        <time>2022-07-11T18:43:15.025Z</time>
      </trkpt>
      <trkpt lat="44.76217" lon="0.24899">
        <ele>123.247533</ele>
        <time>2022-07-11T18:43:19.932Z</time>
      </trkpt>
      <trkpt lat="44.76218" lon="0.24788">
        <ele>122.827266</ele>
        <time>2022-07-11T18:43:32.780Z</time>
      </trkpt>
      <trkpt lat="44.76216" lon="0.24682">
        <ele>122.464525</ele>
        <time>2022-07-11T18:43:44.551Z</time>
      </trkpt>
      <trkpt lat="44.76303" lon="0.24381">
        <ele>122.596018</ele>
        <time>2022-07-11T18:44:24.440Z</time>
      </trkpt>
      <trkpt lat="44.76304" lon="0.24324">
        <ele>122.890971</ele>
        <time>2022-07-11T18:44:33.924Z</time>
      </trkpt>
      <trkpt lat="44.76307" lon="0.24207">
        <ele>124.287384</ele>
        <time>2022-07-11T18:44:55.744Z</time>
      </trkpt>
      <trkpt lat="44.76303" lon="0.24079">
        <ele>126.606761</ele>
        <time>2022-07-11T18:45:23.254Z</time>
      </trkpt>
      <trkpt lat="44.76311" lon="0.2402">
        <ele>127.680404</ele>
        <time>2022-07-11T18:45:35.663Z</time>
      </trkpt>
      <trkpt lat="44.76325" lon="0.2395">
        <ele>127.685991</ele>
        <time>2022-07-11T18:45:48.353Z</time>
      </trkpt>
      <trkpt lat="44.76326" lon="0.23861">
        <ele>127.610222</ele>
        <time>2022-07-11T18:46:01.247Z</time>
      </trkpt>
      <trkpt lat="44.76373" lon="0.23521">
        <ele>122.711964</ele>
        <time>2022-07-11T18:46:36.068Z</time>
      </trkpt>
      <trkpt lat="44.76419" lon="0.23079">
        <ele>111.378679</ele>
        <time>2022-07-11T18:47:18.200Z</time>
      </trkpt>
      <trkpt lat="44.76433" lon="0.23005">
        <ele>109.559825</ele>
        <time>2022-07-11T18:47:25.992Z</time>
      </trkpt>
      <trkpt lat="44.76459" lon="0.22922">
        <ele>107.759239</ele>
        <time>2022-07-11T18:47:35.063Z</time>
      </trkpt>
      <trkpt lat="44.76476" lon="0.22841">
        <ele>106.085647</ele>
        <time>2022-07-11T18:47:43.503Z</time>
      </trkpt>
      <trkpt lat="44.76474" lon="0.22786">
        <ele>104.983445</ele>
        <time>2022-07-11T18:47:48.943Z</time>
      </trkpt>
      <trkpt lat="44.76452" lon="0.22643">
        <ele>101.815251</ele>
        <time>2022-07-11T18:48:03.020Z</time>
      </trkpt>
      <trkpt lat="44.76457" lon="0.2246">
        <ele>97.994433</ele>
        <time>2022-07-11T18:48:21.167Z</time>
      </trkpt>
      <trkpt lat="44.76434" lon="0.22357">
        <ele>95.934099</ele>
        <time>2022-07-11T18:48:32.224Z</time>
      </trkpt>
      <trkpt lat="44.76435" lon="0.22338">
        <ele>95.573036</ele>
        <time>2022-07-11T18:48:34.104Z</time>
      </trkpt>
      <trkpt lat="44.76439" lon="0.22331">
        <ele>95.396662</ele>
        <time>2022-07-11T18:48:35.001Z</time>
      </trkpt>
      <trkpt lat="44.76485" lon="0.22304">
        <ele>94.035236</ele>
        <time>2022-07-11T18:48:41.915Z</time>
      </trkpt>
      <trkpt lat="44.76552" lon="0.22265">
        <ele>91.958887</ele>
        <time>2022-07-11T18:48:51.818Z</time>
      </trkpt>
      <trkpt lat="44.7656" lon="0.22254">
        <ele>91.640792</ele>
        <time>2022-07-11T18:48:53.344Z</time>
      </trkpt>
      <trkpt lat="44.76567" lon="0.22226">
        <ele>91.036713</ele>
        <time>2022-07-11T18:48:56.174Z</time>
      </trkpt>
      <trkpt lat="44.76565" lon="0.22208">
        <ele>90.661991</ele>
        <time>2022-07-11T18:48:58.030Z</time>
      </trkpt>
      <trkpt lat="44.76507" lon="0.22081">
        <ele>88.614462</ele>
        <time>2022-07-11T18:49:13.301Z</time>
      </trkpt>
      <trkpt lat="44.76505" lon="0.22076">
        <ele>88.570381</ele>
        <time>2022-07-11T18:49:13.850Z</time>
      </trkpt>
      <trkpt lat="44.7649" lon="0.22031">
        <ele>88.159878</ele>
        <time>2022-07-11T18:49:19.275Z</time>
      </trkpt>
      <trkpt lat="44.76493" lon="0.21985">
        <ele>87.786872</ele>
        <time>2022-07-11T18:49:24.595Z</time>
      </trkpt>
      <trkpt lat="44.76534" lon="0.2189">
        <ele>87.616698</ele>
        <time>2022-07-11T18:49:39.848Z</time>
      </trkpt>
      <trkpt lat="44.76536" lon="0.21861">
        <ele>87.86926</ele>
        <time>2022-07-11T18:49:44.632Z</time>
      </trkpt>
      <trkpt lat="44.76521" lon="0.21817">
        <ele>88.295508</ele>
        <time>2022-07-11T18:49:52.816Z</time>
      </trkpt>
      <trkpt lat="44.76409" lon="0.2157">
        <ele>90.97185</ele>
        <time>2022-07-11T18:50:42.678Z</time>
      </trkpt>
      <trkpt lat="44.76401" lon="0.2154">
        <ele>91.282359</ele>
        <time>2022-07-11T18:50:47.920Z</time>
      </trkpt>
      <trkpt lat="44.76395" lon="0.21465">
        <ele>91.872335</ele>
        <time>2022-07-11T18:51:00.009Z</time>
      </trkpt>
      <trkpt lat="44.76419" lon="0.21291">
        <ele>92.166071</ele>
        <time>2022-07-11T18:51:24.862Z</time>
      </trkpt>
      <trkpt lat="44.76418" lon="0.21231">
        <ele>92.263019</ele>
        <time>2022-07-11T18:51:31.967Z</time>
      </trkpt>
      <trkpt lat="44.76404" lon="0.21197">
        <ele>91.913374</ele>
        <time>2022-07-11T18:51:36.342Z</time>
      </trkpt>
      <trkpt lat="44.76354" lon="0.2113">
        <ele>91.046167</ele>
        <time>2022-07-11T18:51:46.809Z</time>
      </trkpt>
      <trkpt lat="44.76289" lon="0.20975">
        <ele>89.859048</ele>
        <time>2022-07-11T18:52:06.310Z</time>
      </trkpt>
      <trkpt lat="44.76186" lon="0.2082">
        <ele>89.380107</ele>
        <time>2022-07-11T18:52:35.031Z</time>
      </trkpt>
      <trkpt lat="44.76163" lon="0.20765">
        <ele>89.192466</ele>
        <time>2022-07-11T18:52:44.785Z</time>
      </trkpt>
      <trkpt lat="44.7615" lon="0.20731">
        <ele>89.082344</ele>
        <time>2022-07-11T18:52:49.717Z</time>
      </trkpt>
      <trkpt lat="44.7613" lon="0.20703">
        <ele>88.964048</ele>
        <time>2022-07-11T18:52:54.853Z</time>
      </trkpt>
      <trkpt lat="44.76084" lon="0.20667">
        <ele>88.747917</ele>
        <time>2022-07-11T18:53:03.575Z</time>
      </trkpt>
      <trkpt lat="44.76035" lon="0.20662">
        <ele>88.037539</ele>
        <time>2022-07-11T18:53:11.218Z</time>
      </trkpt>
      <trkpt lat="44.75996" lon="0.20666">
        <ele>87.375705</ele>
        <time>2022-07-11T18:53:17.016Z</time>
      </trkpt>
      <trkpt lat="44.75981" lon="0.20658">
        <ele>87.092349</ele>
        <time>2022-07-11T18:53:19.477Z</time>
      </trkpt>
      <trkpt lat="44.75944" lon="0.20628">
        <ele>86.369646</ele>
        <time>2022-07-11T18:53:25.810Z</time>
      </trkpt>
      <trkpt lat="44.75854" lon="0.20519">
        <ele>86.479367</ele>
        <time>2022-07-11T18:53:46.282Z</time>
      </trkpt>
      <trkpt lat="44.75816" lon="0.20511">
        <ele>86.907404</ele>
        <time>2022-07-11T18:53:55.079Z</time>
      </trkpt>
      <trkpt lat="44.75746" lon="0.20472">
        <ele>87.991019</ele>
        <time>2022-07-11T18:54:17.206Z</time>
      </trkpt>
      <trkpt lat="44.75637" lon="0.20419">
        <ele>91.986845</ele>
        <time>2022-07-11T18:54:55.680Z</time>
      </trkpt>
      <trkpt lat="44.75631" lon="0.20361">
        <ele>93.410757</ele>
        <time>2022-07-11T18:55:09.077Z</time>
      </trkpt>
      <trkpt lat="44.75617" lon="0.20307">
        <ele>94.537129</ele>
        <time>2022-07-11T18:55:21.797Z</time>
      </trkpt>
      <trkpt lat="44.75532" lon="0.2006">
        <ele>98.779855</ele>
        <time>2022-07-11T18:56:14.493Z</time>
      </trkpt>
      <trkpt lat="44.75484" lon="0.19774">
        <ele>101.693468</ele>
        <time>2022-07-11T18:57:04.078Z</time>
      </trkpt>
      <trkpt lat="44.75462" lon="0.19676">
        <ele>102.533341</ele>
        <time>2022-07-11T18:57:19.779Z</time>
      </trkpt>
      <trkpt lat="44.75433" lon="0.19616">
        <ele>103.312103</ele>
        <time>2022-07-11T18:57:31.080Z</time>
      </trkpt>
      <trkpt lat="44.75268" lon="0.19269">
        <ele>111.314875</ele>
        <time>2022-07-11T18:58:58.415Z</time>
      </trkpt>
      <trkpt lat="44.75201" lon="0.19114">
        <ele>115.090975</ele>
        <time>2022-07-11T18:59:42.183Z</time>
      </trkpt>
      <trkpt lat="44.75175" lon="0.19067">
        <ele>116.306184</ele>
        <time>2022-07-11T18:59:55.349Z</time>
      </trkpt>
      <trkpt lat="44.7514" lon="0.19015">
        <ele>117.749237</ele>
        <time>2022-07-11T19:00:09.942Z</time>
      </trkpt>
      <trkpt lat="44.7489" lon="0.18831">
        <ele>116.671246</ele>
        <time>2022-07-11T19:01:00.863Z</time>
      </trkpt>
      <trkpt lat="44.74869" lon="0.1881">
        <ele>116.279313</ele>
        <time>2022-07-11T19:01:04.701Z</time>
      </trkpt>
      <trkpt lat="44.74851" lon="0.18806">
        <ele>116.017255</ele>
        <time>2022-07-11T19:01:07.232Z</time>
      </trkpt>
      <trkpt lat="44.74696" lon="0.18832">
        <ele>113.390605</ele>
        <time>2022-07-11T19:01:29.945Z</time>
      </trkpt>
      <trkpt lat="44.74677" lon="0.1882">
        <ele>113.015635</ele>
        <time>2022-07-11T19:01:33.242Z</time>
      </trkpt>
      <trkpt lat="44.74553" lon="0.18639">
        <ele>114.795194</ele>
        <time>2022-07-11T19:02:14.527Z</time>
      </trkpt>
      <trkpt lat="44.74474" lon="0.18378">
        <ele>120.768514</ele>
        <time>2022-07-11T19:03:25.118Z</time>
      </trkpt>
      <trkpt lat="44.74358" lon="0.18273">
        <ele>121.23</ele>
        <time>2022-07-11T19:03:51.226Z</time>
      </trkpt>
      <trkpt lat="44.74361" lon="0.18106">
        <ele>120.82726</ele>
        <time>2022-07-11T19:04:09.925Z</time>
      </trkpt>
      <trkpt lat="44.74352" lon="0.18078">
        <ele>120.720723</ele>
        <time>2022-07-11T19:04:13.820Z</time>
      </trkpt>
      <trkpt lat="44.74268" lon="0.17967">
        <ele>120.191461</ele>
        <time>2022-07-11T19:04:35.932Z</time>
      </trkpt>
      <trkpt lat="44.74249" lon="0.17925">
        <ele>120.081434</ele>
        <time>2022-07-11T19:04:42.457Z</time>
      </trkpt>
      <trkpt lat="44.74195" lon="0.17772">
        <ele>119.701544</ele>
        <time>2022-07-11T19:05:03.944Z</time>
      </trkpt>
      <trkpt lat="44.74177" lon="0.17744">
        <ele>119.60798</ele>
        <time>2022-07-11T19:05:08.456Z</time>
      </trkpt>
      <trkpt lat="44.74109" lon="0.17671">
        <ele>119.289415</ele>
        <time>2022-07-11T19:05:23.267Z</time>
      </trkpt>
      <trkpt lat="44.74049" lon="0.17584">
        <ele>119.042962</ele>
        <time>2022-07-11T19:05:38.606Z</time>
      </trkpt>
      <trkpt lat="44.73848" lon="0.17407">
        <ele>120.194217</ele>
        <time>2022-07-11T19:06:29.413Z</time>
      </trkpt>
      <trkpt lat="44.7396" lon="0.17128">
        <ele>120.017359</ele>
        <time>2022-07-11T19:07:09.802Z</time>
      </trkpt>
      <trkpt lat="44.73968" lon="0.17103">
        <ele>119.935109</ele>
        <time>2022-07-11T19:07:12.904Z</time>
      </trkpt>
      <trkpt lat="44.73969" lon="0.1704">
        <ele>119.742798</ele>
        <time>2022-07-11T19:07:20.095Z</time>
      </trkpt>
      <trkpt lat="44.73957" lon="0.16513">
        <ele>114.482132</ele>
        <time>2022-07-11T19:08:17.485Z</time>
      </trkpt>
      <trkpt lat="44.73963" lon="0.16422">
        <ele>113.540661</ele>
        <time>2022-07-11T19:08:27.263Z</time>
      </trkpt>
      <trkpt lat="44.74018" lon="0.1622">
        <ele>111.471043</ele>
        <time>2022-07-11T19:08:50.862Z</time>
      </trkpt>
      <trkpt lat="44.74081" lon="0.15982">
        <ele>109.513719</ele>
        <time>2022-07-11T19:09:19.513Z</time>
      </trkpt>
      <trkpt lat="44.74091" lon="0.15969">
        <ele>109.376624</ele>
        <time>2022-07-11T19:09:21.727Z</time>
      </trkpt>
      <trkpt lat="44.74193" lon="0.15903">
        <ele>108.270987</ele>
        <time>2022-07-11T19:09:39.460Z</time>
      </trkpt>
      <trkpt lat="44.74168" lon="0.15778">
        <ele>107.942061</ele>
        <time>2022-07-11T19:09:55.081Z</time>
      </trkpt>
      <trkpt lat="44.74174" lon="0.15775">
        <ele>107.922284</ele>
        <time>2022-07-11T19:09:56.053Z</time>
      </trkpt>
      <trkpt lat="44.74066" lon="0.15394">
        <ele>107.711582</ele>
        <time>2022-07-11T19:10:50.796Z</time>
      </trkpt>
      <trkpt lat="44.74051" lon="0.15326">
        <ele>107.156325</ele>
        <time>2022-07-11T19:10:59.017Z</time>
      </trkpt>
      <trkpt lat="44.74002" lon="0.14992">
        <ele>103.899927</ele>
        <time>2022-07-11T19:11:35.286Z</time>
      </trkpt>
      <trkpt lat="44.73968" lon="0.14871">
        <ele>103.315458</ele>
        <time>2022-07-11T19:11:50.076Z</time>
      </trkpt>
      <trkpt lat="44.73962" lon="0.14852">
        <ele>103.325228</ele>
        <time>2022-07-11T19:11:52.588Z</time>
      </trkpt>
      <trkpt lat="44.7396" lon="0.14847">
        <ele>103.327748</ele>
        <time>2022-07-11T19:11:53.260Z</time>
      </trkpt>
      <trkpt lat="44.73956" lon="0.14833">
        <ele>103.334441</ele>
        <time>2022-07-11T19:11:55.048Z</time>
      </trkpt>
      <trkpt lat="44.73781" lon="0.14193">
        <ele>104.154397</ele>
        <time>2022-07-11T19:13:27.882Z</time>
      </trkpt>
      <trkpt lat="44.73739" lon="0.14053">
        <ele>104.32042</ele>
        <time>2022-07-11T19:13:48.695Z</time>
      </trkpt>
      <trkpt lat="44.73709" lon="0.13998">
        <ele>104.350639</ele>
        <time>2022-07-11T19:13:57.295Z</time>
      </trkpt>
      <trkpt lat="44.73674" lon="0.1395">
        <ele>104.049169</ele>
        <time>2022-07-11T19:14:05.441Z</time>
      </trkpt>
      <trkpt lat="44.73645" lon="0.13926">
        <ele>103.845064</ele>
        <time>2022-07-11T19:14:10.705Z</time>
      </trkpt>
      <trkpt lat="44.73541" lon="0.13871">
        <ele>103.211826</ele>
        <time>2022-07-11T19:14:28.994Z</time>
      </trkpt>
      <trkpt lat="44.73512" lon="0.13851">
        <ele>103.099229</ele>
        <time>2022-07-11T19:14:34.438Z</time>
      </trkpt>
      <trkpt lat="44.73505" lon="0.13843">
        <ele>103.068867</ele>
        <time>2022-07-11T19:14:35.940Z</time>
      </trkpt>
      <trkpt lat="44.7348" lon="0.13801">
        <ele>102.934829</ele>
        <time>2022-07-11T19:14:42.933Z</time>
      </trkpt>
      <trkpt lat="44.73455" lon="0.13672">
        <ele>102.521087</ele>
        <time>2022-07-11T19:14:59.308Z</time>
      </trkpt>
      <trkpt lat="44.73445" lon="0.13586">
        <ele>101.940287</ele>
        <time>2022-07-11T19:15:09.495Z</time>
      </trkpt>
      <trkpt lat="44.73428" lon="0.13437">
        <ele>100.986958</ele>
        <time>2022-07-11T19:15:25.952Z</time>
      </trkpt>
      <trkpt lat="44.73413" lon="0.13281">
        <ele>101.139791</ele>
        <time>2022-07-11T19:15:44.096Z</time>
      </trkpt>
      <trkpt lat="44.73416" lon="0.13193">
        <ele>101.225039</ele>
        <time>2022-07-11T19:15:58.985Z</time>
      </trkpt>
      <trkpt lat="44.73427" lon="0.1306">
        <ele>103.888137</ele>
        <time>2022-07-11T19:16:27.182Z</time>
      </trkpt>
      <trkpt lat="44.73466" lon="0.12909">
        <ele>106.874405</ele>
        <time>2022-07-11T19:17:01.930Z</time>
      </trkpt>
      <trkpt lat="44.73478" lon="0.12851">
        <ele>107.711958</ele>
        <time>2022-07-11T19:17:13.615Z</time>
      </trkpt>
      <trkpt lat="44.73495" lon="0.12811">
        <ele>108.374899</ele>
        <time>2022-07-11T19:17:22.318Z</time>
      </trkpt>
      <trkpt lat="44.7362" lon="0.12587">
        <ele>111.38662</ele>
        <time>2022-07-11T19:18:07.674Z</time>
      </trkpt>
      <trkpt lat="44.7365" lon="0.12522">
        <ele>112.060582</ele>
        <time>2022-07-11T19:18:20.200Z</time>
      </trkpt>
      <trkpt lat="44.73711" lon="0.12315">
        <ele>114.248335</ele>
        <time>2022-07-11T19:18:57.970Z</time>
      </trkpt>
      <trkpt lat="44.73737" lon="0.12194">
        <ele>114.85342</ele>
        <time>2022-07-11T19:19:17.725Z</time>
      </trkpt>
      <trkpt lat="44.73778" lon="0.11838">
        <ele>115.409107</ele>
        <time>2022-07-11T19:20:04.346Z</time>
      </trkpt>
      <trkpt lat="44.73791" lon="0.11685">
        <ele>115.063714</ele>
        <time>2022-07-11T19:20:23.239Z</time>
      </trkpt>
      <trkpt lat="44.73835" lon="0.11426">
        <ele>113.440905</ele>
        <time>2022-07-11T19:20:54.305Z</time>
      </trkpt>
      <trkpt lat="44.73872" lon="0.11204">
        <ele>111.005959</ele>
        <time>2022-07-11T19:21:18.133Z</time>
      </trkpt>
      <trkpt lat="44.73871" lon="0.11192">
        <ele>110.848235</ele>
        <time>2022-07-11T19:21:19.426Z</time>
      </trkpt>
      <trkpt lat="44.73866" lon="0.1116">
        <ele>110.452029</ele>
        <time>2022-07-11T19:21:22.745Z</time>
      </trkpt>
      <trkpt lat="44.73729" lon="0.10773">
        <ele>105.74765</ele>
        <time>2022-07-11T19:22:09.810Z</time>
      </trkpt>
      <trkpt lat="44.73698" lon="0.10672">
        <ele>104.554756</ele>
        <time>2022-07-11T19:22:21.686Z</time>
      </trkpt>
      <trkpt lat="44.73692" lon="0.10624">
        <ele>104.022783</ele>
        <time>2022-07-11T19:22:26.927Z</time>
      </trkpt>
      <trkpt lat="44.73674" lon="0.1032">
        <ele>101.037237</ele>
        <time>2022-07-11T19:22:59.871Z</time>
      </trkpt>
      <trkpt lat="44.73684" lon="0.10079">
        <ele>100.196784</ele>
        <time>2022-07-11T19:23:28.820Z</time>
      </trkpt>
      <trkpt lat="44.73692" lon="0.09925">
        <ele>100.414997</ele>
        <time>2022-07-11T19:23:49.971Z</time>
      </trkpt>
      <trkpt lat="44.73683" lon="0.09783">
        <ele>100.135443</ele>
        <time>2022-07-11T19:24:09.359Z</time>
      </trkpt>
      <trkpt lat="44.73714" lon="0.09653">
        <ele>99.165954</ele>
        <time>2022-07-11T19:24:24.748Z</time>
      </trkpt>
      <trkpt lat="44.73717" lon="0.09427">
        <ele>97.008067</ele>
        <time>2022-07-11T19:24:48.215Z</time>
      </trkpt>
      <trkpt lat="44.73728" lon="0.09338">
        <ele>96.129371</ele>
        <time>2022-07-11T19:24:58.602Z</time>
      </trkpt>
      <trkpt lat="44.7374" lon="0.09298">
        <ele>96.310197</ele>
        <time>2022-07-11T19:25:04.122Z</time>
      </trkpt>
      <trkpt lat="44.73755" lon="0.09272">
        <ele>96.453239</ele>
        <time>2022-07-11T19:25:08.839Z</time>
      </trkpt>
      <trkpt lat="44.73811" lon="0.09215">
        <ele>96.870525</ele>
        <time>2022-07-11T19:25:24.076Z</time>
      </trkpt>
      <trkpt lat="44.73837" lon="0.09196">
        <ele>97.042791</ele>
        <time>2022-07-11T19:25:30.609Z</time>
      </trkpt>
      <trkpt lat="44.73862" lon="0.09159">
        <ele>97.214336</ele>
        <time>2022-07-11T19:25:38.620Z</time>
      </trkpt>
      <trkpt lat="44.7387" lon="0.09129">
        <ele>97.262239</ele>
        <time>2022-07-11T19:25:43.505Z</time>
      </trkpt>
      <trkpt lat="44.73881" lon="0.09028">
        <ele>97.415355</ele>
        <time>2022-07-11T19:25:57.127Z</time>
      </trkpt>
      <trkpt lat="44.7388" lon="0.08982">
        <ele>97.485412</ele>
        <time>2022-07-11T19:26:02.762Z</time>
      </trkpt>
      <trkpt lat="44.73867" lon="0.08926">
        <ele>97.577744</ele>
        <time>2022-07-11T19:26:09.735Z</time>
      </trkpt>
      <trkpt lat="44.73847" lon="0.08883">
        <ele>97.72122</ele>
        <time>2022-07-11T19:26:15.832Z</time>
      </trkpt>
      <trkpt lat="44.74033" lon="0.08379">
        <ele>99.994197</ele>
        <time>2022-07-11T19:27:38.928Z</time>
      </trkpt>
      <trkpt lat="44.74174" lon="0.07996">
        <ele>101.68375</ele>
        <time>2022-07-11T19:28:38.962Z</time>
      </trkpt>
      <trkpt lat="44.74237" lon="0.07825">
        <ele>102.907119</ele>
        <time>2022-07-11T19:29:08.743Z</time>
      </trkpt>
      <trkpt lat="44.74246" lon="0.07803">
        <ele>103.032606</ele>
        <time>2022-07-11T19:29:12.965Z</time>
      </trkpt>
      <trkpt lat="44.7427" lon="0.07738">
        <ele>103.014059</ele>
        <time>2022-07-11T19:29:24.156Z</time>
      </trkpt>
      <trkpt lat="44.7428" lon="0.07735">
        <ele>103.010654</ele>
        <time>2022-07-11T19:29:26.095Z</time>
      </trkpt>
      <trkpt lat="44.74289" lon="0.07684">
        <ele>102.997164</ele>
        <time>2022-07-11T19:29:33.675Z</time>
      </trkpt>
      <trkpt lat="44.74292" lon="0.07676">
        <ele>102.995061</ele>
        <time>2022-07-11T19:29:34.909Z</time>
      </trkpt>
      <trkpt lat="44.7431" lon="0.07625">
        <ele>102.980596</ele>
        <time>2022-07-11T19:29:41.829Z</time>
      </trkpt>
      <trkpt lat="44.74316" lon="0.07611">
        <ele>102.976602</ele>
        <time>2022-07-11T19:29:43.569Z</time>
      </trkpt>
      <trkpt lat="44.74331" lon="0.07566">
        <ele>102.25005</ele>
        <time>2022-07-11T19:29:48.921Z</time>
      </trkpt>
      <trkpt lat="44.74361" lon="0.07582">
        <ele>100.872158</ele>
        <time>2022-07-11T19:29:53.488Z</time>
      </trkpt>
      <trkpt lat="44.74369" lon="0.07549">
        <ele>99.814213</ele>
        <time>2022-07-11T19:29:56.780Z</time>
      </trkpt>
      <trkpt lat="44.7438" lon="0.07537">
        <ele>99.213588</ele>
        <time>2022-07-11T19:29:58.579Z</time>
      </trkpt>
      <trkpt lat="44.74389" lon="0.07466">
        <ele>97.038616</ele>
        <time>2022-07-11T19:30:05.192Z</time>
      </trkpt>
      <trkpt lat="44.74409" lon="0.07394">
        <ele>94.539817</ele>
        <time>2022-07-11T19:30:11.750Z</time>
      </trkpt>
      <trkpt lat="44.7443" lon="0.07354">
        <ele>92.565816</ele>
        <time>2022-07-11T19:30:15.992Z</time>
      </trkpt>
      <trkpt lat="44.74459" lon="0.07323">
        <ele>90.547882</ele>
        <time>2022-07-11T19:30:20.346Z</time>
      </trkpt>
      <trkpt lat="44.7449" lon="0.07309">
        <ele>88.739498</ele>
        <time>2022-07-11T19:30:24.298Z</time>
      </trkpt>
      <trkpt lat="44.74521" lon="0.07306">
        <ele>86.989172</ele>
        <time>2022-07-11T19:30:28.181Z</time>
      </trkpt>
      <trkpt lat="44.74526" lon="0.07305">
        <ele>86.688012</ele>
        <time>2022-07-11T19:30:28.869Z</time>
      </trkpt>
      <trkpt lat="44.74583" lon="0.07062">
        <ele>83.560944</ele>
        <time>2022-07-11T19:30:56.446Z</time>
      </trkpt>
      <trkpt lat="44.74597" lon="0.07034">
        <ele>83.320501</ele>
        <time>2022-07-11T19:31:02.383Z</time>
      </trkpt>
      <trkpt lat="44.74607" lon="0.07022">
        <ele>83.526389</ele>
        <time>2022-07-11T19:31:06.342Z</time>
      </trkpt>
      <trkpt lat="44.74651" lon="0.06997">
        <ele>84.250969</ele>
        <time>2022-07-11T19:31:18.623Z</time>
      </trkpt>
      <trkpt lat="44.74701" lon="0.06965">
        <ele>85.082938</ele>
        <time>2022-07-11T19:31:32.832Z</time>
      </trkpt>
      <trkpt lat="44.74733" lon="0.06923">
        <ele>85.753479</ele>
        <time>2022-07-11T19:31:44.265Z</time>
      </trkpt>
      <trkpt lat="44.74894" lon="0.067">
        <ele>87.570537</ele>
        <time>2022-07-11T19:32:28.213Z</time>
      </trkpt>
      <trkpt lat="44.749" lon="0.06685">
        <ele>87.779301</ele>
        <time>2022-07-11T19:32:30.938Z</time>
      </trkpt>
      <trkpt lat="44.74906" lon="0.06659">
        <ele>88.123796</ele>
        <time>2022-07-11T19:32:35.590Z</time>
      </trkpt>
      <trkpt lat="44.74903" lon="0.06627">
        <ele>88.520935</ele>
        <time>2022-07-11T19:32:41.175Z</time>
      </trkpt>
      <trkpt lat="44.74885" lon="0.06587">
        <ele>89.102355</ele>
        <time>2022-07-11T19:32:49.967Z</time>
      </trkpt>
      <trkpt lat="44.74877" lon="0.06548">
        <ele>89.599584</ele>
        <time>2022-07-11T19:32:57.727Z</time>
      </trkpt>
      <trkpt lat="44.74883" lon="0.06511">
        <ele>90.069708</ele>
        <time>2022-07-11T19:33:05.178Z</time>
      </trkpt>
      <trkpt lat="44.74903" lon="0.06479">
        <ele>90.628641</ele>
        <time>2022-07-11T19:33:13.911Z</time>
      </trkpt>
      <trkpt lat="44.7496" lon="0.06423">
        <ele>91.937428</ele>
        <time>2022-07-11T19:33:32.937Z</time>
      </trkpt>
      <trkpt lat="44.75054" lon="0.06332">
        <ele>93.669399</ele>
        <time>2022-07-11T19:34:00.138Z</time>
      </trkpt>
      <trkpt lat="44.75081" lon="0.06294">
        <ele>93.735079</ele>
        <time>2022-07-11T19:34:06.839Z</time>
      </trkpt>
      <trkpt lat="44.75179" lon="0.0603">
        <ele>94.425179</ele>
        <time>2022-07-11T19:34:43.749Z</time>
      </trkpt>
      <trkpt lat="44.75221" lon="0.05983">
        <ele>94.70746</ele>
        <time>2022-07-11T19:34:56.306Z</time>
      </trkpt>
      <trkpt lat="44.75324" lon="0.05932">
        <ele>94.540141</ele>
        <time>2022-07-11T19:35:20.395Z</time>
      </trkpt>
      <trkpt lat="44.75327" lon="0.05931">
        <ele>94.526339</ele>
        <time>2022-07-11T19:35:21.063Z</time>
      </trkpt>
      <trkpt lat="44.75555" lon="0.05827">
        <ele>90.893122</ele>
        <time>2022-07-11T19:35:56.989Z</time>
      </trkpt>
      <trkpt lat="44.75573" lon="0.05812">
        <ele>90.419218</ele>
        <time>2022-07-11T19:35:59.802Z</time>
      </trkpt>
      <trkpt lat="44.75588" lon="0.05789">
        <ele>89.814924</ele>
        <time>2022-07-11T19:36:02.792Z</time>
      </trkpt>
      <trkpt lat="44.75604" lon="0.05749">
        <ele>88.327669</ele>
        <time>2022-07-11T19:36:07.044Z</time>
      </trkpt>
      <trkpt lat="44.75642" lon="0.05647">
        <ele>84.574967</ele>
        <time>2022-07-11T19:36:17.502Z</time>
      </trkpt>
      <trkpt lat="44.75672" lon="0.05566">
        <ele>81.588771</ele>
        <time>2022-07-11T19:36:25.687Z</time>
      </trkpt>
      <trkpt lat="44.75701" lon="0.05488">
        <ele>78.781126</ele>
        <time>2022-07-11T19:36:33.667Z</time>
      </trkpt>
      <trkpt lat="44.75746" lon="0.05366">
        <ele>74.462219</ele>
        <time>2022-07-11T19:36:46.276Z</time>
      </trkpt>
      <trkpt lat="44.75756" lon="0.05317">
        <ele>72.986629</ele>
        <time>2022-07-11T19:36:51.193Z</time>
      </trkpt>
      <trkpt lat="44.75761" lon="0.05206">
        <ele>70.042999</ele>
        <time>2022-07-11T19:37:02.002Z</time>
      </trkpt>
      <trkpt lat="44.7575" lon="0.05146">
        <ele>68.375272</ele>
        <time>2022-07-11T19:37:07.945Z</time>
      </trkpt>
      <trkpt lat="44.75727" lon="0.05109">
        <ele>67.08445</ele>
        <time>2022-07-11T19:37:12.465Z</time>
      </trkpt>
      <trkpt lat="44.7569" lon="0.0508">
        <ele>64.572337</ele>
        <time>2022-07-11T19:37:17.991Z</time>
      </trkpt>
      <trkpt lat="44.75666" lon="0.0507">
        <ele>63.116407</ele>
        <time>2022-07-11T19:37:21.080Z</time>
      </trkpt>
      <trkpt lat="44.7561" lon="0.05056">
        <ele>59.71451</ele>
        <time>2022-07-11T19:37:28.016Z</time>
      </trkpt>
      <trkpt lat="44.7552" lon="0.05061">
        <ele>54.671149</ele>
        <time>2022-07-11T19:37:38.815Z</time>
      </trkpt>
      <trkpt lat="44.75505" lon="0.05056">
        <ele>53.939198</ele>
        <time>2022-07-11T19:37:40.775Z</time>
      </trkpt>
      <trkpt lat="44.75495" lon="0.05044">
        <ele>53.336076</ele>
        <time>2022-07-11T19:37:42.220Z</time>
      </trkpt>
      <trkpt lat="44.75482" lon="0.05">
        <ele>51.695122</ele>
        <time>2022-07-11T19:37:46.522Z</time>
      </trkpt>
      <trkpt lat="44.75451" lon="0.04745">
        <ele>46.830185</ele>
        <time>2022-07-11T19:38:12.349Z</time>
      </trkpt>
      <trkpt lat="44.75467" lon="0.04678">
        <ele>46.421192</ele>
        <time>2022-07-11T19:38:23.006Z</time>
      </trkpt>
      <trkpt lat="44.7546" lon="0.04663">
        <ele>46.317126</ele>
        <time>2022-07-11T19:38:26.081Z</time>
      </trkpt>
      <trkpt lat="44.75461" lon="0.04644">
        <ele>46.206462</ele>
        <time>2022-07-11T19:38:29.518Z</time>
      </trkpt>
      <trkpt lat="44.75481" lon="0.04472">
        <ele>48.641886</ele>
        <time>2022-07-11T19:39:03.010Z</time>
      </trkpt>
      <trkpt lat="44.75488" lon="0.04426">
        <ele>49.349023</ele>
        <time>2022-07-11T19:39:12.779Z</time>
      </trkpt>
      <trkpt lat="44.75512" lon="0.04351">
        <ele>50.640772</ele>
        <time>2022-07-11T19:39:28.494Z</time>
      </trkpt>
      <trkpt lat="44.75517" lon="0.04299">
        <ele>51.510401</ele>
        <time>2022-07-11T19:39:38.446Z</time>
      </trkpt>
      <trkpt lat="44.75573" lon="0.04216">
        <ele>53.416458</ele>
        <time>2022-07-11T19:40:00.187Z</time>
      </trkpt>
      <trkpt lat="44.75582" lon="0.04193">
        <ele>53.854092</ele>
        <time>2022-07-11T19:40:05.099Z</time>
      </trkpt>
      <trkpt lat="44.75588" lon="0.04109">
        <ele>55.863462</ele>
        <time>2022-07-11T19:40:25.360Z</time>
      </trkpt>
      <trkpt lat="44.7564" lon="0.04013">
        <ele>58.955651</ele>
        <time>2022-07-11T19:40:52.716Z</time>
      </trkpt>
      <trkpt lat="44.75647" lon="0.03992">
        <ele>59.551332</ele>
        <time>2022-07-11T19:40:59.219Z</time>
      </trkpt>
      <trkpt lat="44.75547" lon="0.03934">
        <ele>64.462387</ele>
        <time>2022-07-11T19:41:37.358Z</time>
      </trkpt>
      <trkpt lat="44.75516" lon="0.03876">
        <ele>66.988314</ele>
        <time>2022-07-11T19:41:57.757Z</time>
      </trkpt>
      <trkpt lat="44.75484" lon="0.0386">
        <ele>68.637129</ele>
        <time>2022-07-11T19:42:09.775Z</time>
      </trkpt>
      <trkpt lat="44.75458" lon="0.03827">
        <ele>70.713461</ele>
        <time>2022-07-11T19:42:25.021Z</time>
      </trkpt>
      <trkpt lat="44.75456" lon="0.03821">
        <ele>71.055946</ele>
        <time>2022-07-11T19:42:27.060Z</time>
      </trkpt>
      <trkpt lat="44.7543" lon="0.03749">
        <ele>74.951542</ele>
        <time>2022-07-11T19:42:54.467Z</time>
      </trkpt>
      <trkpt lat="44.75427" lon="0.03713">
        <ele>76.655061</ele>
        <time>2022-07-11T19:43:05.762Z</time>
      </trkpt>
      <trkpt lat="44.75436" lon="0.03678">
        <ele>78.452101</ele>
        <time>2022-07-11T19:43:17.848Z</time>
      </trkpt>
      <trkpt lat="44.7546" lon="0.03656">
        <ele>80.388401</ele>
        <time>2022-07-11T19:43:32.370Z</time>
      </trkpt>
      <trkpt lat="44.75487" lon="0.03631">
        <ele>82.505014</ele>
        <time>2022-07-11T19:43:47.399Z</time>
      </trkpt>
      <trkpt lat="44.75551" lon="0.03626">
        <ele>86.701789</ele>
        <time>2022-07-11T19:44:16.683Z</time>
      </trkpt>
      <trkpt lat="44.75571" lon="0.03617">
        <ele>88.117389</ele>
        <time>2022-07-11T19:44:26.620Z</time>
      </trkpt>
      <trkpt lat="44.7559" lon="0.03582">
        <ele>90.127766</ele>
        <time>2022-07-11T19:44:42.128Z</time>
      </trkpt>
      <trkpt lat="44.7564" lon="0.03445">
        <ele>95.90419</ele>
        <time>2022-07-11T19:45:24.585Z</time>
      </trkpt>
      <trkpt lat="44.75661" lon="0.03407">
        <ele>97.385779</ele>
        <time>2022-07-11T19:45:37.707Z</time>
      </trkpt>
      <trkpt lat="44.75705" lon="0.0336">
        <ele>99.749725</ele>
        <time>2022-07-11T19:45:56.197Z</time>
      </trkpt>
      <trkpt lat="44.75787" lon="0.03291">
        <ele>102.467527</ele>
        <time>2022-07-11T19:46:24.639Z</time>
      </trkpt>
      <trkpt lat="44.75818" lon="0.03249">
        <ele>103.417429</ele>
        <time>2022-07-11T19:46:36.148Z</time>
      </trkpt>
      <trkpt lat="44.75847" lon="0.03228">
        <ele>104.123047</ele>
        <time>2022-07-11T19:46:44.343Z</time>
      </trkpt>
      <trkpt lat="44.75868" lon="0.03202">
        <ele>104.745109</ele>
        <time>2022-07-11T19:46:51.630Z</time>
      </trkpt>
      <trkpt lat="44.75894" lon="0.03125">
        <ele>105.673121</ele>
        <time>2022-07-11T19:47:06.305Z</time>
      </trkpt>
      <trkpt lat="44.75901" lon="0.031">
        <ele>105.94023</ele>
        <time>2022-07-11T19:47:10.491Z</time>
      </trkpt>
      <trkpt lat="44.75979" lon="0.02972">
        <ele>107.606984</ele>
        <time>2022-07-11T19:47:39.757Z</time>
      </trkpt>
      <trkpt lat="44.76073" lon="0.02769">
        <ele>109.600272</ele>
        <time>2022-07-11T19:48:19.495Z</time>
      </trkpt>
      <trkpt lat="44.76089" lon="0.02734">
        <ele>109.600385</ele>
        <time>2022-07-11T19:48:26.347Z</time>
      </trkpt>
      <trkpt lat="44.761" lon="0.02724">
        <ele>109.600434</ele>
        <time>2022-07-11T19:48:29.262Z</time>
      </trkpt>
      <trkpt lat="44.76098" lon="0.02713">
        <ele>109.600464</ele>
        <time>2022-07-11T19:48:30.922Z</time>
      </trkpt>
      <trkpt lat="44.76077" lon="0.02549">
        <ele>109.600914</ele>
        <time>2022-07-11T19:48:52.928Z</time>
      </trkpt>
      <trkpt lat="44.76099" lon="0.01984">
        <ele>101.206541</ele>
        <time>2022-07-11T19:49:54.031Z</time>
      </trkpt>
      <trkpt lat="44.76106" lon="0.01793">
        <ele>97.502573</ele>
        <time>2022-07-11T19:50:13.317Z</time>
      </trkpt>
      <trkpt lat="44.76114" lon="0.01686">
        <ele>98.081967</ele>
        <time>2022-07-11T19:50:25.548Z</time>
      </trkpt>
      <trkpt lat="44.76253" lon="0.01179">
        <ele>103.458703</ele>
        <time>2022-07-11T19:52:10.734Z</time>
      </trkpt>
      <trkpt lat="44.76273" lon="0.01015">
        <ele>104.741725</ele>
        <time>2022-07-11T19:52:35.020Z</time>
      </trkpt>
      <trkpt lat="44.76277" lon="0.00983">
        <ele>104.803082</ele>
        <time>2022-07-11T19:52:39.655Z</time>
      </trkpt>
      <trkpt lat="44.76281" lon="0.00951">
        <ele>104.863347</ele>
        <time>2022-07-11T19:52:43.858Z</time>
      </trkpt>
      <trkpt lat="44.76223" lon="0.00964">
        <ele>105.017264</ele>
        <time>2022-07-11T19:52:54.540Z</time>
      </trkpt>
      <trkpt lat="44.76149" lon="0.00966">
        <ele>105.370304</ele>
        <time>2022-07-11T19:53:08.732Z</time>
      </trkpt>
      <trkpt lat="44.76153" lon="0.00937">
        <ele>105.541641</ele>
        <time>2022-07-11T19:53:13.077Z</time>
      </trkpt>
      <trkpt lat="44.76179" lon="0.00842">
        <ele>106.128825</ele>
        <time>2022-07-11T19:53:28.456Z</time>
      </trkpt>
      <trkpt lat="44.76189" lon="0.00793">
        <ele>106.426319</ele>
        <time>2022-07-11T19:53:36.091Z</time>
      </trkpt>
      <trkpt lat="44.76192" lon="0.00756">
        <ele>106.679833</ele>
        <time>2022-07-11T19:53:41.755Z</time>
      </trkpt>
      <trkpt lat="44.76191" lon="0.0057">
        <ele>108.748317</ele>
        <time>2022-07-11T19:54:13.182Z</time>
      </trkpt>
      <trkpt lat="44.76177" lon="0.00541">
        <ele>109.140949</ele>
        <time>2022-07-11T19:54:19.850Z</time>
      </trkpt>
      <trkpt lat="44.76088" lon="0.00478">
        <ele>111.039619</ele>
        <time>2022-07-11T19:54:46.011Z</time>
      </trkpt>
      <trkpt lat="44.76048" lon="0.00422">
        <ele>112.143353</ele>
        <time>2022-07-11T19:55:00.186Z</time>
      </trkpt>
      <trkpt lat="44.76038" lon="0.00391">
        <ele>112.631152</ele>
        <time>2022-07-11T19:55:06.334Z</time>
      </trkpt>
      <trkpt lat="44.76036" lon="0.0037">
        <ele>112.931459</ele>
        <time>2022-07-11T19:55:10.168Z</time>
      </trkpt>
      <trkpt lat="44.76039" lon="0.00348">
        <ele>113.136114</ele>
        <time>2022-07-11T19:55:14.131Z</time>
      </trkpt>
      <trkpt lat="44.76055" lon="0.003">
        <ele>113.585284</ele>
        <time>2022-07-11T19:55:23.805Z</time>
      </trkpt>
      <trkpt lat="44.76082" lon="0.00226">
        <ele>114.286396</ele>
        <time>2022-07-11T19:55:38.238Z</time>
      </trkpt>
      <trkpt lat="44.76116" lon="0.00129">
        <ele>115.075041</ele>
        <time>2022-07-11T19:55:53.099Z</time>
      </trkpt>
      <trkpt lat="44.76128" lon="0.0008">
        <ele>114.83542</ele>
        <time>2022-07-11T19:55:59.862Z</time>
      </trkpt>
      <trkpt lat="44.76146" lon="4.0E-5">
        <ele>114.46724</ele>
        <time>2022-07-11T19:56:09.465Z</time>
      </trkpt>
      <trkpt lat="44.76152" lon="-0.00052">
        <ele>114.211126</ele>
        <time>2022-07-11T19:56:15.863Z</time>
      </trkpt>
      <trkpt lat="44.76141" lon="-0.0033">
        <ele>111.303082</ele>
        <time>2022-07-11T19:56:45.538Z</time>
      </trkpt>
      <trkpt lat="44.76144" lon="-0.00364">
        <ele>110.893309</ele>
        <time>2022-07-11T19:56:49.195Z</time>
      </trkpt>
      <trkpt lat="44.76155" lon="-0.00404">
        <ele>110.348171</ele>
        <time>2022-07-11T19:56:53.798Z</time>
      </trkpt>
      <trkpt lat="44.7625" lon="-0.00694">
        <ele>106.4957</ele>
        <time>2022-07-11T19:57:27.488Z</time>
      </trkpt>
      <trkpt lat="44.76255" lon="-0.00743">
        <ele>105.947416</ele>
        <time>2022-07-11T19:57:32.701Z</time>
      </trkpt>
      <trkpt lat="44.76247" lon="-0.00854">
        <ele>104.882899</ele>
        <time>2022-07-11T19:57:44.824Z</time>
      </trkpt>
      <trkpt lat="44.76219" lon="-0.01158">
        <ele>104.727254</ele>
        <time>2022-07-11T19:58:22.774Z</time>
      </trkpt>
      <trkpt lat="44.76209" lon="-0.01195">
        <ele>104.97209</ele>
        <time>2022-07-11T19:58:29.568Z</time>
      </trkpt>
      <trkpt lat="44.76143" lon="-0.0138">
        <ele>105.694807</ele>
        <time>2022-07-11T19:59:03.260Z</time>
      </trkpt>
      <trkpt lat="44.76127" lon="-0.01449">
        <ele>105.560378</ele>
        <time>2022-07-11T19:59:13.068Z</time>
      </trkpt>
      <trkpt lat="44.76124" lon="-0.0151">
        <ele>105.44804</ele>
        <time>2022-07-11T19:59:20.232Z</time>
      </trkpt>
      <trkpt lat="44.76137" lon="-0.01723">
        <ele>102.307643</ele>
        <time>2022-07-11T19:59:41.883Z</time>
      </trkpt>
      <trkpt lat="44.76119" lon="-0.01754">
        <ele>101.557149</ele>
        <time>2022-07-11T19:59:45.791Z</time>
      </trkpt>
      <trkpt lat="44.76011" lon="-0.01836">
        <ele>97.647892</ele>
        <time>2022-07-11T20:00:02.547Z</time>
      </trkpt>
      <trkpt lat="44.75986" lon="-0.01861">
        <ele>96.603919</ele>
        <time>2022-07-11T20:00:06.663Z</time>
      </trkpt>
      <trkpt lat="44.75659" lon="-0.02429">
        <ele>78.853974</ele>
        <time>2022-07-11T20:01:16.479Z</time>
      </trkpt>
      <trkpt lat="44.75634" lon="-0.02456">
        <ele>77.941062</ele>
        <time>2022-07-11T20:01:20.896Z</time>
      </trkpt>
      <trkpt lat="44.75585" lon="-0.02486">
        <ele>76.449485</ele>
        <time>2022-07-11T20:01:28.560Z</time>
      </trkpt>
      <trkpt lat="44.75568" lon="-0.02516">
        <ele>76.298673</ele>
        <time>2022-07-11T20:01:32.721Z</time>
      </trkpt>
      <trkpt lat="44.75562" lon="-0.02553">
        <ele>76.152201</ele>
        <time>2022-07-11T20:01:36.948Z</time>
      </trkpt>
      <trkpt lat="44.75546" lon="-0.02812">
        <ele>75.775259</ele>
        <time>2022-07-11T20:02:10.217Z</time>
      </trkpt>
      <trkpt lat="44.75551" lon="-0.02864">
        <ele>75.954309</ele>
        <time>2022-07-11T20:02:18.319Z</time>
      </trkpt>
      <trkpt lat="44.75597" lon="-0.02963">
        <ele>76.338634</ele>
        <time>2022-07-11T20:02:35.894Z</time>
      </trkpt>
      <trkpt lat="44.7562" lon="-0.02999">
        <ele>76.287136</ele>
        <time>2022-07-11T20:02:42.711Z</time>
      </trkpt>
      <trkpt lat="44.75769" lon="-0.03125">
        <ele>76.192574</ele>
        <time>2022-07-11T20:03:12.030Z</time>
      </trkpt>
      <trkpt lat="44.75779" lon="-0.03158">
        <ele>76.290496</ele>
        <time>2022-07-11T20:03:16.365Z</time>
      </trkpt>
      <trkpt lat="44.75766" lon="-0.03209">
        <ele>76.44113</ele>
        <time>2022-07-11T20:03:23.268Z</time>
      </trkpt>
      <trkpt lat="44.75725" lon="-0.03477">
        <ele>78.106216</ele>
        <time>2022-07-11T20:04:06.103Z</time>
      </trkpt>
      <trkpt lat="44.75733" lon="-0.03616">
        <ele>79.372732</ele>
        <time>2022-07-11T20:04:29.598Z</time>
      </trkpt>
      <trkpt lat="44.75731" lon="-0.03676">
        <ele>79.978607</ele>
        <time>2022-07-11T20:04:39.441Z</time>
      </trkpt>
      <trkpt lat="44.75729" lon="-0.03783">
        <ele>81.075598</ele>
        <time>2022-07-11T20:04:57.101Z</time>
      </trkpt>
      <trkpt lat="44.75734" lon="-0.03802">
        <ele>81.276938</ele>
        <time>2022-07-11T20:05:00.322Z</time>
      </trkpt>
      <trkpt lat="44.75748" lon="-0.0383">
        <ele>81.642407</ele>
        <time>2022-07-11T20:05:06.609Z</time>
      </trkpt>
      <trkpt lat="44.75818" lon="-0.0391">
        <ele>82.962308</ele>
        <time>2022-07-11T20:05:28.271Z</time>
      </trkpt>
      <trkpt lat="44.75833" lon="-0.03938">
        <ele>83.332266</ele>
        <time>2022-07-11T20:05:34.200Z</time>
      </trkpt>
      <trkpt lat="44.75841" lon="-0.03972">
        <ele>83.7096</ele>
        <time>2022-07-11T20:05:40.526Z</time>
      </trkpt>
      <trkpt lat="44.75868" lon="-0.04152">
        <ele>85.08341</ele>
        <time>2022-07-11T20:06:09.342Z</time>
      </trkpt>
      <trkpt lat="44.75921" lon="-0.04143">
        <ele>85.573342</ele>
        <time>2022-07-11T20:06:20.113Z</time>
      </trkpt>
      <trkpt lat="44.75947" lon="-0.04307">
        <ele>86.680402</ele>
        <time>2022-07-11T20:06:45.947Z</time>
      </trkpt>
      <trkpt lat="44.75949" lon="-0.04344">
        <ele>86.925129</ele>
        <time>2022-07-11T20:06:51.761Z</time>
      </trkpt>
      <trkpt lat="44.75869" lon="-0.04784">
        <ele>90.419388</ele>
        <time>2022-07-11T20:08:07.671Z</time>
      </trkpt>
      <trkpt lat="44.75853" lon="-0.04928">
        <ele>91.190978</ele>
        <time>2022-07-11T20:08:29.568Z</time>
      </trkpt>
      <trkpt lat="44.75837" lon="-0.0498">
        <ele>90.923746</ele>
        <time>2022-07-11T20:08:36.977Z</time>
      </trkpt>
      <trkpt lat="44.75756" lon="-0.05093">
        <ele>90.158611</ele>
        <time>2022-07-11T20:08:56.360Z</time>
      </trkpt>
      <trkpt lat="44.75585" lon="-0.05267">
        <ele>86.473747</ele>
        <time>2022-07-11T20:09:28.978Z</time>
      </trkpt>
      <trkpt lat="44.75564" lon="-0.05298">
        <ele>85.833761</ele>
        <time>2022-07-11T20:09:33.660Z</time>
      </trkpt>
      <trkpt lat="44.75552" lon="-0.05334">
        <ele>85.251829</ele>
        <time>2022-07-11T20:09:37.931Z</time>
      </trkpt>
      <trkpt lat="44.75549" lon="-0.05383">
        <ele>84.519793</ele>
        <time>2022-07-11T20:09:43.308Z</time>
      </trkpt>
      <trkpt lat="44.75567" lon="-0.05671">
        <ele>80.124731</ele>
        <time>2022-07-11T20:10:14.761Z</time>
      </trkpt>
      <trkpt lat="44.7559" lon="-0.05816">
        <ele>77.383081</ele>
        <time>2022-07-11T20:10:30.516Z</time>
      </trkpt>
      <trkpt lat="44.75614" lon="-0.05946">
        <ele>74.547997</ele>
        <time>2022-07-11T20:10:44.291Z</time>
      </trkpt>
      <trkpt lat="44.7562" lon="-0.06">
        <ele>73.283135</ele>
        <time>2022-07-11T20:10:49.849Z</time>
      </trkpt>
      <trkpt lat="44.75607" lon="-0.06039">
        <ele>72.006237</ele>
        <time>2022-07-11T20:10:54.085Z</time>
      </trkpt>
      <trkpt lat="44.75553" lon="-0.06122">
        <ele>68.67013</ele>
        <time>2022-07-11T20:11:04.872Z</time>
      </trkpt>
      <trkpt lat="44.75476" lon="-0.06188">
        <ele>64.535548</ele>
        <time>2022-07-11T20:11:17.365Z</time>
      </trkpt>
      <trkpt lat="44.75476" lon="-0.06199">
        <ele>64.11091</ele>
        <time>2022-07-11T20:11:18.355Z</time>
      </trkpt>
      <trkpt lat="44.75484" lon="-0.06205">
        <ele>63.597512</ele>
        <time>2022-07-11T20:11:19.683Z</time>
      </trkpt>
      <trkpt lat="44.75555" lon="-0.062">
        <ele>59.730065</ele>
        <time>2022-07-11T20:11:28.976Z</time>
      </trkpt>
      <trkpt lat="44.75578" lon="-0.06211">
        <ele>58.457932</ele>
        <time>2022-07-11T20:11:31.960Z</time>
      </trkpt>
      <trkpt lat="44.75623" lon="-0.06301">
        <ele>54.042738</ele>
        <time>2022-07-11T20:11:42.043Z</time>
      </trkpt>
      <trkpt lat="44.75645" lon="-0.06403">
        <ele>49.59621</ele>
        <time>2022-07-11T20:11:51.957Z</time>
      </trkpt>
      <trkpt lat="44.75668" lon="-0.06452">
        <ele>47.19217</ele>
        <time>2022-07-11T20:11:57.310Z</time>
      </trkpt>
      <trkpt lat="44.75702" lon="-0.0649">
        <ele>44.833271</ele>
        <time>2022-07-11T20:12:02.958Z</time>
      </trkpt>
      <trkpt lat="44.75763" lon="-0.06533">
        <ele>41.438672</ele>
        <time>2022-07-11T20:12:11.946Z</time>
      </trkpt>
      <trkpt lat="44.75778" lon="-0.0655">
        <ele>40.497073</ele>
        <time>2022-07-11T20:12:14.518Z</time>
      </trkpt>
      <trkpt lat="44.75793" lon="-0.06576">
        <ele>39.277292</ele>
        <time>2022-07-11T20:12:17.826Z</time>
      </trkpt>
      <trkpt lat="44.75848" lon="-0.06717">
        <ele>34.534749</ele>
        <time>2022-07-11T20:12:33.268Z</time>
      </trkpt>
      <trkpt lat="44.75797" lon="-0.06739">
        <ele>32.635795</ele>
        <time>2022-07-11T20:12:40.153Z</time>
      </trkpt>
      <trkpt lat="44.75743" lon="-0.06789">
        <ele>30.39994</ele>
        <time>2022-07-11T20:12:49.105Z</time>
      </trkpt>
      <trkpt lat="44.75693" lon="-0.06842">
        <ele>30.080296</ele>
        <time>2022-07-11T20:12:58.996Z</time>
      </trkpt>
      <trkpt lat="44.75633" lon="-0.06906">
        <ele>29.703296</ele>
        <time>2022-07-11T20:13:11.992Z</time>
      </trkpt>
      <trkpt lat="44.75601" lon="-0.06953">
        <ele>29.616882</ele>
        <time>2022-07-11T20:13:21.123Z</time>
      </trkpt>
      <trkpt lat="44.75448" lon="-0.07271">
        <ele>33.757029</ele>
        <time>2022-07-11T20:14:27.960Z</time>
      </trkpt>
      <trkpt lat="44.75418" lon="-0.07322">
        <ele>34.515998</ele>
        <time>2022-07-11T20:14:40.479Z</time>
      </trkpt>
      <trkpt lat="44.75381" lon="-0.07364">
        <ele>35.03757</ele>
        <time>2022-07-11T20:14:51.019Z</time>
      </trkpt>
      <trkpt lat="44.75333" lon="-0.07399">
        <ele>35.04261</ele>
        <time>2022-07-11T20:15:01.802Z</time>
      </trkpt>
      <trkpt lat="44.7531" lon="-0.07503">
        <ele>35.049879</ele>
        <time>2022-07-11T20:15:14.891Z</time>
      </trkpt>
      <trkpt lat="44.75312" lon="-0.07515">
        <ele>35.050695</ele>
        <time>2022-07-11T20:15:16.169Z</time>
      </trkpt>
      <trkpt lat="44.75317" lon="-0.07525">
        <ele>35.051535</ele>
        <time>2022-07-11T20:15:17.603Z</time>
      </trkpt>
      <trkpt lat="44.75359" lon="-0.07546">
        <ele>35.132452</ele>
        <time>2022-07-11T20:15:24.972Z</time>
      </trkpt>
      <trkpt lat="44.75372" lon="-0.07551">
        <ele>35.168219</ele>
        <time>2022-07-11T20:15:27.041Z</time>
      </trkpt>
      <trkpt lat="44.75372" lon="-0.07551">
        <ele>35.169666</ele>
        <time>2022-07-11T20:15:27.120Z</time>
      </trkpt>
      <trkpt lat="44.75376" lon="-0.07553">
        <ele>35.180713</ele>
        <time>2022-07-11T20:15:27.710Z</time>
      </trkpt>
      <trkpt lat="44.75386" lon="-0.07559">
        <ele>35.211813</ele>
        <time>2022-07-11T20:15:29.472Z</time>
      </trkpt>
      <trkpt lat="44.75413" lon="-0.07598">
        <ele>35.319291</ele>
        <time>2022-07-11T20:15:36.007Z</time>
      </trkpt>
      <trkpt lat="44.7542" lon="-0.07621">
        <ele>35.368629</ele>
        <time>2022-07-11T20:15:39.148Z</time>
      </trkpt>
      <trkpt lat="44.75424" lon="-0.07665">
        <ele>35.456063</ele>
        <time>2022-07-11T20:15:45.110Z</time>
      </trkpt>
      <trkpt lat="44.75395" lon="-0.07797">
        <ele>39.10342</ele>
        <time>2022-07-11T20:16:11.810Z</time>
      </trkpt>
      <trkpt lat="44.7538" lon="-0.07836">
        <ele>40.858548</ele>
        <time>2022-07-11T20:16:24.350Z</time>
      </trkpt>
      <trkpt lat="44.75346" lon="-0.07895">
        <ele>43.903384</ele>
        <time>2022-07-11T20:16:50.551Z</time>
      </trkpt>
      <trkpt lat="44.7534" lon="-0.07927">
        <ele>45.221034</ele>
        <time>2022-07-11T20:17:03.193Z</time>
      </trkpt>
      <trkpt lat="44.7541" lon="-0.08107">
        <ele>57.779311</ele>
        <time>2022-07-11T20:18:24.096Z</time>
      </trkpt>
      <trkpt lat="44.75434" lon="-0.08138">
        <ele>60.614901</ele>
        <time>2022-07-11T20:18:41.728Z</time>
      </trkpt>
      <trkpt lat="44.75496" lon="-0.08189">
        <ele>63.382713</ele>
        <time>2022-07-11T20:19:13.141Z</time>
      </trkpt>
      <trkpt lat="44.7556" lon="-0.08301">
        <ele>66.587705</ele>
        <time>2022-07-11T20:19:37.460Z</time>
      </trkpt>
      <trkpt lat="44.75582" lon="-0.08348">
        <ele>66.736808</ele>
        <time>2022-07-11T20:19:43.863Z</time>
      </trkpt>
      <trkpt lat="44.75607" lon="-0.08459">
        <ele>65.649745</ele>
        <time>2022-07-11T20:19:56.632Z</time>
      </trkpt>
      <trkpt lat="44.75618" lon="-0.08485">
        <ele>65.369027</ele>
        <time>2022-07-11T20:19:59.873Z</time>
      </trkpt>
      <trkpt lat="44.75653" lon="-0.08535">
        <ele>64.718342</ele>
        <time>2022-07-11T20:20:07.143Z</time>
      </trkpt>
      <trkpt lat="44.75674" lon="-0.08574">
        <ele>64.103836</ele>
        <time>2022-07-11T20:20:12.181Z</time>
      </trkpt>
      <trkpt lat="44.75707" lon="-0.08663">
        <ele>62.825245</ele>
        <time>2022-07-11T20:20:22.618Z</time>
      </trkpt>
      <trkpt lat="44.75715" lon="-0.08697">
        <ele>62.379975</ele>
        <time>2022-07-11T20:20:26.303Z</time>
      </trkpt>
      <trkpt lat="44.75733" lon="-0.08797">
        <ele>61.487827</ele>
        <time>2022-07-11T20:20:37.528Z</time>
      </trkpt>
      <trkpt lat="44.75759" lon="-0.08937">
        <ele>61.447235</ele>
        <time>2022-07-11T20:20:55.498Z</time>
      </trkpt>
      <trkpt lat="44.75772" lon="-0.08964">
        <ele>61.438235</ele>
        <time>2022-07-11T20:21:00.486Z</time>
      </trkpt>
      <trkpt lat="44.75795" lon="-0.08989">
        <ele>61.426672</ele>
        <time>2022-07-11T20:21:06.908Z</time>
      </trkpt>
      <trkpt lat="44.75896" lon="-0.0906">
        <ele>61.926144</ele>
        <time>2022-07-11T20:21:31.712Z</time>
      </trkpt>
      <trkpt lat="44.75955" lon="-0.09152">
        <ele>62.177492</ele>
        <time>2022-07-11T20:21:47.213Z</time>
      </trkpt>
      <trkpt lat="44.75916" lon="-0.09191">
        <ele>62.055557</ele>
        <time>2022-07-11T20:21:54.564Z</time>
      </trkpt>
      <trkpt lat="44.7584" lon="-0.09221">
        <ele>61.853784</ele>
        <time>2022-07-11T20:22:08.703Z</time>
      </trkpt>
      <trkpt lat="44.75796" lon="-0.09278">
        <ele>62.527378</ele>
        <time>2022-07-11T20:22:21.475Z</time>
      </trkpt>
      <trkpt lat="44.75784" lon="-0.09288">
        <ele>62.897852</ele>
        <time>2022-07-11T20:22:24.327Z</time>
      </trkpt>
      <trkpt lat="44.75765" lon="-0.0929">
        <ele>63.439686</ele>
        <time>2022-07-11T20:22:30.817Z</time>
      </trkpt>
      <trkpt lat="44.75722" lon="-0.09273">
        <ele>64.659583</ele>
        <time>2022-07-11T20:22:43.695Z</time>
      </trkpt>
      <trkpt lat="44.75679" lon="-0.09277">
        <ele>65.836202</ele>
        <time>2022-07-11T20:22:57.231Z</time>
      </trkpt>
      <trkpt lat="44.75605" lon="-0.09262">
        <ele>68.314632</ele>
        <time>2022-07-11T20:23:25.977Z</time>
      </trkpt>
      <trkpt lat="44.75502" lon="-0.0928">
        <ele>72.200409</ele>
        <time>2022-07-11T20:24:00.985Z</time>
      </trkpt>
      <trkpt lat="44.75451" lon="-0.09315">
        <ele>73.797067</ele>
        <time>2022-07-11T20:24:17.914Z</time>
      </trkpt>
      <trkpt lat="44.75395" lon="-0.09361">
        <ele>74.792349</ele>
        <time>2022-07-11T20:24:34.770Z</time>
      </trkpt>
      <trkpt lat="44.7538" lon="-0.09382">
        <ele>75.119789</ele>
        <time>2022-07-11T20:24:39.939Z</time>
      </trkpt>
      <trkpt lat="44.75253" lon="-0.09603">
        <ele>77.310578</ele>
        <time>2022-07-11T20:25:22.245Z</time>
      </trkpt>
      <trkpt lat="44.75188" lon="-0.09705">
        <ele>78.836308</ele>
        <time>2022-07-11T20:25:45.313Z</time>
      </trkpt>
      <trkpt lat="44.75172" lon="-0.09748">
        <ele>79.643325</ele>
        <time>2022-07-11T20:25:54.781Z</time>
      </trkpt>
      <trkpt lat="44.75142" lon="-0.09804">
        <ele>80.783594</ele>
        <time>2022-07-11T20:26:09.114Z</time>
      </trkpt>
      <trkpt lat="44.75012" lon="-0.09974">
        <ele>85.832847</ele>
        <time>2022-07-11T20:27:05.018Z</time>
      </trkpt>
      <trkpt lat="44.74973" lon="-0.09999">
        <ele>87.131609</ele>
        <time>2022-07-11T20:27:17.831Z</time>
      </trkpt>
      <trkpt lat="44.74912" lon="-0.10022">
        <ele>88.282063</ele>
        <time>2022-07-11T20:27:35.520Z</time>
      </trkpt>
      <trkpt lat="44.74899" lon="-0.10036">
        <ele>88.557105</ele>
        <time>2022-07-11T20:27:39.662Z</time>
      </trkpt>
      <trkpt lat="44.74889" lon="-0.10059">
        <ele>88.871438</ele>
        <time>2022-07-11T20:27:44.284Z</time>
      </trkpt>
      <trkpt lat="44.74887" lon="-0.10095">
        <ele>89.306282</ele>
        <time>2022-07-11T20:27:50.409Z</time>
      </trkpt>
      <trkpt lat="44.74934" lon="-0.10322">
        <ele>91.708558</ele>
        <time>2022-07-11T20:28:26.135Z</time>
      </trkpt>
      <trkpt lat="44.74937" lon="-0.10375">
        <ele>92.205398</ele>
        <time>2022-07-11T20:28:34.997Z</time>
      </trkpt>
      <trkpt lat="44.74932" lon="-0.1044">
        <ele>92.94937</ele>
        <time>2022-07-11T20:28:46.371Z</time>
      </trkpt>
      <trkpt lat="44.74905" lon="-0.10784">
        <ele>100.058326</ele>
        <time>2022-07-11T20:29:59.021Z</time>
      </trkpt>
      <trkpt lat="44.74901" lon="-0.10885">
        <ele>102.396476</ele>
        <time>2022-07-11T20:30:22.082Z</time>
      </trkpt>
      <trkpt lat="44.74892" lon="-0.11024">
        <ele>104.557947</ele>
        <time>2022-07-11T20:30:53.276Z</time>
      </trkpt>
      <trkpt lat="44.74858" lon="-0.11225">
        <ele>105.781294</ele>
        <time>2022-07-11T20:31:23.986Z</time>
      </trkpt>
      <trkpt lat="44.74852" lon="-0.11262">
        <ele>105.276406</ele>
        <time>2022-07-11T20:31:28.035Z</time>
      </trkpt>
      <trkpt lat="44.74855" lon="-0.11299">
        <ele>104.782507</ele>
        <time>2022-07-11T20:31:31.878Z</time>
      </trkpt>
      <trkpt lat="44.74841" lon="-0.11333">
        <ele>104.255977</ele>
        <time>2022-07-11T20:31:35.832Z</time>
      </trkpt>
      <trkpt lat="44.74793" lon="-0.11603">
        <ele>99.36567</ele>
        <time>2022-07-11T20:32:02.848Z</time>
      </trkpt>
      <trkpt lat="44.74787" lon="-0.11665">
        <ele>98.149326</ele>
        <time>2022-07-11T20:32:09.274Z</time>
      </trkpt>
      <trkpt lat="44.74814" lon="-0.11954">
        <ele>95.373258</ele>
        <time>2022-07-11T20:32:41.374Z</time>
      </trkpt>
      <trkpt lat="44.74836" lon="-0.12107">
        <ele>94.442954</ele>
        <time>2022-07-11T20:32:59.209Z</time>
      </trkpt>
      <trkpt lat="44.74867" lon="-0.12331">
        <ele>93.511577</ele>
        <time>2022-07-11T20:33:26.263Z</time>
      </trkpt>
      <trkpt lat="44.74911" lon="-0.12845">
        <ele>92.014071</ele>
        <time>2022-07-11T20:34:29.209Z</time>
      </trkpt>
      <trkpt lat="44.74903" lon="-0.12892">
        <ele>91.836801</ele>
        <time>2022-07-11T20:34:34.663Z</time>
      </trkpt>
      <trkpt lat="44.74807" lon="-0.13124">
        <ele>89.810723</ele>
        <time>2022-07-11T20:35:04.747Z</time>
      </trkpt>
      <trkpt lat="44.74807" lon="-0.13156">
        <ele>89.468276</ele>
        <time>2022-07-11T20:35:08.294Z</time>
      </trkpt>
      <trkpt lat="44.74834" lon="-0.13318">
        <ele>87.399561</ele>
        <time>2022-07-11T20:35:26.305Z</time>
      </trkpt>
      <trkpt lat="44.74853" lon="-0.13369">
        <ele>86.6831</ele>
        <time>2022-07-11T20:35:32.292Z</time>
      </trkpt>
      <trkpt lat="44.74932" lon="-0.13522">
        <ele>82.764545</ele>
        <time>2022-07-11T20:35:50.847Z</time>
      </trkpt>
      <trkpt lat="44.74943" lon="-0.13553">
        <ele>82.043758</ele>
        <time>2022-07-11T20:35:54.087Z</time>
      </trkpt>
      <trkpt lat="44.74964" lon="-0.13989">
        <ele>73.664095</ele>
        <time>2022-07-11T20:36:36.986Z</time>
      </trkpt>
      <trkpt lat="44.74965" lon="-0.14351">
        <ele>70.66772</ele>
        <time>2022-07-11T20:37:18.581Z</time>
      </trkpt>
      <trkpt lat="44.7498" lon="-0.14621">
        <ele>69.871824</ele>
        <time>2022-07-11T20:37:50.631Z</time>
      </trkpt>
      <trkpt lat="44.7497" lon="-0.14955">
        <ele>72.199124</ele>
        <time>2022-07-11T20:38:37.533Z</time>
      </trkpt>
      <trkpt lat="44.74871" lon="-0.14942">
        <ele>74.712686</ele>
        <time>2022-07-11T20:39:09.882Z</time>
      </trkpt>
      <trkpt lat="44.74813" lon="-0.14935">
        <ele>76.032785</ele>
        <time>2022-07-11T20:39:30.887Z</time>
      </trkpt>
      <trkpt lat="44.74787" lon="-0.14943">
        <ele>76.592794</ele>
        <time>2022-07-11T20:39:39.672Z</time>
      </trkpt>
      <trkpt lat="44.74683" lon="-0.15057">
        <ele>78.300703</ele>
        <time>2022-07-11T20:40:09.614Z</time>
      </trkpt>
      <trkpt lat="44.74531" lon="-0.15166">
        <ele>74.244232</ele>
        <time>2022-07-11T20:40:33.024Z</time>
      </trkpt>
      <trkpt lat="44.74402" lon="-0.15193">
        <ele>69.734923</ele>
        <time>2022-07-11T20:40:50.350Z</time>
      </trkpt>
      <trkpt lat="44.74387" lon="-0.15363">
        <ele>66.249045</ele>
        <time>2022-07-11T20:41:07.986Z</time>
      </trkpt>
      <trkpt lat="44.74366" lon="-0.15512">
        <ele>63.502975</ele>
        <time>2022-07-11T20:41:24.248Z</time>
      </trkpt>
      <trkpt lat="44.74361" lon="-0.1562">
        <ele>62.065034</ele>
        <time>2022-07-11T20:41:36.008Z</time>
      </trkpt>
      <trkpt lat="44.74337" lon="-0.15876">
        <ele>59.282595</ele>
        <time>2022-07-11T20:42:05.128Z</time>
      </trkpt>
      <trkpt lat="44.74308" lon="-0.16362">
        <ele>56.418065</ele>
        <time>2022-07-11T20:43:04.127Z</time>
      </trkpt>
      <trkpt lat="44.74296" lon="-0.1658">
        <ele>54.640309</ele>
        <time>2022-07-11T20:43:30.869Z</time>
      </trkpt>
      <trkpt lat="44.74291" lon="-0.16666">
        <ele>53.506234</ele>
        <time>2022-07-11T20:43:39.805Z</time>
      </trkpt>
      <trkpt lat="44.74276" lon="-0.16714">
        <ele>52.817856</ele>
        <time>2022-07-11T20:43:45.046Z</time>
      </trkpt>
      <trkpt lat="44.74251" lon="-0.16725">
        <ele>52.293583</ele>
        <time>2022-07-11T20:43:48.695Z</time>
      </trkpt>
      <trkpt lat="44.74215" lon="-0.16725">
        <ele>51.276827</ele>
        <time>2022-07-11T20:43:53.684Z</time>
      </trkpt>
      <trkpt lat="44.74156" lon="-0.16725">
        <ele>49.599192</ele>
        <time>2022-07-11T20:44:01.805Z</time>
      </trkpt>
      <trkpt lat="44.7414" lon="-0.16742">
        <ele>49.023876</ele>
        <time>2022-07-11T20:44:04.594Z</time>
      </trkpt>
      <trkpt lat="44.7412" lon="-0.16881">
        <ele>46.516213</ele>
        <time>2022-07-11T20:44:18.797Z</time>
      </trkpt>
      <trkpt lat="44.74102" lon="-0.1692">
        <ele>45.840439</ele>
        <time>2022-07-11T20:44:23.818Z</time>
      </trkpt>
      <trkpt lat="44.74091" lon="-0.16934">
        <ele>45.547987</ele>
        <time>2022-07-11T20:44:26.040Z</time>
      </trkpt>
      <trkpt lat="44.74067" lon="-0.16945">
        <ele>45.04852</ele>
        <time>2022-07-11T20:44:29.848Z</time>
      </trkpt>
      <trkpt lat="44.73994" lon="-0.1694">
        <ele>43.515354</ele>
        <time>2022-07-11T20:44:41.037Z</time>
      </trkpt>
      <trkpt lat="44.73914" lon="-0.16973">
        <ele>41.188622</ele>
        <time>2022-07-11T20:44:52.237Z</time>
      </trkpt>
      <trkpt lat="44.73898" lon="-0.16988">
        <ele>40.667075</ele>
        <time>2022-07-11T20:44:54.789Z</time>
      </trkpt>
      <trkpt lat="44.73879" lon="-0.17043">
        <ele>39.444361</ele>
        <time>2022-07-11T20:45:00.984Z</time>
      </trkpt>
      <trkpt lat="44.73769" lon="-0.1702">
        <ele>35.9</ele>
      </trkpt>
      <trkpt lat="44.73717" lon="-0.16879">
        <ele>38.1</ele>
      </trkpt>
      <trkpt lat="44.73754" lon="-0.1675">
        <ele>46.4</ele>
      </trkpt>
      <trkpt lat="44.73748" lon="-0.16497">
        <ele>52.1</ele>
      </trkpt>
      <trkpt lat="44.73577" lon="-0.16467">
        <ele>38</ele>
      </trkpt>
      <trkpt lat="44.73528" lon="-0.16651">
        <ele>36.9</ele>
      </trkpt>
      <trkpt lat="44.7322" lon="-0.16823">
        <ele>52.1</ele>
      </trkpt>
      <trkpt lat="44.73156" lon="-0.16831">
        <ele>53.4</ele>
      </trkpt>
      <trkpt lat="44.73013" lon="-0.1684">
        <ele>54.2</ele>
      </trkpt>
      <trkpt lat="44.7294" lon="-0.16857">
        <ele>52.8</ele>
      </trkpt>
      <trkpt lat="44.72964" lon="-0.1696">
        <ele>50.1</ele>
      </trkpt>
    </trkseg>
  </trk>
</gpx>